<?xml version="1.0" encoding="UTF-8" standalone="no" ?>
<gpx xmlns="http://www.topografix.com/GPX/1/1" xmlns:xsi="http://www.w3.org/2001/XMLSchema-instance" xsi:schemaLocation="http://www.topografix.com/GPX/1/1 http://www.topografix.com/GPX/1/1/gpx.xsd" version="1.1" creator="VisuGPX - https://www.visugpx.com">
  <metadata>
    <name>Grand Veymont</name>
    <desc><![CDATA[Traversée N-S du Grand Veymont (conditions neige) et retour par les hauts plateaux du Vercors]]></desc>
  </metadata>
  <trk>
    <name><![CDATA[20161204GrandVeymont]]></name>
    <trkseg>
      <trkpt lat="44.89218" lon="5.54755">
        <ele>1250.33</ele>
        <time>2016-12-04T07:29:57Z</time>
      </trkpt>
      <trkpt lat="44.89218" lon="5.54755">
        <ele>1250.33</ele>
        <time>2016-12-04T07:29:58Z</time>
      </trkpt>
      <trkpt lat="44.89214" lon="5.54751">
        <ele>1249.85</ele>
        <time>2016-12-04T07:30:15Z</time>
      </trkpt>
      <trkpt lat="44.89209" lon="5.54746">
        <ele>1249.85</ele>
        <time>2016-12-04T07:30:24Z</time>
      </trkpt>
      <trkpt lat="44.89205" lon="5.54744">
        <ele>1250.81</ele>
        <time>2016-12-04T07:30:28Z</time>
      </trkpt>
      <trkpt lat="44.89201" lon="5.5473">
        <ele>1250.33</ele>
        <time>2016-12-04T07:30:42Z</time>
      </trkpt>
      <trkpt lat="44.89201" lon="5.54728">
        <ele>1250.33</ele>
        <time>2016-12-04T07:30:44Z</time>
      </trkpt>
      <trkpt lat="44.89194" lon="5.54708">
        <ele>1251.77</ele>
        <time>2016-12-04T07:31:01Z</time>
      </trkpt>
      <trkpt lat="44.89188" lon="5.54683">
        <ele>1252.74</ele>
        <time>2016-12-04T07:31:17Z</time>
      </trkpt>
      <trkpt lat="44.89182" lon="5.54661">
        <ele>1253.7</ele>
        <time>2016-12-04T07:31:32Z</time>
      </trkpt>
      <trkpt lat="44.89176" lon="5.5464">
        <ele>1255.14</ele>
        <time>2016-12-04T07:31:47Z</time>
      </trkpt>
      <trkpt lat="44.89172" lon="5.54629">
        <ele>1255.14</ele>
        <time>2016-12-04T07:31:55Z</time>
      </trkpt>
      <trkpt lat="44.89162" lon="5.54603">
        <ele>1256.58</ele>
        <time>2016-12-04T07:32:13Z</time>
      </trkpt>
      <trkpt lat="44.89155" lon="5.54584">
        <ele>1257.54</ele>
        <time>2016-12-04T07:32:26Z</time>
      </trkpt>
      <trkpt lat="44.89142" lon="5.54559">
        <ele>1258.98</ele>
        <time>2016-12-04T07:32:44Z</time>
      </trkpt>
      <trkpt lat="44.89129" lon="5.54544">
        <ele>1259.94</ele>
        <time>2016-12-04T07:32:58Z</time>
      </trkpt>
      <trkpt lat="44.89114" lon="5.54525">
        <ele>1261.39</ele>
        <time>2016-12-04T07:33:15Z</time>
      </trkpt>
      <trkpt lat="44.891" lon="5.54505">
        <ele>1262.83</ele>
        <time>2016-12-04T07:33:32Z</time>
      </trkpt>
      <trkpt lat="44.89085" lon="5.54488">
        <ele>1264.27</ele>
        <time>2016-12-04T07:33:49Z</time>
      </trkpt>
      <trkpt lat="44.8907" lon="5.54471">
        <ele>1266.19</ele>
        <time>2016-12-04T07:34:07Z</time>
      </trkpt>
      <trkpt lat="44.89057" lon="5.54452">
        <ele>1267.64</ele>
        <time>2016-12-04T07:34:23Z</time>
      </trkpt>
      <trkpt lat="44.89047" lon="5.54435">
        <ele>1268.6</ele>
        <time>2016-12-04T07:34:37Z</time>
      </trkpt>
      <trkpt lat="44.89039" lon="5.5442">
        <ele>1270.52</ele>
        <time>2016-12-04T07:34:50Z</time>
      </trkpt>
      <trkpt lat="44.89027" lon="5.54403">
        <ele>1271.96</ele>
        <time>2016-12-04T07:35:07Z</time>
      </trkpt>
      <trkpt lat="44.89017" lon="5.54383">
        <ele>1274.36</ele>
        <time>2016-12-04T07:35:22Z</time>
      </trkpt>
      <trkpt lat="44.89003" lon="5.54362">
        <ele>1276.77</ele>
        <time>2016-12-04T07:35:41Z</time>
      </trkpt>
      <trkpt lat="44.88994" lon="5.54347">
        <ele>1279.17</ele>
        <time>2016-12-04T07:35:56Z</time>
      </trkpt>
      <trkpt lat="44.88985" lon="5.54331">
        <ele>1281.09</ele>
        <time>2016-12-04T07:36:11Z</time>
      </trkpt>
      <trkpt lat="44.88984" lon="5.5433">
        <ele>1281.09</ele>
        <time>2016-12-04T07:36:12Z</time>
      </trkpt>
      <trkpt lat="44.88973" lon="5.54309">
        <ele>1283.98</ele>
        <time>2016-12-04T07:36:30Z</time>
      </trkpt>
      <trkpt lat="44.88966" lon="5.54292">
        <ele>1286.38</ele>
        <time>2016-12-04T07:36:45Z</time>
      </trkpt>
      <trkpt lat="44.88961" lon="5.54282">
        <ele>1287.82</ele>
        <time>2016-12-04T07:36:56Z</time>
      </trkpt>
      <trkpt lat="44.88951" lon="5.54267">
        <ele>1290.71</ele>
        <time>2016-12-04T07:37:13Z</time>
      </trkpt>
      <trkpt lat="44.88941" lon="5.54249">
        <ele>1293.11</ele>
        <time>2016-12-04T07:37:30Z</time>
      </trkpt>
      <trkpt lat="44.88938" lon="5.54243">
        <ele>1294.07</ele>
        <time>2016-12-04T07:37:35Z</time>
      </trkpt>
      <trkpt lat="44.88931" lon="5.5423">
        <ele>1295.99</ele>
        <time>2016-12-04T07:37:49Z</time>
      </trkpt>
      <trkpt lat="44.88924" lon="5.54214">
        <ele>1297.92</ele>
        <time>2016-12-04T07:38:05Z</time>
      </trkpt>
      <trkpt lat="44.88917" lon="5.54202">
        <ele>1300.32</ele>
        <time>2016-12-04T07:38:19Z</time>
      </trkpt>
      <trkpt lat="44.8891" lon="5.54191">
        <ele>1302.72</ele>
        <time>2016-12-04T07:38:35Z</time>
      </trkpt>
      <trkpt lat="44.88902" lon="5.54183">
        <ele>1304.65</ele>
        <time>2016-12-04T07:38:48Z</time>
      </trkpt>
      <trkpt lat="44.88893" lon="5.54167">
        <ele>1307.05</ele>
        <time>2016-12-04T07:39:04Z</time>
      </trkpt>
      <trkpt lat="44.88887" lon="5.54154">
        <ele>1308.97</ele>
        <time>2016-12-04T07:39:17Z</time>
      </trkpt>
      <trkpt lat="44.88881" lon="5.54143">
        <ele>1311.38</ele>
        <time>2016-12-04T07:39:30Z</time>
      </trkpt>
      <trkpt lat="44.88874" lon="5.54126">
        <ele>1314.26</ele>
        <time>2016-12-04T07:39:46Z</time>
      </trkpt>
      <trkpt lat="44.88871" lon="5.54113">
        <ele>1315.22</ele>
        <time>2016-12-04T07:39:56Z</time>
      </trkpt>
      <trkpt lat="44.88864" lon="5.54099">
        <ele>1317.14</ele>
        <time>2016-12-04T07:40:10Z</time>
      </trkpt>
      <trkpt lat="44.88857" lon="5.54089">
        <ele>1320.03</ele>
        <time>2016-12-04T07:40:23Z</time>
      </trkpt>
      <trkpt lat="44.88855" lon="5.54087">
        <ele>1320.03</ele>
        <time>2016-12-04T07:40:25Z</time>
      </trkpt>
      <trkpt lat="44.88854" lon="5.54085">
        <ele>1320.51</ele>
        <time>2016-12-04T07:40:27Z</time>
      </trkpt>
      <trkpt lat="44.88841" lon="5.54069">
        <ele>1322.43</ele>
        <time>2016-12-04T07:40:44Z</time>
      </trkpt>
      <trkpt lat="44.88835" lon="5.5406">
        <ele>1323.87</ele>
        <time>2016-12-04T07:40:53Z</time>
      </trkpt>
      <trkpt lat="44.88828" lon="5.54052">
        <ele>1326.28</ele>
        <time>2016-12-04T07:41:07Z</time>
      </trkpt>
      <trkpt lat="44.88818" lon="5.54042">
        <ele>1328.68</ele>
        <time>2016-12-04T07:41:20Z</time>
      </trkpt>
      <trkpt lat="44.88807" lon="5.54033">
        <ele>1330.6</ele>
        <time>2016-12-04T07:41:32Z</time>
      </trkpt>
      <trkpt lat="44.88798" lon="5.54027">
        <ele>1333.49</ele>
        <time>2016-12-04T07:41:46Z</time>
      </trkpt>
      <trkpt lat="44.88793" lon="5.54024">
        <ele>1334.45</ele>
        <time>2016-12-04T07:41:52Z</time>
      </trkpt>
      <trkpt lat="44.88781" lon="5.54016">
        <ele>1337.33</ele>
        <time>2016-12-04T07:42:08Z</time>
      </trkpt>
      <trkpt lat="44.8877" lon="5.5401">
        <ele>1339.73</ele>
        <time>2016-12-04T07:42:22Z</time>
      </trkpt>
      <trkpt lat="44.88762" lon="5.54005">
        <ele>1342.14</ele>
        <time>2016-12-04T07:42:36Z</time>
      </trkpt>
      <trkpt lat="44.88753" lon="5.54002">
        <ele>1345.02</ele>
        <time>2016-12-04T07:42:52Z</time>
      </trkpt>
      <trkpt lat="44.88742" lon="5.53993">
        <ele>1347.91</ele>
        <time>2016-12-04T07:43:07Z</time>
      </trkpt>
      <trkpt lat="44.88733" lon="5.5399">
        <ele>1350.79</ele>
        <time>2016-12-04T07:43:21Z</time>
      </trkpt>
      <trkpt lat="44.88727" lon="5.53983">
        <ele>1353.19</ele>
        <time>2016-12-04T07:43:34Z</time>
      </trkpt>
      <trkpt lat="44.88724" lon="5.53972">
        <ele>1356.56</ele>
        <time>2016-12-04T07:43:46Z</time>
      </trkpt>
      <trkpt lat="44.8872" lon="5.5396">
        <ele>1358.96</ele>
        <time>2016-12-04T07:44:01Z</time>
      </trkpt>
      <trkpt lat="44.88713" lon="5.53952">
        <ele>1361.36</ele>
        <time>2016-12-04T07:44:15Z</time>
      </trkpt>
      <trkpt lat="44.88709" lon="5.53937">
        <ele>1362.33</ele>
        <time>2016-12-04T07:44:27Z</time>
      </trkpt>
      <trkpt lat="44.88708" lon="5.53929">
        <ele>1362.33</ele>
        <time>2016-12-04T07:45:00Z</time>
      </trkpt>
      <trkpt lat="44.88708" lon="5.53927">
        <ele>1362.33</ele>
        <time>2016-12-04T07:45:23Z</time>
      </trkpt>
      <trkpt lat="44.88705" lon="5.53925">
        <ele>1363.29</ele>
        <time>2016-12-04T07:45:42Z</time>
      </trkpt>
      <trkpt lat="44.88699" lon="5.53918">
        <ele>1366.17</ele>
        <time>2016-12-04T07:45:57Z</time>
      </trkpt>
      <trkpt lat="44.8869" lon="5.53912">
        <ele>1368.57</ele>
        <time>2016-12-04T07:46:13Z</time>
      </trkpt>
      <trkpt lat="44.88682" lon="5.53902">
        <ele>1370.98</ele>
        <time>2016-12-04T07:46:26Z</time>
      </trkpt>
      <trkpt lat="44.88673" lon="5.53891">
        <ele>1373.86</ele>
        <time>2016-12-04T07:46:39Z</time>
      </trkpt>
      <trkpt lat="44.88668" lon="5.53885">
        <ele>1374.82</ele>
        <time>2016-12-04T07:46:46Z</time>
      </trkpt>
      <trkpt lat="44.88667" lon="5.53882">
        <ele>1375.3</ele>
        <time>2016-12-04T07:46:48Z</time>
      </trkpt>
      <trkpt lat="44.88664" lon="5.53878">
        <ele>1376.26</ele>
        <time>2016-12-04T07:46:53Z</time>
      </trkpt>
      <trkpt lat="44.88657" lon="5.53871">
        <ele>1377.71</ele>
        <time>2016-12-04T07:47:02Z</time>
      </trkpt>
      <trkpt lat="44.88649" lon="5.5386">
        <ele>1379.63</ele>
        <time>2016-12-04T07:47:16Z</time>
      </trkpt>
      <trkpt lat="44.88641" lon="5.5385">
        <ele>1382.03</ele>
        <time>2016-12-04T07:47:29Z</time>
      </trkpt>
      <trkpt lat="44.88633" lon="5.53842">
        <ele>1384.92</ele>
        <time>2016-12-04T07:47:42Z</time>
      </trkpt>
      <trkpt lat="44.88627" lon="5.53835">
        <ele>1387.32</ele>
        <time>2016-12-04T07:47:54Z</time>
      </trkpt>
      <trkpt lat="44.88619" lon="5.53826">
        <ele>1390.2</ele>
        <time>2016-12-04T07:48:07Z</time>
      </trkpt>
      <trkpt lat="44.8861" lon="5.53814">
        <ele>1392.61</ele>
        <time>2016-12-04T07:48:22Z</time>
      </trkpt>
      <trkpt lat="44.88599" lon="5.53809">
        <ele>1395.97</ele>
        <time>2016-12-04T07:48:37Z</time>
      </trkpt>
      <trkpt lat="44.88588" lon="5.53803">
        <ele>1398.86</ele>
        <time>2016-12-04T07:48:50Z</time>
      </trkpt>
      <trkpt lat="44.88577" lon="5.53794">
        <ele>1401.74</ele>
        <time>2016-12-04T07:49:03Z</time>
      </trkpt>
      <trkpt lat="44.88571" lon="5.53787">
        <ele>1404.62</ele>
        <time>2016-12-04T07:49:16Z</time>
      </trkpt>
      <trkpt lat="44.88559" lon="5.53777">
        <ele>1407.99</ele>
        <time>2016-12-04T07:49:29Z</time>
      </trkpt>
      <trkpt lat="44.88553" lon="5.53773">
        <ele>1410.39</ele>
        <time>2016-12-04T07:49:41Z</time>
      </trkpt>
      <trkpt lat="44.88544" lon="5.53758">
        <ele>1413.28</ele>
        <time>2016-12-04T07:49:55Z</time>
      </trkpt>
      <trkpt lat="44.88536" lon="5.53751">
        <ele>1416.16</ele>
        <time>2016-12-04T07:50:09Z</time>
      </trkpt>
      <trkpt lat="44.88529" lon="5.53744">
        <ele>1419.52</ele>
        <time>2016-12-04T07:50:22Z</time>
      </trkpt>
      <trkpt lat="44.88524" lon="5.5374">
        <ele>1421.93</ele>
        <time>2016-12-04T07:50:37Z</time>
      </trkpt>
      <trkpt lat="44.88519" lon="5.53734">
        <ele>1424.81</ele>
        <time>2016-12-04T07:50:49Z</time>
      </trkpt>
      <trkpt lat="44.88512" lon="5.53728">
        <ele>1427.7</ele>
        <time>2016-12-04T07:51:03Z</time>
      </trkpt>
      <trkpt lat="44.88502" lon="5.53723">
        <ele>1431.06</ele>
        <time>2016-12-04T07:51:19Z</time>
      </trkpt>
      <trkpt lat="44.88498" lon="5.53714">
        <ele>1433.94</ele>
        <time>2016-12-04T07:51:34Z</time>
      </trkpt>
      <trkpt lat="44.88493" lon="5.53707">
        <ele>1437.31</ele>
        <time>2016-12-04T07:51:49Z</time>
      </trkpt>
      <trkpt lat="44.88489" lon="5.53703">
        <ele>1439.23</ele>
        <time>2016-12-04T07:52:02Z</time>
      </trkpt>
      <trkpt lat="44.88489" lon="5.53698">
        <ele>1442.11</ele>
        <time>2016-12-04T07:52:13Z</time>
      </trkpt>
      <trkpt lat="44.88482" lon="5.53694">
        <ele>1444.52</ele>
        <time>2016-12-04T07:52:26Z</time>
      </trkpt>
      <trkpt lat="44.88477" lon="5.53692">
        <ele>1446.44</ele>
        <time>2016-12-04T07:52:38Z</time>
      </trkpt>
      <trkpt lat="44.88472" lon="5.53691">
        <ele>1449.32</ele>
        <time>2016-12-04T07:52:52Z</time>
      </trkpt>
      <trkpt lat="44.88463" lon="5.53688">
        <ele>1451.73</ele>
        <time>2016-12-04T07:53:06Z</time>
      </trkpt>
      <trkpt lat="44.88457" lon="5.53683">
        <ele>1454.61</ele>
        <time>2016-12-04T07:53:21Z</time>
      </trkpt>
      <trkpt lat="44.8845" lon="5.53679">
        <ele>1457.5</ele>
        <time>2016-12-04T07:53:36Z</time>
      </trkpt>
      <trkpt lat="44.88443" lon="5.53672">
        <ele>1460.38</ele>
        <time>2016-12-04T07:53:50Z</time>
      </trkpt>
      <trkpt lat="44.88433" lon="5.53666">
        <ele>1463.26</ele>
        <time>2016-12-04T07:54:03Z</time>
      </trkpt>
      <trkpt lat="44.88427" lon="5.5366">
        <ele>1465.19</ele>
        <time>2016-12-04T07:54:14Z</time>
      </trkpt>
      <trkpt lat="44.88417" lon="5.53648">
        <ele>1467.59</ele>
        <time>2016-12-04T07:54:27Z</time>
      </trkpt>
      <trkpt lat="44.88411" lon="5.53634">
        <ele>1470.95</ele>
        <time>2016-12-04T07:54:41Z</time>
      </trkpt>
      <trkpt lat="44.88404" lon="5.53613">
        <ele>1473.36</ele>
        <time>2016-12-04T07:54:56Z</time>
      </trkpt>
      <trkpt lat="44.88402" lon="5.536">
        <ele>1476.72</ele>
        <time>2016-12-04T07:55:10Z</time>
      </trkpt>
      <trkpt lat="44.88403" lon="5.53585">
        <ele>1479.61</ele>
        <time>2016-12-04T07:55:24Z</time>
      </trkpt>
      <trkpt lat="44.88413" lon="5.53571">
        <ele>1482.49</ele>
        <time>2016-12-04T07:55:39Z</time>
      </trkpt>
      <trkpt lat="44.88418" lon="5.53571">
        <ele>1485.85</ele>
        <time>2016-12-04T07:55:54Z</time>
      </trkpt>
      <trkpt lat="44.88427" lon="5.53578">
        <ele>1489.22</ele>
        <time>2016-12-04T07:56:11Z</time>
      </trkpt>
      <trkpt lat="44.88431" lon="5.53587">
        <ele>1491.62</ele>
        <time>2016-12-04T07:56:25Z</time>
      </trkpt>
      <trkpt lat="44.88431" lon="5.5358">
        <ele>1494.03</ele>
        <time>2016-12-04T07:56:38Z</time>
      </trkpt>
      <trkpt lat="44.88428" lon="5.53567">
        <ele>1496.91</ele>
        <time>2016-12-04T07:56:53Z</time>
      </trkpt>
      <trkpt lat="44.88427" lon="5.53556">
        <ele>1499.79</ele>
        <time>2016-12-04T07:57:05Z</time>
      </trkpt>
      <trkpt lat="44.88428" lon="5.53545">
        <ele>1503.16</ele>
        <time>2016-12-04T07:57:20Z</time>
      </trkpt>
      <trkpt lat="44.88428" lon="5.53532">
        <ele>1505.56</ele>
        <time>2016-12-04T07:57:34Z</time>
      </trkpt>
      <trkpt lat="44.88427" lon="5.5352">
        <ele>1508.45</ele>
        <time>2016-12-04T07:57:48Z</time>
      </trkpt>
      <trkpt lat="44.88423" lon="5.53506">
        <ele>1511.33</ele>
        <time>2016-12-04T07:58:04Z</time>
      </trkpt>
      <trkpt lat="44.88423" lon="5.53495">
        <ele>1514.69</ele>
        <time>2016-12-04T07:58:18Z</time>
      </trkpt>
      <trkpt lat="44.8843" lon="5.53472">
        <ele>1517.58</ele>
        <time>2016-12-04T07:58:32Z</time>
      </trkpt>
      <trkpt lat="44.88433" lon="5.53473">
        <ele>1520.46</ele>
        <time>2016-12-04T07:58:46Z</time>
      </trkpt>
      <trkpt lat="44.88432" lon="5.53469">
        <ele>1522.87</ele>
        <time>2016-12-04T07:59:00Z</time>
      </trkpt>
      <trkpt lat="44.88432" lon="5.53463">
        <ele>1525.27</ele>
        <time>2016-12-04T07:59:14Z</time>
      </trkpt>
      <trkpt lat="44.88427" lon="5.53456">
        <ele>1528.63</ele>
        <time>2016-12-04T07:59:29Z</time>
      </trkpt>
      <trkpt lat="44.88422" lon="5.53446">
        <ele>1532</ele>
        <time>2016-12-04T07:59:45Z</time>
      </trkpt>
      <trkpt lat="44.88419" lon="5.53437">
        <ele>1534.4</ele>
        <time>2016-12-04T07:59:57Z</time>
      </trkpt>
      <trkpt lat="44.88416" lon="5.53425">
        <ele>1537.29</ele>
        <time>2016-12-04T08:00:11Z</time>
      </trkpt>
      <trkpt lat="44.88413" lon="5.53415">
        <ele>1540.17</ele>
        <time>2016-12-04T08:00:25Z</time>
      </trkpt>
      <trkpt lat="44.88409" lon="5.53408">
        <ele>1542.57</ele>
        <time>2016-12-04T08:00:39Z</time>
      </trkpt>
      <trkpt lat="44.88407" lon="5.53398">
        <ele>1544.01</ele>
        <time>2016-12-04T08:00:53Z</time>
      </trkpt>
      <trkpt lat="44.8841" lon="5.53386">
        <ele>1544.5</ele>
        <time>2016-12-04T08:01:23Z</time>
      </trkpt>
      <trkpt lat="44.88403" lon="5.53378">
        <ele>1544.98</ele>
        <time>2016-12-04T08:01:51Z</time>
      </trkpt>
      <trkpt lat="44.88399" lon="5.53378">
        <ele>1547.86</ele>
        <time>2016-12-04T08:02:06Z</time>
      </trkpt>
      <trkpt lat="44.88396" lon="5.5337">
        <ele>1551.22</ele>
        <time>2016-12-04T08:02:19Z</time>
      </trkpt>
      <trkpt lat="44.88394" lon="5.5336">
        <ele>1554.11</ele>
        <time>2016-12-04T08:02:33Z</time>
      </trkpt>
      <trkpt lat="44.88392" lon="5.53345">
        <ele>1556.99</ele>
        <time>2016-12-04T08:02:48Z</time>
      </trkpt>
      <trkpt lat="44.88391" lon="5.53332">
        <ele>1560.36</ele>
        <time>2016-12-04T08:03:03Z</time>
      </trkpt>
      <trkpt lat="44.88393" lon="5.53318">
        <ele>1562.28</ele>
        <time>2016-12-04T08:03:15Z</time>
      </trkpt>
      <trkpt lat="44.88401" lon="5.53316">
        <ele>1564.68</ele>
        <time>2016-12-04T08:03:29Z</time>
      </trkpt>
      <trkpt lat="44.88399" lon="5.53307">
        <ele>1567.57</ele>
        <time>2016-12-04T08:03:43Z</time>
      </trkpt>
      <trkpt lat="44.884" lon="5.53293">
        <ele>1570.45</ele>
        <time>2016-12-04T08:03:57Z</time>
      </trkpt>
      <trkpt lat="44.88398" lon="5.53281">
        <ele>1573.33</ele>
        <time>2016-12-04T08:04:11Z</time>
      </trkpt>
      <trkpt lat="44.88399" lon="5.53268">
        <ele>1576.7</ele>
        <time>2016-12-04T08:04:26Z</time>
      </trkpt>
      <trkpt lat="44.88402" lon="5.53257">
        <ele>1579.58</ele>
        <time>2016-12-04T08:04:40Z</time>
      </trkpt>
      <trkpt lat="44.88403" lon="5.53253">
        <ele>1581.99</ele>
        <time>2016-12-04T08:04:51Z</time>
      </trkpt>
      <trkpt lat="44.88397" lon="5.53254">
        <ele>1584.39</ele>
        <time>2016-12-04T08:05:05Z</time>
      </trkpt>
      <trkpt lat="44.88389" lon="5.53247">
        <ele>1586.79</ele>
        <time>2016-12-04T08:05:18Z</time>
      </trkpt>
      <trkpt lat="44.88381" lon="5.53243">
        <ele>1589.68</ele>
        <time>2016-12-04T08:05:33Z</time>
      </trkpt>
      <trkpt lat="44.88372" lon="5.53238">
        <ele>1592.08</ele>
        <time>2016-12-04T08:05:48Z</time>
      </trkpt>
      <trkpt lat="44.88363" lon="5.53233">
        <ele>1594.96</ele>
        <time>2016-12-04T08:06:02Z</time>
      </trkpt>
      <trkpt lat="44.88353" lon="5.53226">
        <ele>1597.85</ele>
        <time>2016-12-04T08:06:18Z</time>
      </trkpt>
      <trkpt lat="44.88344" lon="5.53221">
        <ele>1600.25</ele>
        <time>2016-12-04T08:06:33Z</time>
      </trkpt>
      <trkpt lat="44.88336" lon="5.53211">
        <ele>1602.66</ele>
        <time>2016-12-04T08:06:47Z</time>
      </trkpt>
      <trkpt lat="44.88328" lon="5.53206">
        <ele>1605.06</ele>
        <time>2016-12-04T08:07:02Z</time>
      </trkpt>
      <trkpt lat="44.88321" lon="5.53199">
        <ele>1608.42</ele>
        <time>2016-12-04T08:07:16Z</time>
      </trkpt>
      <trkpt lat="44.88313" lon="5.53191">
        <ele>1610.35</ele>
        <time>2016-12-04T08:07:30Z</time>
      </trkpt>
      <trkpt lat="44.88306" lon="5.53186">
        <ele>1613.23</ele>
        <time>2016-12-04T08:07:45Z</time>
      </trkpt>
      <trkpt lat="44.883" lon="5.53179">
        <ele>1616.11</ele>
        <time>2016-12-04T08:07:59Z</time>
      </trkpt>
      <trkpt lat="44.88295" lon="5.53173">
        <ele>1618.52</ele>
        <time>2016-12-04T08:08:12Z</time>
      </trkpt>
      <trkpt lat="44.88288" lon="5.53164">
        <ele>1620.44</ele>
        <time>2016-12-04T08:08:25Z</time>
      </trkpt>
      <trkpt lat="44.88284" lon="5.53165">
        <ele>1621.4</ele>
        <time>2016-12-04T08:08:31Z</time>
      </trkpt>
      <trkpt lat="44.88273" lon="5.53165">
        <ele>1623.32</ele>
        <time>2016-12-04T08:08:45Z</time>
      </trkpt>
      <trkpt lat="44.88266" lon="5.53163">
        <ele>1624.77</ele>
        <time>2016-12-04T08:08:53Z</time>
      </trkpt>
      <trkpt lat="44.88256" lon="5.53157">
        <ele>1626.69</ele>
        <time>2016-12-04T08:09:08Z</time>
      </trkpt>
      <trkpt lat="44.88245" lon="5.53159">
        <ele>1628.61</ele>
        <time>2016-12-04T08:09:22Z</time>
      </trkpt>
      <trkpt lat="44.88236" lon="5.53162">
        <ele>1631.49</ele>
        <time>2016-12-04T08:09:37Z</time>
      </trkpt>
      <trkpt lat="44.8823" lon="5.5317">
        <ele>1634.38</ele>
        <time>2016-12-04T08:09:49Z</time>
      </trkpt>
      <trkpt lat="44.88222" lon="5.5318">
        <ele>1636.3</ele>
        <time>2016-12-04T08:10:02Z</time>
      </trkpt>
      <trkpt lat="44.88214" lon="5.53185">
        <ele>1639.19</ele>
        <time>2016-12-04T08:10:16Z</time>
      </trkpt>
      <trkpt lat="44.88212" lon="5.53185">
        <ele>1639.19</ele>
        <time>2016-12-04T08:10:18Z</time>
      </trkpt>
      <trkpt lat="44.88197" lon="5.53188">
        <ele>1641.11</ele>
        <time>2016-12-04T08:10:34Z</time>
      </trkpt>
      <trkpt lat="44.88188" lon="5.53183">
        <ele>1643.51</ele>
        <time>2016-12-04T08:10:47Z</time>
      </trkpt>
      <trkpt lat="44.88191" lon="5.53174">
        <ele>1645.43</ele>
        <time>2016-12-04T08:10:58Z</time>
      </trkpt>
      <trkpt lat="44.88195" lon="5.5316">
        <ele>1646.88</ele>
        <time>2016-12-04T08:11:10Z</time>
      </trkpt>
      <trkpt lat="44.88199" lon="5.53143">
        <ele>1649.28</ele>
        <time>2016-12-04T08:11:24Z</time>
      </trkpt>
      <trkpt lat="44.88207" lon="5.53127">
        <ele>1651.2</ele>
        <time>2016-12-04T08:11:39Z</time>
      </trkpt>
      <trkpt lat="44.8821" lon="5.53114">
        <ele>1654.09</ele>
        <time>2016-12-04T08:11:53Z</time>
      </trkpt>
      <trkpt lat="44.88209" lon="5.53109">
        <ele>1655.05</ele>
        <time>2016-12-04T08:11:59Z</time>
      </trkpt>
      <trkpt lat="44.88208" lon="5.53093">
        <ele>1657.93</ele>
        <time>2016-12-04T08:12:15Z</time>
      </trkpt>
      <trkpt lat="44.8821" lon="5.53085">
        <ele>1660.81</ele>
        <time>2016-12-04T08:12:29Z</time>
      </trkpt>
      <trkpt lat="44.88211" lon="5.53071">
        <ele>1662.74</ele>
        <time>2016-12-04T08:12:43Z</time>
      </trkpt>
      <trkpt lat="44.88213" lon="5.53053">
        <ele>1666.1</ele>
        <time>2016-12-04T08:12:59Z</time>
      </trkpt>
      <trkpt lat="44.88214" lon="5.5304">
        <ele>1667.54</ele>
        <time>2016-12-04T08:13:13Z</time>
      </trkpt>
      <trkpt lat="44.88214" lon="5.53028">
        <ele>1670.43</ele>
        <time>2016-12-04T08:13:26Z</time>
      </trkpt>
      <trkpt lat="44.88218" lon="5.53013">
        <ele>1672.35</ele>
        <time>2016-12-04T08:13:40Z</time>
      </trkpt>
      <trkpt lat="44.88222" lon="5.53007">
        <ele>1673.79</ele>
        <time>2016-12-04T08:13:48Z</time>
      </trkpt>
      <trkpt lat="44.88224" lon="5.53003">
        <ele>1674.27</ele>
        <time>2016-12-04T08:13:51Z</time>
      </trkpt>
      <trkpt lat="44.88229" lon="5.52996">
        <ele>1674.75</ele>
        <time>2016-12-04T08:13:58Z</time>
      </trkpt>
      <trkpt lat="44.88233" lon="5.52989">
        <ele>1675.23</ele>
        <time>2016-12-04T08:14:05Z</time>
      </trkpt>
      <trkpt lat="44.88239" lon="5.52975">
        <ele>1676.68</ele>
        <time>2016-12-04T08:14:18Z</time>
      </trkpt>
      <trkpt lat="44.88245" lon="5.52963">
        <ele>1680.04</ele>
        <time>2016-12-04T08:14:33Z</time>
      </trkpt>
      <trkpt lat="44.8825" lon="5.52951">
        <ele>1681.96</ele>
        <time>2016-12-04T08:14:46Z</time>
      </trkpt>
      <trkpt lat="44.88259" lon="5.5294">
        <ele>1684.37</ele>
        <time>2016-12-04T08:15:00Z</time>
      </trkpt>
      <trkpt lat="44.8827" lon="5.52933">
        <ele>1687.25</ele>
        <time>2016-12-04T08:15:15Z</time>
      </trkpt>
      <trkpt lat="44.88281" lon="5.52926">
        <ele>1690.14</ele>
        <time>2016-12-04T08:15:31Z</time>
      </trkpt>
      <trkpt lat="44.88285" lon="5.52923">
        <ele>1692.06</ele>
        <time>2016-12-04T08:15:44Z</time>
      </trkpt>
      <trkpt lat="44.88288" lon="5.5292">
        <ele>1694.46</ele>
        <time>2016-12-04T08:15:57Z</time>
      </trkpt>
      <trkpt lat="44.88285" lon="5.52911">
        <ele>1697.34</ele>
        <time>2016-12-04T08:16:12Z</time>
      </trkpt>
      <trkpt lat="44.88279" lon="5.52908">
        <ele>1699.27</ele>
        <time>2016-12-04T08:16:25Z</time>
      </trkpt>
      <trkpt lat="44.88271" lon="5.52908">
        <ele>1701.67</ele>
        <time>2016-12-04T08:16:38Z</time>
      </trkpt>
      <trkpt lat="44.88262" lon="5.52904">
        <ele>1703.11</ele>
        <time>2016-12-04T08:16:50Z</time>
      </trkpt>
      <trkpt lat="44.88259" lon="5.52891">
        <ele>1705.52</ele>
        <time>2016-12-04T08:17:03Z</time>
      </trkpt>
      <trkpt lat="44.88254" lon="5.52876">
        <ele>1708.4</ele>
        <time>2016-12-04T08:17:19Z</time>
      </trkpt>
      <trkpt lat="44.88257" lon="5.52864">
        <ele>1710.8</ele>
        <time>2016-12-04T08:17:34Z</time>
      </trkpt>
      <trkpt lat="44.8826" lon="5.52854">
        <ele>1713.21</ele>
        <time>2016-12-04T08:17:47Z</time>
      </trkpt>
      <trkpt lat="44.88265" lon="5.52843">
        <ele>1715.13</ele>
        <time>2016-12-04T08:18:01Z</time>
      </trkpt>
      <trkpt lat="44.88267" lon="5.52828">
        <ele>1718.01</ele>
        <time>2016-12-04T08:18:18Z</time>
      </trkpt>
      <trkpt lat="44.88265" lon="5.52811">
        <ele>1720.42</ele>
        <time>2016-12-04T08:18:34Z</time>
      </trkpt>
      <trkpt lat="44.88267" lon="5.52797">
        <ele>1723.78</ele>
        <time>2016-12-04T08:18:49Z</time>
      </trkpt>
      <trkpt lat="44.88268" lon="5.52785">
        <ele>1726.18</ele>
        <time>2016-12-04T08:19:03Z</time>
      </trkpt>
      <trkpt lat="44.8827" lon="5.52781">
        <ele>1726.67</ele>
        <time>2016-12-04T08:19:22Z</time>
      </trkpt>
      <trkpt lat="44.8827" lon="5.52781">
        <ele>1726.18</ele>
        <time>2016-12-04T08:19:46Z</time>
      </trkpt>
      <trkpt lat="44.8827" lon="5.52778">
        <ele>1726.18</ele>
        <time>2016-12-04T08:20:10Z</time>
      </trkpt>
      <trkpt lat="44.88268" lon="5.52775">
        <ele>1727.63</ele>
        <time>2016-12-04T08:20:17Z</time>
      </trkpt>
      <trkpt lat="44.88264" lon="5.52768">
        <ele>1729.07</ele>
        <time>2016-12-04T08:20:27Z</time>
      </trkpt>
      <trkpt lat="44.88266" lon="5.52756">
        <ele>1731.47</ele>
        <time>2016-12-04T08:20:41Z</time>
      </trkpt>
      <trkpt lat="44.88263" lon="5.52749">
        <ele>1733.39</ele>
        <time>2016-12-04T08:20:54Z</time>
      </trkpt>
      <trkpt lat="44.88262" lon="5.52748">
        <ele>1733.88</ele>
        <time>2016-12-04T08:20:55Z</time>
      </trkpt>
      <trkpt lat="44.8826" lon="5.52735">
        <ele>1737.72</ele>
        <time>2016-12-04T08:21:11Z</time>
      </trkpt>
      <trkpt lat="44.88256" lon="5.52723">
        <ele>1740.12</ele>
        <time>2016-12-04T08:21:27Z</time>
      </trkpt>
      <trkpt lat="44.88252" lon="5.52723">
        <ele>1742.05</ele>
        <time>2016-12-04T08:21:41Z</time>
      </trkpt>
      <trkpt lat="44.88245" lon="5.5272">
        <ele>1743.97</ele>
        <time>2016-12-04T08:21:53Z</time>
      </trkpt>
      <trkpt lat="44.88243" lon="5.52723">
        <ele>1746.37</ele>
        <time>2016-12-04T08:22:05Z</time>
      </trkpt>
      <trkpt lat="44.88236" lon="5.52729">
        <ele>1747.81</ele>
        <time>2016-12-04T08:22:18Z</time>
      </trkpt>
      <trkpt lat="44.88228" lon="5.52731">
        <ele>1749.74</ele>
        <time>2016-12-04T08:22:30Z</time>
      </trkpt>
      <trkpt lat="44.88218" lon="5.52732">
        <ele>1752.14</ele>
        <time>2016-12-04T08:22:44Z</time>
      </trkpt>
      <trkpt lat="44.88209" lon="5.52737">
        <ele>1754.54</ele>
        <time>2016-12-04T08:22:58Z</time>
      </trkpt>
      <trkpt lat="44.88202" lon="5.52732">
        <ele>1756.95</ele>
        <time>2016-12-04T08:23:11Z</time>
      </trkpt>
      <trkpt lat="44.88196" lon="5.52723">
        <ele>1759.35</ele>
        <time>2016-12-04T08:23:27Z</time>
      </trkpt>
      <trkpt lat="44.88193" lon="5.52716">
        <ele>1761.75</ele>
        <time>2016-12-04T08:23:39Z</time>
      </trkpt>
      <trkpt lat="44.88186" lon="5.5272">
        <ele>1763.68</ele>
        <time>2016-12-04T08:23:52Z</time>
      </trkpt>
      <trkpt lat="44.88179" lon="5.52728">
        <ele>1765.6</ele>
        <time>2016-12-04T08:24:06Z</time>
      </trkpt>
      <trkpt lat="44.88169" lon="5.52725">
        <ele>1767.52</ele>
        <time>2016-12-04T08:24:19Z</time>
      </trkpt>
      <trkpt lat="44.88159" lon="5.52724">
        <ele>1770.41</ele>
        <time>2016-12-04T08:24:34Z</time>
      </trkpt>
      <trkpt lat="44.88147" lon="5.52725">
        <ele>1772.81</ele>
        <time>2016-12-04T08:24:48Z</time>
      </trkpt>
      <trkpt lat="44.88135" lon="5.52725">
        <ele>1775.21</ele>
        <time>2016-12-04T08:25:04Z</time>
      </trkpt>
      <trkpt lat="44.88124" lon="5.52721">
        <ele>1777.61</ele>
        <time>2016-12-04T08:25:19Z</time>
      </trkpt>
      <trkpt lat="44.88113" lon="5.52717">
        <ele>1779.54</ele>
        <time>2016-12-04T08:25:34Z</time>
      </trkpt>
      <trkpt lat="44.88113" lon="5.52712">
        <ele>1780.98</ele>
        <time>2016-12-04T08:25:44Z</time>
      </trkpt>
      <trkpt lat="44.88126" lon="5.52703">
        <ele>1783.38</ele>
        <time>2016-12-04T08:26:01Z</time>
      </trkpt>
      <trkpt lat="44.88128" lon="5.52701">
        <ele>1783.86</ele>
        <time>2016-12-04T08:26:04Z</time>
      </trkpt>
      <trkpt lat="44.88129" lon="5.52699">
        <ele>1783.86</ele>
        <time>2016-12-04T08:26:06Z</time>
      </trkpt>
      <trkpt lat="44.88134" lon="5.52683">
        <ele>1785.79</ele>
        <time>2016-12-04T08:26:20Z</time>
      </trkpt>
      <trkpt lat="44.88138" lon="5.52662">
        <ele>1788.67</ele>
        <time>2016-12-04T08:26:38Z</time>
      </trkpt>
      <trkpt lat="44.88141" lon="5.52646">
        <ele>1791.07</ele>
        <time>2016-12-04T08:26:55Z</time>
      </trkpt>
      <trkpt lat="44.88145" lon="5.5263">
        <ele>1793.48</ele>
        <time>2016-12-04T08:27:10Z</time>
      </trkpt>
      <trkpt lat="44.88152" lon="5.52616">
        <ele>1796.36</ele>
        <time>2016-12-04T08:27:25Z</time>
      </trkpt>
      <trkpt lat="44.88159" lon="5.52603">
        <ele>1798.28</ele>
        <time>2016-12-04T08:27:40Z</time>
      </trkpt>
      <trkpt lat="44.88165" lon="5.5259">
        <ele>1801.65</ele>
        <time>2016-12-04T08:27:56Z</time>
      </trkpt>
      <trkpt lat="44.88166" lon="5.5259">
        <ele>1802.61</ele>
        <time>2016-12-04T08:28:06Z</time>
      </trkpt>
      <trkpt lat="44.88155" lon="5.52596">
        <ele>1804.53</ele>
        <time>2016-12-04T08:28:20Z</time>
      </trkpt>
      <trkpt lat="44.88145" lon="5.526">
        <ele>1806.45</ele>
        <time>2016-12-04T08:28:33Z</time>
      </trkpt>
      <trkpt lat="44.88136" lon="5.52601">
        <ele>1807.42</ele>
        <time>2016-12-04T08:28:44Z</time>
      </trkpt>
      <trkpt lat="44.88125" lon="5.52612">
        <ele>1809.82</ele>
        <time>2016-12-04T08:29:01Z</time>
      </trkpt>
      <trkpt lat="44.8812" lon="5.52605">
        <ele>1812.22</ele>
        <time>2016-12-04T08:29:14Z</time>
      </trkpt>
      <trkpt lat="44.88122" lon="5.52592">
        <ele>1814.15</ele>
        <time>2016-12-04T08:29:29Z</time>
      </trkpt>
      <trkpt lat="44.88125" lon="5.5258">
        <ele>1817.51</ele>
        <time>2016-12-04T08:29:44Z</time>
      </trkpt>
      <trkpt lat="44.88129" lon="5.52565">
        <ele>1820.39</ele>
        <time>2016-12-04T08:30:03Z</time>
      </trkpt>
      <trkpt lat="44.88132" lon="5.52552">
        <ele>1822.8</ele>
        <time>2016-12-04T08:30:21Z</time>
      </trkpt>
      <trkpt lat="44.88129" lon="5.52546">
        <ele>1825.68</ele>
        <time>2016-12-04T08:30:35Z</time>
      </trkpt>
      <trkpt lat="44.88125" lon="5.52541">
        <ele>1828.56</ele>
        <time>2016-12-04T08:30:47Z</time>
      </trkpt>
      <trkpt lat="44.88123" lon="5.52534">
        <ele>1830.97</ele>
        <time>2016-12-04T08:31:02Z</time>
      </trkpt>
      <trkpt lat="44.88122" lon="5.52525">
        <ele>1833.37</ele>
        <time>2016-12-04T08:31:15Z</time>
      </trkpt>
      <trkpt lat="44.88122" lon="5.52513">
        <ele>1835.77</ele>
        <time>2016-12-04T08:31:30Z</time>
      </trkpt>
      <trkpt lat="44.88123" lon="5.52498">
        <ele>1838.18</ele>
        <time>2016-12-04T08:31:45Z</time>
      </trkpt>
      <trkpt lat="44.88129" lon="5.52482">
        <ele>1840.58</ele>
        <time>2016-12-04T08:32:02Z</time>
      </trkpt>
      <trkpt lat="44.88135" lon="5.52473">
        <ele>1842.98</ele>
        <time>2016-12-04T08:32:16Z</time>
      </trkpt>
      <trkpt lat="44.88132" lon="5.52478">
        <ele>1845.39</ele>
        <time>2016-12-04T08:32:29Z</time>
      </trkpt>
      <trkpt lat="44.88123" lon="5.52481">
        <ele>1848.75</ele>
        <time>2016-12-04T08:32:46Z</time>
      </trkpt>
      <trkpt lat="44.8812" lon="5.52472">
        <ele>1850.68</ele>
        <time>2016-12-04T08:32:59Z</time>
      </trkpt>
      <trkpt lat="44.88119" lon="5.52461">
        <ele>1853.08</ele>
        <time>2016-12-04T08:33:11Z</time>
      </trkpt>
      <trkpt lat="44.88122" lon="5.52451">
        <ele>1855.48</ele>
        <time>2016-12-04T08:33:26Z</time>
      </trkpt>
      <trkpt lat="44.88125" lon="5.52442">
        <ele>1858.37</ele>
        <time>2016-12-04T08:33:41Z</time>
      </trkpt>
      <trkpt lat="44.88124" lon="5.52447">
        <ele>1859.81</ele>
        <time>2016-12-04T08:33:55Z</time>
      </trkpt>
      <trkpt lat="44.8812" lon="5.52446">
        <ele>1862.21</ele>
        <time>2016-12-04T08:34:09Z</time>
      </trkpt>
      <trkpt lat="44.8812" lon="5.52435">
        <ele>1865.09</ele>
        <time>2016-12-04T08:34:24Z</time>
      </trkpt>
      <trkpt lat="44.88121" lon="5.52422">
        <ele>1867.02</ele>
        <time>2016-12-04T08:34:38Z</time>
      </trkpt>
      <trkpt lat="44.88124" lon="5.52411">
        <ele>1869.9</ele>
        <time>2016-12-04T08:34:51Z</time>
      </trkpt>
      <trkpt lat="44.88128" lon="5.524">
        <ele>1872.79</ele>
        <time>2016-12-04T08:35:06Z</time>
      </trkpt>
      <trkpt lat="44.88129" lon="5.52391">
        <ele>1874.23</ele>
        <time>2016-12-04T08:35:18Z</time>
      </trkpt>
      <trkpt lat="44.88139" lon="5.52381">
        <ele>1875.19</ele>
        <time>2016-12-04T08:35:30Z</time>
      </trkpt>
      <trkpt lat="44.88143" lon="5.5237">
        <ele>1877.11</ele>
        <time>2016-12-04T08:35:46Z</time>
      </trkpt>
      <trkpt lat="44.88147" lon="5.52359">
        <ele>1880</ele>
        <time>2016-12-04T08:36:01Z</time>
      </trkpt>
      <trkpt lat="44.8815" lon="5.5235">
        <ele>1882.4</ele>
        <time>2016-12-04T08:36:14Z</time>
      </trkpt>
      <trkpt lat="44.88157" lon="5.5234">
        <ele>1884.8</ele>
        <time>2016-12-04T08:36:28Z</time>
      </trkpt>
      <trkpt lat="44.88166" lon="5.52329">
        <ele>1887.69</ele>
        <time>2016-12-04T08:36:46Z</time>
      </trkpt>
      <trkpt lat="44.88165" lon="5.52331">
        <ele>1889.13</ele>
        <time>2016-12-04T08:36:59Z</time>
      </trkpt>
      <trkpt lat="44.88157" lon="5.52329">
        <ele>1891.05</ele>
        <time>2016-12-04T08:37:14Z</time>
      </trkpt>
      <trkpt lat="44.88149" lon="5.52328">
        <ele>1893.93</ele>
        <time>2016-12-04T08:37:29Z</time>
      </trkpt>
      <trkpt lat="44.88143" lon="5.52333">
        <ele>1896.82</ele>
        <time>2016-12-04T08:37:43Z</time>
      </trkpt>
      <trkpt lat="44.88143" lon="5.52341">
        <ele>1898.74</ele>
        <time>2016-12-04T08:37:57Z</time>
      </trkpt>
      <trkpt lat="44.88137" lon="5.52341">
        <ele>1899.7</ele>
        <time>2016-12-04T08:38:16Z</time>
      </trkpt>
      <trkpt lat="44.88135" lon="5.52339">
        <ele>1900.18</ele>
        <time>2016-12-04T08:38:32Z</time>
      </trkpt>
      <trkpt lat="44.8813" lon="5.52337">
        <ele>1901.63</ele>
        <time>2016-12-04T08:38:51Z</time>
      </trkpt>
      <trkpt lat="44.88123" lon="5.52339">
        <ele>1904.03</ele>
        <time>2016-12-04T08:39:06Z</time>
      </trkpt>
      <trkpt lat="44.88117" lon="5.52342">
        <ele>1907.39</ele>
        <time>2016-12-04T08:39:19Z</time>
      </trkpt>
      <trkpt lat="44.88115" lon="5.52336">
        <ele>1910.28</ele>
        <time>2016-12-04T08:39:32Z</time>
      </trkpt>
      <trkpt lat="44.88114" lon="5.52322">
        <ele>1912.2</ele>
        <time>2016-12-04T08:39:45Z</time>
      </trkpt>
      <trkpt lat="44.88117" lon="5.52312">
        <ele>1914.12</ele>
        <time>2016-12-04T08:39:58Z</time>
      </trkpt>
      <trkpt lat="44.88122" lon="5.52303">
        <ele>1917.01</ele>
        <time>2016-12-04T08:40:11Z</time>
      </trkpt>
      <trkpt lat="44.88126" lon="5.52293">
        <ele>1920.37</ele>
        <time>2016-12-04T08:40:27Z</time>
      </trkpt>
      <trkpt lat="44.88126" lon="5.52289">
        <ele>1920.85</ele>
        <time>2016-12-04T08:40:32Z</time>
      </trkpt>
      <trkpt lat="44.88127" lon="5.52276">
        <ele>1922.77</ele>
        <time>2016-12-04T08:40:46Z</time>
      </trkpt>
      <trkpt lat="44.88127" lon="5.52265">
        <ele>1926.14</ele>
        <time>2016-12-04T08:40:59Z</time>
      </trkpt>
      <trkpt lat="44.88126" lon="5.52256">
        <ele>1927.58</ele>
        <time>2016-12-04T08:41:12Z</time>
      </trkpt>
      <trkpt lat="44.88125" lon="5.52249">
        <ele>1928.54</ele>
        <time>2016-12-04T08:41:27Z</time>
      </trkpt>
      <trkpt lat="44.88123" lon="5.52243">
        <ele>1926.62</ele>
        <time>2016-12-04T08:41:42Z</time>
      </trkpt>
      <trkpt lat="44.88124" lon="5.5224">
        <ele>1926.14</ele>
        <time>2016-12-04T08:42:00Z</time>
      </trkpt>
      <trkpt lat="44.88127" lon="5.5224">
        <ele>1926.14</ele>
        <time>2016-12-04T08:42:21Z</time>
      </trkpt>
      <trkpt lat="44.88127" lon="5.52241">
        <ele>1926.14</ele>
        <time>2016-12-04T08:42:43Z</time>
      </trkpt>
      <trkpt lat="44.88128" lon="5.52242">
        <ele>1925.66</ele>
        <time>2016-12-04T08:43:03Z</time>
      </trkpt>
      <trkpt lat="44.88128" lon="5.52245">
        <ele>1925.66</ele>
        <time>2016-12-04T08:43:24Z</time>
      </trkpt>
      <trkpt lat="44.8813" lon="5.52248">
        <ele>1926.62</ele>
        <time>2016-12-04T08:43:41Z</time>
      </trkpt>
      <trkpt lat="44.8813" lon="5.52255">
        <ele>1928.54</ele>
        <time>2016-12-04T08:43:57Z</time>
      </trkpt>
      <trkpt lat="44.88127" lon="5.52254">
        <ele>1928.54</ele>
        <time>2016-12-04T08:44:14Z</time>
      </trkpt>
      <trkpt lat="44.88128" lon="5.52256">
        <ele>1928.06</ele>
        <time>2016-12-04T08:44:31Z</time>
      </trkpt>
      <trkpt lat="44.88128" lon="5.52256">
        <ele>1928.54</ele>
        <time>2016-12-04T08:44:54Z</time>
      </trkpt>
      <trkpt lat="44.88127" lon="5.52256">
        <ele>1929.02</ele>
        <time>2016-12-04T08:45:19Z</time>
      </trkpt>
      <trkpt lat="44.88126" lon="5.52253">
        <ele>1929.02</ele>
        <time>2016-12-04T08:45:40Z</time>
      </trkpt>
      <trkpt lat="44.88124" lon="5.5225">
        <ele>1929.5</ele>
        <time>2016-12-04T08:45:52Z</time>
      </trkpt>
      <trkpt lat="44.88115" lon="5.52245">
        <ele>1930.46</ele>
        <time>2016-12-04T08:46:06Z</time>
      </trkpt>
      <trkpt lat="44.88105" lon="5.52237">
        <ele>1932.39</ele>
        <time>2016-12-04T08:46:20Z</time>
      </trkpt>
      <trkpt lat="44.88099" lon="5.52228">
        <ele>1934.79</ele>
        <time>2016-12-04T08:46:32Z</time>
      </trkpt>
      <trkpt lat="44.88093" lon="5.5222">
        <ele>1937.19</ele>
        <time>2016-12-04T08:46:47Z</time>
      </trkpt>
      <trkpt lat="44.88087" lon="5.52218">
        <ele>1939.6</ele>
        <time>2016-12-04T08:47:01Z</time>
      </trkpt>
      <trkpt lat="44.88079" lon="5.52212">
        <ele>1940.56</ele>
        <time>2016-12-04T08:47:15Z</time>
      </trkpt>
      <trkpt lat="44.88078" lon="5.52212">
        <ele>1942</ele>
        <time>2016-12-04T08:47:18Z</time>
      </trkpt>
      <trkpt lat="44.88073" lon="5.52208">
        <ele>1944.4</ele>
        <time>2016-12-04T08:47:33Z</time>
      </trkpt>
      <trkpt lat="44.88077" lon="5.52218">
        <ele>1947.29</ele>
        <time>2016-12-04T08:47:47Z</time>
      </trkpt>
      <trkpt lat="44.88079" lon="5.52232">
        <ele>1950.17</ele>
        <time>2016-12-04T08:48:05Z</time>
      </trkpt>
      <trkpt lat="44.88084" lon="5.52248">
        <ele>1953.06</ele>
        <time>2016-12-04T08:48:24Z</time>
      </trkpt>
      <trkpt lat="44.88089" lon="5.5226">
        <ele>1955.94</ele>
        <time>2016-12-04T08:48:37Z</time>
      </trkpt>
      <trkpt lat="44.88091" lon="5.52274">
        <ele>1957.86</ele>
        <time>2016-12-04T08:48:54Z</time>
      </trkpt>
      <trkpt lat="44.88097" lon="5.52287">
        <ele>1960.75</ele>
        <time>2016-12-04T08:49:09Z</time>
      </trkpt>
      <trkpt lat="44.88098" lon="5.5229">
        <ele>1963.15</ele>
        <time>2016-12-04T08:49:14Z</time>
      </trkpt>
      <trkpt lat="44.881" lon="5.52304">
        <ele>1965.07</ele>
        <time>2016-12-04T08:49:30Z</time>
      </trkpt>
      <trkpt lat="44.88097" lon="5.52311">
        <ele>1965.55</ele>
        <time>2016-12-04T08:49:43Z</time>
      </trkpt>
      <trkpt lat="44.8809" lon="5.52319">
        <ele>1967.48</ele>
        <time>2016-12-04T08:49:56Z</time>
      </trkpt>
      <trkpt lat="44.88084" lon="5.52323">
        <ele>1969.88</ele>
        <time>2016-12-04T08:50:09Z</time>
      </trkpt>
      <trkpt lat="44.88079" lon="5.52327">
        <ele>1971.32</ele>
        <time>2016-12-04T08:50:21Z</time>
      </trkpt>
      <trkpt lat="44.88072" lon="5.52332">
        <ele>1973.24</ele>
        <time>2016-12-04T08:50:36Z</time>
      </trkpt>
      <trkpt lat="44.88064" lon="5.52334">
        <ele>1976.13</ele>
        <time>2016-12-04T08:50:51Z</time>
      </trkpt>
      <trkpt lat="44.88058" lon="5.52336">
        <ele>1978.53</ele>
        <time>2016-12-04T08:51:07Z</time>
      </trkpt>
      <trkpt lat="44.88056" lon="5.52337">
        <ele>1979.49</ele>
        <time>2016-12-04T08:51:13Z</time>
      </trkpt>
      <trkpt lat="44.88054" lon="5.52336">
        <ele>1980.93</ele>
        <time>2016-12-04T08:51:16Z</time>
      </trkpt>
      <trkpt lat="44.88054" lon="5.5233">
        <ele>1983.34</ele>
        <time>2016-12-04T08:51:29Z</time>
      </trkpt>
      <trkpt lat="44.88053" lon="5.52325">
        <ele>1985.74</ele>
        <time>2016-12-04T08:51:44Z</time>
      </trkpt>
      <trkpt lat="44.8805" lon="5.52326">
        <ele>1987.66</ele>
        <time>2016-12-04T08:51:58Z</time>
      </trkpt>
      <trkpt lat="44.88046" lon="5.52327">
        <ele>1990.07</ele>
        <time>2016-12-04T08:52:07Z</time>
      </trkpt>
      <trkpt lat="44.88039" lon="5.52321">
        <ele>1991.99</ele>
        <time>2016-12-04T08:52:26Z</time>
      </trkpt>
      <trkpt lat="44.88039" lon="5.52319">
        <ele>1995.35</ele>
        <time>2016-12-04T08:52:29Z</time>
      </trkpt>
      <trkpt lat="44.88039" lon="5.52319">
        <ele>1995.35</ele>
        <time>2016-12-04T08:52:30Z</time>
      </trkpt>
      <trkpt lat="44.88039" lon="5.52312">
        <ele>1997.28</ele>
        <time>2016-12-04T08:52:46Z</time>
      </trkpt>
      <trkpt lat="44.88036" lon="5.52306">
        <ele>1999.2</ele>
        <time>2016-12-04T08:53:01Z</time>
      </trkpt>
      <trkpt lat="44.8803" lon="5.52302">
        <ele>2002.56</ele>
        <time>2016-12-04T08:53:18Z</time>
      </trkpt>
      <trkpt lat="44.88024" lon="5.52295">
        <ele>2005.93</ele>
        <time>2016-12-04T08:53:35Z</time>
      </trkpt>
      <trkpt lat="44.88019" lon="5.52288">
        <ele>2007.85</ele>
        <time>2016-12-04T08:53:50Z</time>
      </trkpt>
      <trkpt lat="44.88015" lon="5.52287">
        <ele>2010.73</ele>
        <time>2016-12-04T08:54:06Z</time>
      </trkpt>
      <trkpt lat="44.88015" lon="5.52295">
        <ele>2012.18</ele>
        <time>2016-12-04T08:54:21Z</time>
      </trkpt>
      <trkpt lat="44.88015" lon="5.52304">
        <ele>2015.06</ele>
        <time>2016-12-04T08:54:34Z</time>
      </trkpt>
      <trkpt lat="44.88011" lon="5.52309">
        <ele>2017.94</ele>
        <time>2016-12-04T08:54:48Z</time>
      </trkpt>
      <trkpt lat="44.88011" lon="5.52308">
        <ele>2017.94</ele>
        <time>2016-12-04T08:54:49Z</time>
      </trkpt>
      <trkpt lat="44.88004" lon="5.52304">
        <ele>2019.39</ele>
        <time>2016-12-04T08:55:04Z</time>
      </trkpt>
      <trkpt lat="44.88" lon="5.52295">
        <ele>2020.83</ele>
        <time>2016-12-04T08:55:17Z</time>
      </trkpt>
      <trkpt lat="44.87996" lon="5.52288">
        <ele>2023.23</ele>
        <time>2016-12-04T08:55:32Z</time>
      </trkpt>
      <trkpt lat="44.87995" lon="5.52287">
        <ele>2023.23</ele>
        <time>2016-12-04T08:55:53Z</time>
      </trkpt>
      <trkpt lat="44.87994" lon="5.52286">
        <ele>2023.23</ele>
        <time>2016-12-04T08:56:17Z</time>
      </trkpt>
      <trkpt lat="44.87994" lon="5.52285">
        <ele>2023.23</ele>
        <time>2016-12-04T08:56:37Z</time>
      </trkpt>
      <trkpt lat="44.87993" lon="5.52285">
        <ele>2021.79</ele>
        <time>2016-12-04T08:57:08Z</time>
      </trkpt>
      <trkpt lat="44.87994" lon="5.52285">
        <ele>2021.79</ele>
        <time>2016-12-04T08:57:25Z</time>
      </trkpt>
      <trkpt lat="44.87994" lon="5.52285">
        <ele>2023.23</ele>
        <time>2016-12-04T08:57:28Z</time>
      </trkpt>
      <trkpt lat="44.8799" lon="5.52283">
        <ele>2024.19</ele>
        <time>2016-12-04T08:57:46Z</time>
      </trkpt>
      <trkpt lat="44.87985" lon="5.52279">
        <ele>2026.6</ele>
        <time>2016-12-04T08:58:01Z</time>
      </trkpt>
      <trkpt lat="44.87977" lon="5.52272">
        <ele>2029.96</ele>
        <time>2016-12-04T08:58:18Z</time>
      </trkpt>
      <trkpt lat="44.87971" lon="5.52267">
        <ele>2032.84</ele>
        <time>2016-12-04T08:58:32Z</time>
      </trkpt>
      <trkpt lat="44.87965" lon="5.52266">
        <ele>2035.73</ele>
        <time>2016-12-04T08:58:47Z</time>
      </trkpt>
      <trkpt lat="44.87962" lon="5.52266">
        <ele>2038.13</ele>
        <time>2016-12-04T08:59:02Z</time>
      </trkpt>
      <trkpt lat="44.87959" lon="5.52264">
        <ele>2041.5</ele>
        <time>2016-12-04T08:59:17Z</time>
      </trkpt>
      <trkpt lat="44.87957" lon="5.52266">
        <ele>2042.94</ele>
        <time>2016-12-04T08:59:30Z</time>
      </trkpt>
      <trkpt lat="44.87955" lon="5.52266">
        <ele>2045.34</ele>
        <time>2016-12-04T08:59:43Z</time>
      </trkpt>
      <trkpt lat="44.87953" lon="5.52267">
        <ele>2046.78</ele>
        <time>2016-12-04T08:59:56Z</time>
      </trkpt>
      <trkpt lat="44.8795" lon="5.52271">
        <ele>2049.67</ele>
        <time>2016-12-04T09:00:10Z</time>
      </trkpt>
      <trkpt lat="44.87947" lon="5.52272">
        <ele>2052.55</ele>
        <time>2016-12-04T09:00:25Z</time>
      </trkpt>
      <trkpt lat="44.87945" lon="5.52275">
        <ele>2055.92</ele>
        <time>2016-12-04T09:00:37Z</time>
      </trkpt>
      <trkpt lat="44.87943" lon="5.52279">
        <ele>2056.88</ele>
        <time>2016-12-04T09:00:51Z</time>
      </trkpt>
      <trkpt lat="44.87937" lon="5.52269">
        <ele>2058.8</ele>
        <time>2016-12-04T09:01:07Z</time>
      </trkpt>
      <trkpt lat="44.87932" lon="5.52259">
        <ele>2060.24</ele>
        <time>2016-12-04T09:01:20Z</time>
      </trkpt>
      <trkpt lat="44.87925" lon="5.52255">
        <ele>2061.68</ele>
        <time>2016-12-04T09:01:37Z</time>
      </trkpt>
      <trkpt lat="44.87918" lon="5.52253">
        <ele>2064.57</ele>
        <time>2016-12-04T09:01:53Z</time>
      </trkpt>
      <trkpt lat="44.87912" lon="5.52249">
        <ele>2067.45</ele>
        <time>2016-12-04T09:02:06Z</time>
      </trkpt>
      <trkpt lat="44.87905" lon="5.52239">
        <ele>2069.38</ele>
        <time>2016-12-04T09:02:21Z</time>
      </trkpt>
      <trkpt lat="44.87902" lon="5.52239">
        <ele>2072.26</ele>
        <time>2016-12-04T09:02:34Z</time>
      </trkpt>
      <trkpt lat="44.87907" lon="5.52242">
        <ele>2075.62</ele>
        <time>2016-12-04T09:02:49Z</time>
      </trkpt>
      <trkpt lat="44.87907" lon="5.52247">
        <ele>2077.55</ele>
        <time>2016-12-04T09:03:05Z</time>
      </trkpt>
      <trkpt lat="44.87903" lon="5.52253">
        <ele>2080.43</ele>
        <time>2016-12-04T09:03:20Z</time>
      </trkpt>
      <trkpt lat="44.87896" lon="5.52255">
        <ele>2083.31</ele>
        <time>2016-12-04T09:03:35Z</time>
      </trkpt>
      <trkpt lat="44.87889" lon="5.5225">
        <ele>2086.2</ele>
        <time>2016-12-04T09:03:51Z</time>
      </trkpt>
      <trkpt lat="44.87883" lon="5.52242">
        <ele>2085.72</ele>
        <time>2016-12-04T09:04:02Z</time>
      </trkpt>
      <trkpt lat="44.8788" lon="5.52241">
        <ele>2088.12</ele>
        <time>2016-12-04T09:04:07Z</time>
      </trkpt>
      <trkpt lat="44.87873" lon="5.52239">
        <ele>2089.56</ele>
        <time>2016-12-04T09:04:19Z</time>
      </trkpt>
      <trkpt lat="44.87868" lon="5.52236">
        <ele>2085.24</ele>
        <time>2016-12-04T09:04:27Z</time>
      </trkpt>
      <trkpt lat="44.87868" lon="5.52235">
        <ele>2088.6</ele>
        <time>2016-12-04T09:04:29Z</time>
      </trkpt>
      <trkpt lat="44.87868" lon="5.52234">
        <ele>2088.6</ele>
        <time>2016-12-04T09:04:30Z</time>
      </trkpt>
      <trkpt lat="44.87867" lon="5.52232">
        <ele>2087.64</ele>
        <time>2016-12-04T09:04:39Z</time>
      </trkpt>
      <trkpt lat="44.87865" lon="5.52225">
        <ele>2087.16</ele>
        <time>2016-12-04T09:05:06Z</time>
      </trkpt>
      <trkpt lat="44.87865" lon="5.52228">
        <ele>2089.08</ele>
        <time>2016-12-04T09:05:19Z</time>
      </trkpt>
      <trkpt lat="44.87863" lon="5.5223">
        <ele>2091</ele>
        <time>2016-12-04T09:05:24Z</time>
      </trkpt>
      <trkpt lat="44.87862" lon="5.52231">
        <ele>2089.08</ele>
        <time>2016-12-04T09:05:27Z</time>
      </trkpt>
      <trkpt lat="44.87855" lon="5.52233">
        <ele>2091.49</ele>
        <time>2016-12-04T09:05:38Z</time>
      </trkpt>
      <trkpt lat="44.87843" lon="5.52236">
        <ele>2093.41</ele>
        <time>2016-12-04T09:05:54Z</time>
      </trkpt>
      <trkpt lat="44.87843" lon="5.52236">
        <ele>2094.37</ele>
        <time>2016-12-04T09:05:57Z</time>
      </trkpt>
      <trkpt lat="44.87841" lon="5.52238">
        <ele>2094.85</ele>
        <time>2016-12-04T09:06:04Z</time>
      </trkpt>
      <trkpt lat="44.87841" lon="5.52246">
        <ele>2094.85</ele>
        <time>2016-12-04T09:06:15Z</time>
      </trkpt>
      <trkpt lat="44.87842" lon="5.52254">
        <ele>2097.25</ele>
        <time>2016-12-04T09:06:26Z</time>
      </trkpt>
      <trkpt lat="44.87842" lon="5.52261">
        <ele>2098.7</ele>
        <time>2016-12-04T09:06:39Z</time>
      </trkpt>
      <trkpt lat="44.8784" lon="5.52261">
        <ele>2096.29</ele>
        <time>2016-12-04T09:06:42Z</time>
      </trkpt>
      <trkpt lat="44.8784" lon="5.52262">
        <ele>2095.81</ele>
        <time>2016-12-04T09:06:47Z</time>
      </trkpt>
      <trkpt lat="44.8784" lon="5.52267">
        <ele>2096.77</ele>
        <time>2016-12-04T09:07:05Z</time>
      </trkpt>
      <trkpt lat="44.87837" lon="5.52269">
        <ele>2095.81</ele>
        <time>2016-12-04T09:07:21Z</time>
      </trkpt>
      <trkpt lat="44.87837" lon="5.52267">
        <ele>2096.29</ele>
        <time>2016-12-04T09:07:34Z</time>
      </trkpt>
      <trkpt lat="44.87837" lon="5.52266">
        <ele>2095.33</ele>
        <time>2016-12-04T09:07:37Z</time>
      </trkpt>
      <trkpt lat="44.87837" lon="5.52266">
        <ele>2096.77</ele>
        <time>2016-12-04T09:07:41Z</time>
      </trkpt>
      <trkpt lat="44.87838" lon="5.52265">
        <ele>2094.85</ele>
        <time>2016-12-04T09:07:46Z</time>
      </trkpt>
      <trkpt lat="44.87837" lon="5.52266">
        <ele>2093.89</ele>
        <time>2016-12-04T09:08:07Z</time>
      </trkpt>
      <trkpt lat="44.87838" lon="5.52264">
        <ele>2093.89</ele>
        <time>2016-12-04T09:08:39Z</time>
      </trkpt>
      <trkpt lat="44.87838" lon="5.52263">
        <ele>2094.37</ele>
        <time>2016-12-04T09:09:05Z</time>
      </trkpt>
      <trkpt lat="44.87837" lon="5.52263">
        <ele>2095.81</ele>
        <time>2016-12-04T09:09:14Z</time>
      </trkpt>
      <trkpt lat="44.87837" lon="5.52262">
        <ele>2093.89</ele>
        <time>2016-12-04T09:09:17Z</time>
      </trkpt>
      <trkpt lat="44.87835" lon="5.52263">
        <ele>2095.81</ele>
        <time>2016-12-04T09:09:25Z</time>
      </trkpt>
      <trkpt lat="44.87834" lon="5.52263">
        <ele>2094.37</ele>
        <time>2016-12-04T09:09:33Z</time>
      </trkpt>
      <trkpt lat="44.87835" lon="5.52262">
        <ele>2094.37</ele>
        <time>2016-12-04T09:09:53Z</time>
      </trkpt>
      <trkpt lat="44.87836" lon="5.52258">
        <ele>2095.33</ele>
        <time>2016-12-04T09:10:08Z</time>
      </trkpt>
      <trkpt lat="44.87835" lon="5.52262">
        <ele>2092.93</ele>
        <time>2016-12-04T09:10:16Z</time>
      </trkpt>
      <trkpt lat="44.87834" lon="5.52261">
        <ele>2094.85</ele>
        <time>2016-12-04T09:10:18Z</time>
      </trkpt>
      <trkpt lat="44.87833" lon="5.52261">
        <ele>2094.85</ele>
        <time>2016-12-04T09:10:19Z</time>
      </trkpt>
      <trkpt lat="44.87825" lon="5.52255">
        <ele>2093.89</ele>
        <time>2016-12-04T09:10:29Z</time>
      </trkpt>
      <trkpt lat="44.87824" lon="5.52254">
        <ele>2093.89</ele>
        <time>2016-12-04T09:10:30Z</time>
      </trkpt>
      <trkpt lat="44.87823" lon="5.52252">
        <ele>2092.93</ele>
        <time>2016-12-04T09:10:32Z</time>
      </trkpt>
      <trkpt lat="44.87821" lon="5.52251">
        <ele>2094.37</ele>
        <time>2016-12-04T09:10:35Z</time>
      </trkpt>
      <trkpt lat="44.87819" lon="5.52248">
        <ele>2094.85</ele>
        <time>2016-12-04T09:10:39Z</time>
      </trkpt>
      <trkpt lat="44.87804" lon="5.52243">
        <ele>2095.33</ele>
        <time>2016-12-04T09:10:54Z</time>
      </trkpt>
      <trkpt lat="44.87802" lon="5.52242">
        <ele>2095.81</ele>
        <time>2016-12-04T09:10:56Z</time>
      </trkpt>
      <trkpt lat="44.87786" lon="5.52238">
        <ele>2097.25</ele>
        <time>2016-12-04T09:11:12Z</time>
      </trkpt>
      <trkpt lat="44.87782" lon="5.52235">
        <ele>2100.62</ele>
        <time>2016-12-04T09:11:19Z</time>
      </trkpt>
      <trkpt lat="44.87781" lon="5.52235">
        <ele>2100.62</ele>
        <time>2016-12-04T09:11:20Z</time>
      </trkpt>
      <trkpt lat="44.87779" lon="5.52235">
        <ele>2097.25</ele>
        <time>2016-12-04T09:11:22Z</time>
      </trkpt>
      <trkpt lat="44.87778" lon="5.52235">
        <ele>2097.25</ele>
        <time>2016-12-04T09:11:23Z</time>
      </trkpt>
      <trkpt lat="44.87773" lon="5.52232">
        <ele>2099.18</ele>
        <time>2016-12-04T09:11:30Z</time>
      </trkpt>
      <trkpt lat="44.87762" lon="5.52224">
        <ele>2100.14</ele>
        <time>2016-12-04T09:11:45Z</time>
      </trkpt>
      <trkpt lat="44.87753" lon="5.52218">
        <ele>2101.1</ele>
        <time>2016-12-04T09:11:59Z</time>
      </trkpt>
      <trkpt lat="44.87748" lon="5.52215">
        <ele>2101.58</ele>
        <time>2016-12-04T09:12:08Z</time>
      </trkpt>
      <trkpt lat="44.87739" lon="5.52215">
        <ele>2104.94</ele>
        <time>2016-12-04T09:12:24Z</time>
      </trkpt>
      <trkpt lat="44.87734" lon="5.52216">
        <ele>2107.83</ele>
        <time>2016-12-04T09:12:40Z</time>
      </trkpt>
      <trkpt lat="44.87734" lon="5.52219">
        <ele>2110.23</ele>
        <time>2016-12-04T09:12:48Z</time>
      </trkpt>
      <trkpt lat="44.87734" lon="5.52219">
        <ele>2108.31</ele>
        <time>2016-12-04T09:12:52Z</time>
      </trkpt>
      <trkpt lat="44.87734" lon="5.5222">
        <ele>2108.31</ele>
        <time>2016-12-04T09:13:06Z</time>
      </trkpt>
      <trkpt lat="44.87731" lon="5.52221">
        <ele>2108.31</ele>
        <time>2016-12-04T09:13:19Z</time>
      </trkpt>
      <trkpt lat="44.87729" lon="5.52224">
        <ele>2109.75</ele>
        <time>2016-12-04T09:13:26Z</time>
      </trkpt>
      <trkpt lat="44.87724" lon="5.5223">
        <ele>2113.6</ele>
        <time>2016-12-04T09:13:40Z</time>
      </trkpt>
      <trkpt lat="44.87723" lon="5.52238">
        <ele>2116.96</ele>
        <time>2016-12-04T09:13:58Z</time>
      </trkpt>
      <trkpt lat="44.87721" lon="5.52247">
        <ele>2118.88</ele>
        <time>2016-12-04T09:14:15Z</time>
      </trkpt>
      <trkpt lat="44.87714" lon="5.52257">
        <ele>2119.84</ele>
        <time>2016-12-04T09:14:34Z</time>
      </trkpt>
      <trkpt lat="44.87712" lon="5.52262">
        <ele>2123.21</ele>
        <time>2016-12-04T09:14:47Z</time>
      </trkpt>
      <trkpt lat="44.87709" lon="5.52271">
        <ele>2125.61</ele>
        <time>2016-12-04T09:15:02Z</time>
      </trkpt>
      <trkpt lat="44.87703" lon="5.52281">
        <ele>2128.5</ele>
        <time>2016-12-04T09:15:18Z</time>
      </trkpt>
      <trkpt lat="44.87698" lon="5.52286">
        <ele>2130.9</ele>
        <time>2016-12-04T09:15:31Z</time>
      </trkpt>
      <trkpt lat="44.87693" lon="5.52295">
        <ele>2132.82</ele>
        <time>2016-12-04T09:15:47Z</time>
      </trkpt>
      <trkpt lat="44.87685" lon="5.52303">
        <ele>2134.74</ele>
        <time>2016-12-04T09:16:02Z</time>
      </trkpt>
      <trkpt lat="44.8768" lon="5.52305">
        <ele>2135.71</ele>
        <time>2016-12-04T09:16:09Z</time>
      </trkpt>
      <trkpt lat="44.87667" lon="5.52303">
        <ele>2137.15</ele>
        <time>2016-12-04T09:16:25Z</time>
      </trkpt>
      <trkpt lat="44.87661" lon="5.52294">
        <ele>2137.63</ele>
        <time>2016-12-04T09:16:39Z</time>
      </trkpt>
      <trkpt lat="44.87653" lon="5.52287">
        <ele>2139.07</ele>
        <time>2016-12-04T09:16:51Z</time>
      </trkpt>
      <trkpt lat="44.87644" lon="5.52283">
        <ele>2140.51</ele>
        <time>2016-12-04T09:17:06Z</time>
      </trkpt>
      <trkpt lat="44.87643" lon="5.52283">
        <ele>2141.95</ele>
        <time>2016-12-04T09:17:08Z</time>
      </trkpt>
      <trkpt lat="44.87639" lon="5.52282">
        <ele>2142.44</ele>
        <time>2016-12-04T09:17:16Z</time>
      </trkpt>
      <trkpt lat="44.87629" lon="5.5228">
        <ele>2144.84</ele>
        <time>2016-12-04T09:17:34Z</time>
      </trkpt>
      <trkpt lat="44.87621" lon="5.52279">
        <ele>2146.76</ele>
        <time>2016-12-04T09:17:51Z</time>
      </trkpt>
      <trkpt lat="44.87613" lon="5.52278">
        <ele>2148.2</ele>
        <time>2016-12-04T09:18:06Z</time>
      </trkpt>
      <trkpt lat="44.87605" lon="5.52279">
        <ele>2151.09</ele>
        <time>2016-12-04T09:18:21Z</time>
      </trkpt>
      <trkpt lat="44.87598" lon="5.52282">
        <ele>2154.45</ele>
        <time>2016-12-04T09:18:38Z</time>
      </trkpt>
      <trkpt lat="44.87589" lon="5.52285">
        <ele>2155.89</ele>
        <time>2016-12-04T09:18:57Z</time>
      </trkpt>
      <trkpt lat="44.87583" lon="5.52288">
        <ele>2159.74</ele>
        <time>2016-12-04T09:19:13Z</time>
      </trkpt>
      <trkpt lat="44.87577" lon="5.52293">
        <ele>2161.18</ele>
        <time>2016-12-04T09:19:28Z</time>
      </trkpt>
      <trkpt lat="44.87571" lon="5.52296">
        <ele>2164.55</ele>
        <time>2016-12-04T09:19:40Z</time>
      </trkpt>
      <trkpt lat="44.87565" lon="5.52301">
        <ele>2165.51</ele>
        <time>2016-12-04T09:19:55Z</time>
      </trkpt>
      <trkpt lat="44.87559" lon="5.52304">
        <ele>2167.91</ele>
        <time>2016-12-04T09:20:11Z</time>
      </trkpt>
      <trkpt lat="44.87556" lon="5.52306">
        <ele>2169.35</ele>
        <time>2016-12-04T09:20:17Z</time>
      </trkpt>
      <trkpt lat="44.87549" lon="5.5231">
        <ele>2170.79</ele>
        <time>2016-12-04T09:20:32Z</time>
      </trkpt>
      <trkpt lat="44.87543" lon="5.52314">
        <ele>2172.72</ele>
        <time>2016-12-04T09:20:48Z</time>
      </trkpt>
      <trkpt lat="44.87536" lon="5.52319">
        <ele>2176.08</ele>
        <time>2016-12-04T09:21:03Z</time>
      </trkpt>
      <trkpt lat="44.87529" lon="5.52324">
        <ele>2177.04</ele>
        <time>2016-12-04T09:21:19Z</time>
      </trkpt>
      <trkpt lat="44.87528" lon="5.52325">
        <ele>2178</ele>
        <time>2016-12-04T09:21:23Z</time>
      </trkpt>
      <trkpt lat="44.87521" lon="5.5233">
        <ele>2179.93</ele>
        <time>2016-12-04T09:21:39Z</time>
      </trkpt>
      <trkpt lat="44.87514" lon="5.52336">
        <ele>2182.81</ele>
        <time>2016-12-04T09:21:55Z</time>
      </trkpt>
      <trkpt lat="44.87508" lon="5.52342">
        <ele>2184.25</ele>
        <time>2016-12-04T09:22:09Z</time>
      </trkpt>
      <trkpt lat="44.875" lon="5.52348">
        <ele>2186.18</ele>
        <time>2016-12-04T09:22:28Z</time>
      </trkpt>
      <trkpt lat="44.87493" lon="5.52356">
        <ele>2188.58</ele>
        <time>2016-12-04T09:22:45Z</time>
      </trkpt>
      <trkpt lat="44.87485" lon="5.52361">
        <ele>2190.5</ele>
        <time>2016-12-04T09:23:00Z</time>
      </trkpt>
      <trkpt lat="44.87479" lon="5.52366">
        <ele>2192.9</ele>
        <time>2016-12-04T09:23:15Z</time>
      </trkpt>
      <trkpt lat="44.87476" lon="5.52369">
        <ele>2194.35</ele>
        <time>2016-12-04T09:23:30Z</time>
      </trkpt>
      <trkpt lat="44.87477" lon="5.52369">
        <ele>2193.87</ele>
        <time>2016-12-04T09:23:51Z</time>
      </trkpt>
      <trkpt lat="44.87477" lon="5.5237">
        <ele>2195.31</ele>
        <time>2016-12-04T09:24:14Z</time>
      </trkpt>
      <trkpt lat="44.87477" lon="5.52369">
        <ele>2194.35</ele>
        <time>2016-12-04T09:24:42Z</time>
      </trkpt>
      <trkpt lat="44.87477" lon="5.52369">
        <ele>2194.35</ele>
        <time>2016-12-04T09:25:03Z</time>
      </trkpt>
      <trkpt lat="44.87476" lon="5.52371">
        <ele>2195.31</ele>
        <time>2016-12-04T09:25:29Z</time>
      </trkpt>
      <trkpt lat="44.87472" lon="5.52381">
        <ele>2197.23</ele>
        <time>2016-12-04T09:25:43Z</time>
      </trkpt>
      <trkpt lat="44.87469" lon="5.52383">
        <ele>2199.15</ele>
        <time>2016-12-04T09:25:49Z</time>
      </trkpt>
      <trkpt lat="44.87465" lon="5.52392">
        <ele>2199.63</ele>
        <time>2016-12-04T09:26:03Z</time>
      </trkpt>
      <trkpt lat="44.87461" lon="5.52404">
        <ele>2202.52</ele>
        <time>2016-12-04T09:26:21Z</time>
      </trkpt>
      <trkpt lat="44.87456" lon="5.52414">
        <ele>2203.96</ele>
        <time>2016-12-04T09:26:37Z</time>
      </trkpt>
      <trkpt lat="44.87452" lon="5.52425">
        <ele>2205.4</ele>
        <time>2016-12-04T09:26:55Z</time>
      </trkpt>
      <trkpt lat="44.87447" lon="5.52435">
        <ele>2208.29</ele>
        <time>2016-12-04T09:27:12Z</time>
      </trkpt>
      <trkpt lat="44.87442" lon="5.52445">
        <ele>2211.65</ele>
        <time>2016-12-04T09:27:29Z</time>
      </trkpt>
      <trkpt lat="44.87435" lon="5.52456">
        <ele>2214.05</ele>
        <time>2016-12-04T09:27:48Z</time>
      </trkpt>
      <trkpt lat="44.87432" lon="5.52464">
        <ele>2215.98</ele>
        <time>2016-12-04T09:28:06Z</time>
      </trkpt>
      <trkpt lat="44.87428" lon="5.52468">
        <ele>2216.46</ele>
        <time>2016-12-04T09:28:28Z</time>
      </trkpt>
      <trkpt lat="44.87424" lon="5.52476">
        <ele>2219.34</ele>
        <time>2016-12-04T09:28:42Z</time>
      </trkpt>
      <trkpt lat="44.87419" lon="5.52485">
        <ele>2221.74</ele>
        <time>2016-12-04T09:28:59Z</time>
      </trkpt>
      <trkpt lat="44.87413" lon="5.52494">
        <ele>2223.19</ele>
        <time>2016-12-04T09:29:15Z</time>
      </trkpt>
      <trkpt lat="44.87409" lon="5.52501">
        <ele>2226.55</ele>
        <time>2016-12-04T09:29:29Z</time>
      </trkpt>
      <trkpt lat="44.87404" lon="5.52509">
        <ele>2228.47</ele>
        <time>2016-12-04T09:29:46Z</time>
      </trkpt>
      <trkpt lat="44.87399" lon="5.52513">
        <ele>2229.92</ele>
        <time>2016-12-04T09:30:02Z</time>
      </trkpt>
      <trkpt lat="44.87392" lon="5.52516">
        <ele>2231.84</ele>
        <time>2016-12-04T09:30:17Z</time>
      </trkpt>
      <trkpt lat="44.87384" lon="5.5252">
        <ele>2233.76</ele>
        <time>2016-12-04T09:30:34Z</time>
      </trkpt>
      <trkpt lat="44.87375" lon="5.52524">
        <ele>2234.72</ele>
        <time>2016-12-04T09:30:49Z</time>
      </trkpt>
      <trkpt lat="44.87365" lon="5.5253">
        <ele>2237.61</ele>
        <time>2016-12-04T09:31:06Z</time>
      </trkpt>
      <trkpt lat="44.8736" lon="5.52532">
        <ele>2240.01</ele>
        <time>2016-12-04T09:31:13Z</time>
      </trkpt>
      <trkpt lat="44.87358" lon="5.52532">
        <ele>2240.01</ele>
        <time>2016-12-04T09:31:16Z</time>
      </trkpt>
      <trkpt lat="44.87347" lon="5.52537">
        <ele>2240.97</ele>
        <time>2016-12-04T09:31:32Z</time>
      </trkpt>
      <trkpt lat="44.87337" lon="5.52543">
        <ele>2242.89</ele>
        <time>2016-12-04T09:31:47Z</time>
      </trkpt>
      <trkpt lat="44.87327" lon="5.52546">
        <ele>2243.37</ele>
        <time>2016-12-04T09:32:04Z</time>
      </trkpt>
      <trkpt lat="44.87319" lon="5.52551">
        <ele>2246.26</ele>
        <time>2016-12-04T09:32:22Z</time>
      </trkpt>
      <trkpt lat="44.87309" lon="5.52557">
        <ele>2248.18</ele>
        <time>2016-12-04T09:32:38Z</time>
      </trkpt>
      <trkpt lat="44.87301" lon="5.5256">
        <ele>2250.1</ele>
        <time>2016-12-04T09:32:50Z</time>
      </trkpt>
      <trkpt lat="44.87295" lon="5.52566">
        <ele>2252.51</ele>
        <time>2016-12-04T09:33:04Z</time>
      </trkpt>
      <trkpt lat="44.87291" lon="5.5257">
        <ele>2255.87</ele>
        <time>2016-12-04T09:33:18Z</time>
      </trkpt>
      <trkpt lat="44.87286" lon="5.52574">
        <ele>2257.79</ele>
        <time>2016-12-04T09:33:32Z</time>
      </trkpt>
      <trkpt lat="44.87282" lon="5.5258">
        <ele>2260.2</ele>
        <time>2016-12-04T09:33:49Z</time>
      </trkpt>
      <trkpt lat="44.87277" lon="5.52587">
        <ele>2263.08</ele>
        <time>2016-12-04T09:34:07Z</time>
      </trkpt>
      <trkpt lat="44.87274" lon="5.52592">
        <ele>2265.96</ele>
        <time>2016-12-04T09:34:23Z</time>
      </trkpt>
      <trkpt lat="44.8727" lon="5.52597">
        <ele>2269.33</ele>
        <time>2016-12-04T09:34:37Z</time>
      </trkpt>
      <trkpt lat="44.87263" lon="5.52604">
        <ele>2270.77</ele>
        <time>2016-12-04T09:34:54Z</time>
      </trkpt>
      <trkpt lat="44.87257" lon="5.5261">
        <ele>2273.17</ele>
        <time>2016-12-04T09:35:12Z</time>
      </trkpt>
      <trkpt lat="44.87249" lon="5.52612">
        <ele>2276.54</ele>
        <time>2016-12-04T09:35:27Z</time>
      </trkpt>
      <trkpt lat="44.87241" lon="5.52612">
        <ele>2279.42</ele>
        <time>2016-12-04T09:35:43Z</time>
      </trkpt>
      <trkpt lat="44.87233" lon="5.52611">
        <ele>2281.83</ele>
        <time>2016-12-04T09:35:58Z</time>
      </trkpt>
      <trkpt lat="44.87225" lon="5.52612">
        <ele>2284.23</ele>
        <time>2016-12-04T09:36:14Z</time>
      </trkpt>
      <trkpt lat="44.87218" lon="5.52616">
        <ele>2286.63</ele>
        <time>2016-12-04T09:36:33Z</time>
      </trkpt>
      <trkpt lat="44.87208" lon="5.5262">
        <ele>2289.52</ele>
        <time>2016-12-04T09:36:53Z</time>
      </trkpt>
      <trkpt lat="44.872" lon="5.52623">
        <ele>2292.4</ele>
        <time>2016-12-04T09:37:09Z</time>
      </trkpt>
      <trkpt lat="44.87191" lon="5.52625">
        <ele>2295.28</ele>
        <time>2016-12-04T09:37:25Z</time>
      </trkpt>
      <trkpt lat="44.87182" lon="5.52627">
        <ele>2297.69</ele>
        <time>2016-12-04T09:37:40Z</time>
      </trkpt>
      <trkpt lat="44.87173" lon="5.52628">
        <ele>2299.61</ele>
        <time>2016-12-04T09:37:54Z</time>
      </trkpt>
      <trkpt lat="44.87163" lon="5.5263">
        <ele>2302.01</ele>
        <time>2016-12-04T09:38:14Z</time>
      </trkpt>
      <trkpt lat="44.87153" lon="5.52627">
        <ele>2302.01</ele>
        <time>2016-12-04T09:38:27Z</time>
      </trkpt>
      <trkpt lat="44.87143" lon="5.52624">
        <ele>2302.49</ele>
        <time>2016-12-04T09:38:42Z</time>
      </trkpt>
      <trkpt lat="44.87137" lon="5.52625">
        <ele>2304.42</ele>
        <time>2016-12-04T09:38:57Z</time>
      </trkpt>
      <trkpt lat="44.87132" lon="5.52631">
        <ele>2306.34</ele>
        <time>2016-12-04T09:39:12Z</time>
      </trkpt>
      <trkpt lat="44.87126" lon="5.52635">
        <ele>2309.7</ele>
        <time>2016-12-04T09:39:25Z</time>
      </trkpt>
      <trkpt lat="44.87121" lon="5.5264">
        <ele>2311.15</ele>
        <time>2016-12-04T09:39:41Z</time>
      </trkpt>
      <trkpt lat="44.87112" lon="5.52644">
        <ele>2312.11</ele>
        <time>2016-12-04T09:39:58Z</time>
      </trkpt>
      <trkpt lat="44.87107" lon="5.52648">
        <ele>2315.47</ele>
        <time>2016-12-04T09:40:13Z</time>
      </trkpt>
      <trkpt lat="44.87103" lon="5.52653">
        <ele>2318.36</ele>
        <time>2016-12-04T09:40:24Z</time>
      </trkpt>
      <trkpt lat="44.87099" lon="5.52658">
        <ele>2319.8</ele>
        <time>2016-12-04T09:40:41Z</time>
      </trkpt>
      <trkpt lat="44.87095" lon="5.52659">
        <ele>2321.72</ele>
        <time>2016-12-04T09:40:53Z</time>
      </trkpt>
      <trkpt lat="44.87093" lon="5.52661">
        <ele>2321.72</ele>
        <time>2016-12-04T09:41:01Z</time>
      </trkpt>
      <trkpt lat="44.87092" lon="5.52664">
        <ele>2322.2</ele>
        <time>2016-12-04T09:41:08Z</time>
      </trkpt>
      <trkpt lat="44.87089" lon="5.52666">
        <ele>2324.61</ele>
        <time>2016-12-04T09:41:13Z</time>
      </trkpt>
      <trkpt lat="44.87085" lon="5.52667">
        <ele>2325.09</ele>
        <time>2016-12-04T09:41:25Z</time>
      </trkpt>
      <trkpt lat="44.87082" lon="5.52668">
        <ele>2327.49</ele>
        <time>2016-12-04T09:41:32Z</time>
      </trkpt>
      <trkpt lat="44.87081" lon="5.52677">
        <ele>2329.41</ele>
        <time>2016-12-04T09:41:49Z</time>
      </trkpt>
      <trkpt lat="44.87079" lon="5.52684">
        <ele>2332.3</ele>
        <time>2016-12-04T09:42:04Z</time>
      </trkpt>
      <trkpt lat="44.87071" lon="5.52688">
        <ele>2334.7</ele>
        <time>2016-12-04T09:42:21Z</time>
      </trkpt>
      <trkpt lat="44.87064" lon="5.52688">
        <ele>2336.62</ele>
        <time>2016-12-04T09:42:37Z</time>
      </trkpt>
      <trkpt lat="44.87064" lon="5.52687">
        <ele>2335.18</ele>
        <time>2016-12-04T09:42:41Z</time>
      </trkpt>
      <trkpt lat="44.87063" lon="5.52687">
        <ele>2336.14</ele>
        <time>2016-12-04T09:42:50Z</time>
      </trkpt>
      <trkpt lat="44.87061" lon="5.52687">
        <ele>2336.62</ele>
        <time>2016-12-04T09:43:17Z</time>
      </trkpt>
      <trkpt lat="44.8706" lon="5.52688">
        <ele>2335.66</ele>
        <time>2016-12-04T09:43:48Z</time>
      </trkpt>
      <trkpt lat="44.87047" lon="5.52679">
        <ele>2334.22</ele>
        <time>2016-12-04T09:44:03Z</time>
      </trkpt>
      <trkpt lat="44.87039" lon="5.52669">
        <ele>2333.26</ele>
        <time>2016-12-04T09:44:14Z</time>
      </trkpt>
      <trkpt lat="44.87028" lon="5.52664">
        <ele>2333.26</ele>
        <time>2016-12-04T09:44:28Z</time>
      </trkpt>
      <trkpt lat="44.87017" lon="5.52659">
        <ele>2332.78</ele>
        <time>2016-12-04T09:44:43Z</time>
      </trkpt>
      <trkpt lat="44.87015" lon="5.52659">
        <ele>2333.74</ele>
        <time>2016-12-04T09:44:46Z</time>
      </trkpt>
      <trkpt lat="44.87005" lon="5.52657">
        <ele>2334.22</ele>
        <time>2016-12-04T09:45:01Z</time>
      </trkpt>
      <trkpt lat="44.86995" lon="5.52659">
        <ele>2335.66</ele>
        <time>2016-12-04T09:45:17Z</time>
      </trkpt>
      <trkpt lat="44.86987" lon="5.52662">
        <ele>2337.1</ele>
        <time>2016-12-04T09:45:33Z</time>
      </trkpt>
      <trkpt lat="44.86976" lon="5.52663">
        <ele>2339.02</ele>
        <time>2016-12-04T09:45:48Z</time>
      </trkpt>
      <trkpt lat="44.86974" lon="5.52665">
        <ele>2339.51</ele>
        <time>2016-12-04T09:46:07Z</time>
      </trkpt>
      <trkpt lat="44.86974" lon="5.52667">
        <ele>2340.47</ele>
        <time>2016-12-04T09:46:38Z</time>
      </trkpt>
      <trkpt lat="44.86974" lon="5.52666">
        <ele>2340.47</ele>
        <time>2016-12-04T09:47:01Z</time>
      </trkpt>
      <trkpt lat="44.86974" lon="5.52665">
        <ele>2340.47</ele>
        <time>2016-12-04T09:47:28Z</time>
      </trkpt>
      <trkpt lat="44.86974" lon="5.52665">
        <ele>2339.02</ele>
        <time>2016-12-04T09:47:51Z</time>
      </trkpt>
      <trkpt lat="44.86974" lon="5.52665">
        <ele>2338.06</ele>
        <time>2016-12-04T09:48:05Z</time>
      </trkpt>
      <trkpt lat="44.86973" lon="5.52665">
        <ele>2339.02</ele>
        <time>2016-12-04T09:48:18Z</time>
      </trkpt>
      <trkpt lat="44.86973" lon="5.52665">
        <ele>2337.58</ele>
        <time>2016-12-04T09:48:25Z</time>
      </trkpt>
      <trkpt lat="44.86973" lon="5.52664">
        <ele>2339.02</ele>
        <time>2016-12-04T09:48:35Z</time>
      </trkpt>
      <trkpt lat="44.86973" lon="5.52664">
        <ele>2337.58</ele>
        <time>2016-12-04T09:48:45Z</time>
      </trkpt>
      <trkpt lat="44.86974" lon="5.52665">
        <ele>2338.54</ele>
        <time>2016-12-04T09:48:50Z</time>
      </trkpt>
      <trkpt lat="44.86972" lon="5.52663">
        <ele>2338.54</ele>
        <time>2016-12-04T09:49:05Z</time>
      </trkpt>
      <trkpt lat="44.86968" lon="5.52654">
        <ele>2336.62</ele>
        <time>2016-12-04T09:49:18Z</time>
      </trkpt>
      <trkpt lat="44.86965" lon="5.52652">
        <ele>2335.66</ele>
        <time>2016-12-04T09:49:22Z</time>
      </trkpt>
      <trkpt lat="44.86963" lon="5.52649">
        <ele>2337.1</ele>
        <time>2016-12-04T09:49:25Z</time>
      </trkpt>
      <trkpt lat="44.86968" lon="5.52651">
        <ele>2338.06</ele>
        <time>2016-12-04T09:49:40Z</time>
      </trkpt>
      <trkpt lat="44.86973" lon="5.52662">
        <ele>2338.54</ele>
        <time>2016-12-04T09:49:55Z</time>
      </trkpt>
      <trkpt lat="44.86973" lon="5.52664">
        <ele>2340.47</ele>
        <time>2016-12-04T09:50:13Z</time>
      </trkpt>
      <trkpt lat="44.86974" lon="5.52663">
        <ele>2338.54</ele>
        <time>2016-12-04T09:50:18Z</time>
      </trkpt>
      <trkpt lat="44.86974" lon="5.5266">
        <ele>2338.54</ele>
        <time>2016-12-04T09:50:30Z</time>
      </trkpt>
      <trkpt lat="44.86974" lon="5.52661">
        <ele>2337.1</ele>
        <time>2016-12-04T09:50:50Z</time>
      </trkpt>
      <trkpt lat="44.86974" lon="5.52663">
        <ele>2337.1</ele>
        <time>2016-12-04T09:51:33Z</time>
      </trkpt>
      <trkpt lat="44.86974" lon="5.52663">
        <ele>2337.1</ele>
        <time>2016-12-04T09:52:20Z</time>
      </trkpt>
      <trkpt lat="44.86974" lon="5.52662">
        <ele>2336.62</ele>
        <time>2016-12-04T09:52:55Z</time>
      </trkpt>
      <trkpt lat="44.86974" lon="5.52661">
        <ele>2335.18</ele>
        <time>2016-12-04T09:53:00Z</time>
      </trkpt>
      <trkpt lat="44.86974" lon="5.52661">
        <ele>2336.62</ele>
        <time>2016-12-04T09:53:02Z</time>
      </trkpt>
      <trkpt lat="44.86974" lon="5.5266">
        <ele>2337.1</ele>
        <time>2016-12-04T09:53:31Z</time>
      </trkpt>
      <trkpt lat="44.86974" lon="5.5266">
        <ele>2337.1</ele>
        <time>2016-12-04T09:53:32Z</time>
      </trkpt>
      <trkpt lat="44.86975" lon="5.5266">
        <ele>2338.06</ele>
        <time>2016-12-04T09:53:50Z</time>
      </trkpt>
      <trkpt lat="44.86974" lon="5.5266">
        <ele>2338.06</ele>
        <time>2016-12-04T09:54:06Z</time>
      </trkpt>
      <trkpt lat="44.86973" lon="5.52659">
        <ele>2338.06</ele>
        <time>2016-12-04T09:54:21Z</time>
      </trkpt>
      <trkpt lat="44.86973" lon="5.52658">
        <ele>2337.1</ele>
        <time>2016-12-04T09:54:36Z</time>
      </trkpt>
      <trkpt lat="44.86975" lon="5.5266">
        <ele>2336.62</ele>
        <time>2016-12-04T09:54:51Z</time>
      </trkpt>
      <trkpt lat="44.86975" lon="5.52661">
        <ele>2337.58</ele>
        <time>2016-12-04T09:55:14Z</time>
      </trkpt>
      <trkpt lat="44.86975" lon="5.52661">
        <ele>2336.62</ele>
        <time>2016-12-04T09:55:16Z</time>
      </trkpt>
      <trkpt lat="44.86975" lon="5.52661">
        <ele>2338.06</ele>
        <time>2016-12-04T09:55:18Z</time>
      </trkpt>
      <trkpt lat="44.86975" lon="5.5266">
        <ele>2336.62</ele>
        <time>2016-12-04T09:55:46Z</time>
      </trkpt>
      <trkpt lat="44.86973" lon="5.52661">
        <ele>2337.1</ele>
        <time>2016-12-04T09:56:00Z</time>
      </trkpt>
      <trkpt lat="44.86967" lon="5.52656">
        <ele>2336.62</ele>
        <time>2016-12-04T09:56:19Z</time>
      </trkpt>
      <trkpt lat="44.86967" lon="5.52656">
        <ele>2336.14</ele>
        <time>2016-12-04T09:56:35Z</time>
      </trkpt>
      <trkpt lat="44.86966" lon="5.52655">
        <ele>2337.1</ele>
        <time>2016-12-04T09:56:59Z</time>
      </trkpt>
      <trkpt lat="44.86966" lon="5.52656">
        <ele>2339.02</ele>
        <time>2016-12-04T09:57:06Z</time>
      </trkpt>
      <trkpt lat="44.86965" lon="5.52655">
        <ele>2338.06</ele>
        <time>2016-12-04T09:57:10Z</time>
      </trkpt>
      <trkpt lat="44.86964" lon="5.52652">
        <ele>2337.1</ele>
        <time>2016-12-04T09:57:12Z</time>
      </trkpt>
      <trkpt lat="44.86962" lon="5.52648">
        <ele>2335.66</ele>
        <time>2016-12-04T09:57:16Z</time>
      </trkpt>
      <trkpt lat="44.8696" lon="5.52647">
        <ele>2335.66</ele>
        <time>2016-12-04T09:57:32Z</time>
      </trkpt>
      <trkpt lat="44.86957" lon="5.52646">
        <ele>2334.22</ele>
        <time>2016-12-04T09:57:53Z</time>
      </trkpt>
      <trkpt lat="44.86952" lon="5.52641">
        <ele>2333.26</ele>
        <time>2016-12-04T09:58:08Z</time>
      </trkpt>
      <trkpt lat="44.86949" lon="5.52633">
        <ele>2330.85</ele>
        <time>2016-12-04T09:58:19Z</time>
      </trkpt>
      <trkpt lat="44.86948" lon="5.52631">
        <ele>2330.85</ele>
        <time>2016-12-04T09:58:21Z</time>
      </trkpt>
      <trkpt lat="44.86945" lon="5.52628">
        <ele>2330.37</ele>
        <time>2016-12-04T09:58:25Z</time>
      </trkpt>
      <trkpt lat="44.86935" lon="5.52621">
        <ele>2327.49</ele>
        <time>2016-12-04T09:58:39Z</time>
      </trkpt>
      <trkpt lat="44.8693" lon="5.52614">
        <ele>2324.12</ele>
        <time>2016-12-04T09:58:50Z</time>
      </trkpt>
      <trkpt lat="44.86926" lon="5.52603">
        <ele>2321.24</ele>
        <time>2016-12-04T09:59:02Z</time>
      </trkpt>
      <trkpt lat="44.86924" lon="5.52594">
        <ele>2317.88</ele>
        <time>2016-12-04T09:59:13Z</time>
      </trkpt>
      <trkpt lat="44.86922" lon="5.52584">
        <ele>2314.51</ele>
        <time>2016-12-04T09:59:24Z</time>
      </trkpt>
      <trkpt lat="44.8692" lon="5.52577">
        <ele>2311.63</ele>
        <time>2016-12-04T09:59:36Z</time>
      </trkpt>
      <trkpt lat="44.86915" lon="5.52569">
        <ele>2308.74</ele>
        <time>2016-12-04T09:59:49Z</time>
      </trkpt>
      <trkpt lat="44.86912" lon="5.52562">
        <ele>2305.86</ele>
        <time>2016-12-04T09:59:59Z</time>
      </trkpt>
      <trkpt lat="44.86909" lon="5.52554">
        <ele>2302.49</ele>
        <time>2016-12-04T10:00:09Z</time>
      </trkpt>
      <trkpt lat="44.86901" lon="5.52546">
        <ele>2301.05</ele>
        <time>2016-12-04T10:00:22Z</time>
      </trkpt>
      <trkpt lat="44.86894" lon="5.52539">
        <ele>2297.21</ele>
        <time>2016-12-04T10:00:34Z</time>
      </trkpt>
      <trkpt lat="44.86889" lon="5.52536">
        <ele>2296.73</ele>
        <time>2016-12-04T10:00:44Z</time>
      </trkpt>
      <trkpt lat="44.86882" lon="5.5253">
        <ele>2294.32</ele>
        <time>2016-12-04T10:00:56Z</time>
      </trkpt>
      <trkpt lat="44.86878" lon="5.52523">
        <ele>2291.44</ele>
        <time>2016-12-04T10:01:06Z</time>
      </trkpt>
      <trkpt lat="44.86874" lon="5.52514">
        <ele>2290</ele>
        <time>2016-12-04T10:01:20Z</time>
      </trkpt>
      <trkpt lat="44.86864" lon="5.52508">
        <ele>2287.11</ele>
        <time>2016-12-04T10:01:33Z</time>
      </trkpt>
      <trkpt lat="44.86854" lon="5.52503">
        <ele>2285.67</ele>
        <time>2016-12-04T10:01:46Z</time>
      </trkpt>
      <trkpt lat="44.8685" lon="5.52502">
        <ele>2287.11</ele>
        <time>2016-12-04T10:01:50Z</time>
      </trkpt>
      <trkpt lat="44.86837" lon="5.52499">
        <ele>2287.59</ele>
        <time>2016-12-04T10:02:04Z</time>
      </trkpt>
      <trkpt lat="44.86824" lon="5.52497">
        <ele>2287.59</ele>
        <time>2016-12-04T10:02:17Z</time>
      </trkpt>
      <trkpt lat="44.8681" lon="5.52494">
        <ele>2288.08</ele>
        <time>2016-12-04T10:02:32Z</time>
      </trkpt>
      <trkpt lat="44.86795" lon="5.52493">
        <ele>2288.08</ele>
        <time>2016-12-04T10:02:48Z</time>
      </trkpt>
      <trkpt lat="44.86788" lon="5.52497">
        <ele>2288.08</ele>
        <time>2016-12-04T10:03:03Z</time>
      </trkpt>
      <trkpt lat="44.86787" lon="5.52498">
        <ele>2292.88</ele>
        <time>2016-12-04T10:03:05Z</time>
      </trkpt>
      <trkpt lat="44.86786" lon="5.52498">
        <ele>2292.88</ele>
        <time>2016-12-04T10:03:06Z</time>
      </trkpt>
      <trkpt lat="44.86784" lon="5.52499">
        <ele>2291.44</ele>
        <time>2016-12-04T10:03:10Z</time>
      </trkpt>
      <trkpt lat="44.86774" lon="5.52499">
        <ele>2293.84</ele>
        <time>2016-12-04T10:03:26Z</time>
      </trkpt>
      <trkpt lat="44.86764" lon="5.52498">
        <ele>2291.44</ele>
        <time>2016-12-04T10:03:40Z</time>
      </trkpt>
      <trkpt lat="44.8676" lon="5.52498">
        <ele>2292.4</ele>
        <time>2016-12-04T10:03:47Z</time>
      </trkpt>
      <trkpt lat="44.86758" lon="5.52497">
        <ele>2290.96</ele>
        <time>2016-12-04T10:03:49Z</time>
      </trkpt>
      <trkpt lat="44.86748" lon="5.52492">
        <ele>2289.04</ele>
        <time>2016-12-04T10:04:04Z</time>
      </trkpt>
      <trkpt lat="44.86739" lon="5.52487">
        <ele>2288.56</ele>
        <time>2016-12-04T10:04:19Z</time>
      </trkpt>
      <trkpt lat="44.86737" lon="5.52485">
        <ele>2285.19</ele>
        <time>2016-12-04T10:04:24Z</time>
      </trkpt>
      <trkpt lat="44.86736" lon="5.52484">
        <ele>2285.19</ele>
        <time>2016-12-04T10:04:25Z</time>
      </trkpt>
      <trkpt lat="44.86727" lon="5.52474">
        <ele>2282.31</ele>
        <time>2016-12-04T10:04:44Z</time>
      </trkpt>
      <trkpt lat="44.86722" lon="5.5247">
        <ele>2278.46</ele>
        <time>2016-12-04T10:04:54Z</time>
      </trkpt>
      <trkpt lat="44.86717" lon="5.52465">
        <ele>2273.17</ele>
        <time>2016-12-04T10:05:05Z</time>
      </trkpt>
      <trkpt lat="44.86714" lon="5.52463">
        <ele>2274.14</ele>
        <time>2016-12-04T10:05:09Z</time>
      </trkpt>
      <trkpt lat="44.86706" lon="5.52458">
        <ele>2271.73</ele>
        <time>2016-12-04T10:05:20Z</time>
      </trkpt>
      <trkpt lat="44.86698" lon="5.52455">
        <ele>2272.21</ele>
        <time>2016-12-04T10:05:30Z</time>
      </trkpt>
      <trkpt lat="44.86691" lon="5.52453">
        <ele>2271.73</ele>
        <time>2016-12-04T10:05:43Z</time>
      </trkpt>
      <trkpt lat="44.86689" lon="5.52453">
        <ele>2274.14</ele>
        <time>2016-12-04T10:05:46Z</time>
      </trkpt>
      <trkpt lat="44.86681" lon="5.52458">
        <ele>2275.1</ele>
        <time>2016-12-04T10:05:59Z</time>
      </trkpt>
      <trkpt lat="44.86667" lon="5.52461">
        <ele>2275.1</ele>
        <time>2016-12-04T10:06:14Z</time>
      </trkpt>
      <trkpt lat="44.86666" lon="5.52461">
        <ele>2276.54</ele>
        <time>2016-12-04T10:06:16Z</time>
      </trkpt>
      <trkpt lat="44.86653" lon="5.52461">
        <ele>2276.06</ele>
        <time>2016-12-04T10:06:30Z</time>
      </trkpt>
      <trkpt lat="44.86652" lon="5.5246">
        <ele>2277.5</ele>
        <time>2016-12-04T10:06:32Z</time>
      </trkpt>
      <trkpt lat="44.8665" lon="5.5246">
        <ele>2274.14</ele>
        <time>2016-12-04T10:06:34Z</time>
      </trkpt>
      <trkpt lat="44.8665" lon="5.5246">
        <ele>2276.54</ele>
        <time>2016-12-04T10:06:35Z</time>
      </trkpt>
      <trkpt lat="44.86646" lon="5.5246">
        <ele>2275.1</ele>
        <time>2016-12-04T10:06:39Z</time>
      </trkpt>
      <trkpt lat="44.86642" lon="5.52459">
        <ele>2272.69</ele>
        <time>2016-12-04T10:06:44Z</time>
      </trkpt>
      <trkpt lat="44.86631" lon="5.52454">
        <ele>2271.25</ele>
        <time>2016-12-04T10:06:57Z</time>
      </trkpt>
      <trkpt lat="44.86621" lon="5.52447">
        <ele>2266.93</ele>
        <time>2016-12-04T10:07:11Z</time>
      </trkpt>
      <trkpt lat="44.8662" lon="5.52446">
        <ele>2266.93</ele>
        <time>2016-12-04T10:07:12Z</time>
      </trkpt>
      <trkpt lat="44.86614" lon="5.5244">
        <ele>2264.04</ele>
        <time>2016-12-04T10:07:23Z</time>
      </trkpt>
      <trkpt lat="44.86607" lon="5.52431">
        <ele>2260.68</ele>
        <time>2016-12-04T10:07:35Z</time>
      </trkpt>
      <trkpt lat="44.86605" lon="5.5243">
        <ele>2259.72</ele>
        <time>2016-12-04T10:07:37Z</time>
      </trkpt>
      <trkpt lat="44.86595" lon="5.52424">
        <ele>2255.87</ele>
        <time>2016-12-04T10:07:49Z</time>
      </trkpt>
      <trkpt lat="44.86587" lon="5.52418">
        <ele>2253.95</ele>
        <time>2016-12-04T10:08:02Z</time>
      </trkpt>
      <trkpt lat="44.86584" lon="5.52416">
        <ele>2253.47</ele>
        <time>2016-12-04T10:08:16Z</time>
      </trkpt>
      <trkpt lat="44.86574" lon="5.52411">
        <ele>2252.03</ele>
        <time>2016-12-04T10:08:32Z</time>
      </trkpt>
      <trkpt lat="44.86568" lon="5.52408">
        <ele>2250.58</ele>
        <time>2016-12-04T10:08:44Z</time>
      </trkpt>
      <trkpt lat="44.86564" lon="5.52405">
        <ele>2249.14</ele>
        <time>2016-12-04T10:08:50Z</time>
      </trkpt>
      <trkpt lat="44.86555" lon="5.52399">
        <ele>2245.78</ele>
        <time>2016-12-04T10:09:03Z</time>
      </trkpt>
      <trkpt lat="44.86549" lon="5.52394">
        <ele>2242.89</ele>
        <time>2016-12-04T10:09:12Z</time>
      </trkpt>
      <trkpt lat="44.86541" lon="5.5239">
        <ele>2241.45</ele>
        <time>2016-12-04T10:09:25Z</time>
      </trkpt>
      <trkpt lat="44.86536" lon="5.52388">
        <ele>2238.57</ele>
        <time>2016-12-04T10:09:36Z</time>
      </trkpt>
      <trkpt lat="44.86536" lon="5.52389">
        <ele>2239.53</ele>
        <time>2016-12-04T10:09:45Z</time>
      </trkpt>
      <trkpt lat="44.86535" lon="5.52385">
        <ele>2238.57</ele>
        <time>2016-12-04T10:09:50Z</time>
      </trkpt>
      <trkpt lat="44.86531" lon="5.52377">
        <ele>2234.72</ele>
        <time>2016-12-04T10:10:02Z</time>
      </trkpt>
      <trkpt lat="44.86523" lon="5.52372">
        <ele>2232.32</ele>
        <time>2016-12-04T10:10:15Z</time>
      </trkpt>
      <trkpt lat="44.86518" lon="5.52368">
        <ele>2228.95</ele>
        <time>2016-12-04T10:10:28Z</time>
      </trkpt>
      <trkpt lat="44.86511" lon="5.52365">
        <ele>2226.07</ele>
        <time>2016-12-04T10:10:42Z</time>
      </trkpt>
      <trkpt lat="44.86506" lon="5.52367">
        <ele>2227.51</ele>
        <time>2016-12-04T10:11:00Z</time>
      </trkpt>
      <trkpt lat="44.86505" lon="5.52369">
        <ele>2226.07</ele>
        <time>2016-12-04T10:11:14Z</time>
      </trkpt>
      <trkpt lat="44.86504" lon="5.52368">
        <ele>2226.55</ele>
        <time>2016-12-04T10:11:33Z</time>
      </trkpt>
      <trkpt lat="44.86501" lon="5.52365">
        <ele>2226.07</ele>
        <time>2016-12-04T10:11:46Z</time>
      </trkpt>
      <trkpt lat="44.86501" lon="5.52364">
        <ele>2224.63</ele>
        <time>2016-12-04T10:11:49Z</time>
      </trkpt>
      <trkpt lat="44.86499" lon="5.52365">
        <ele>2225.11</ele>
        <time>2016-12-04T10:12:05Z</time>
      </trkpt>
      <trkpt lat="44.865" lon="5.5237">
        <ele>2225.59</ele>
        <time>2016-12-04T10:12:23Z</time>
      </trkpt>
      <trkpt lat="44.86501" lon="5.52371">
        <ele>2224.15</ele>
        <time>2016-12-04T10:12:31Z</time>
      </trkpt>
      <trkpt lat="44.86501" lon="5.52372">
        <ele>2224.15</ele>
        <time>2016-12-04T10:12:58Z</time>
      </trkpt>
      <trkpt lat="44.86501" lon="5.52372">
        <ele>2225.59</ele>
        <time>2016-12-04T10:13:02Z</time>
      </trkpt>
      <trkpt lat="44.86501" lon="5.5237">
        <ele>2225.59</ele>
        <time>2016-12-04T10:13:35Z</time>
      </trkpt>
      <trkpt lat="44.86501" lon="5.5237">
        <ele>2224.15</ele>
        <time>2016-12-04T10:13:42Z</time>
      </trkpt>
      <trkpt lat="44.86499" lon="5.52368">
        <ele>2223.67</ele>
        <time>2016-12-04T10:13:59Z</time>
      </trkpt>
      <trkpt lat="44.86492" lon="5.52362">
        <ele>2220.3</ele>
        <time>2016-12-04T10:14:13Z</time>
      </trkpt>
      <trkpt lat="44.86489" lon="5.5236">
        <ele>2219.82</ele>
        <time>2016-12-04T10:14:26Z</time>
      </trkpt>
      <trkpt lat="44.86488" lon="5.52359">
        <ele>2219.34</ele>
        <time>2016-12-04T10:14:40Z</time>
      </trkpt>
      <trkpt lat="44.86486" lon="5.52357">
        <ele>2217.9</ele>
        <time>2016-12-04T10:15:04Z</time>
      </trkpt>
      <trkpt lat="44.86486" lon="5.52357">
        <ele>2219.34</ele>
        <time>2016-12-04T10:15:07Z</time>
      </trkpt>
      <trkpt lat="44.86484" lon="5.52355">
        <ele>2216.46</ele>
        <time>2016-12-04T10:15:21Z</time>
      </trkpt>
      <trkpt lat="44.86481" lon="5.5235">
        <ele>2213.09</ele>
        <time>2016-12-04T10:15:32Z</time>
      </trkpt>
      <trkpt lat="44.86474" lon="5.52346">
        <ele>2210.21</ele>
        <time>2016-12-04T10:15:47Z</time>
      </trkpt>
      <trkpt lat="44.86466" lon="5.52344">
        <ele>2207.32</ele>
        <time>2016-12-04T10:16:01Z</time>
      </trkpt>
      <trkpt lat="44.86472" lon="5.52333">
        <ele>2206.36</ele>
        <time>2016-12-04T10:16:14Z</time>
      </trkpt>
      <trkpt lat="44.8647" lon="5.5233">
        <ele>2202.52</ele>
        <time>2016-12-04T10:16:25Z</time>
      </trkpt>
      <trkpt lat="44.86468" lon="5.5233">
        <ele>2202.04</ele>
        <time>2016-12-04T10:16:27Z</time>
      </trkpt>
      <trkpt lat="44.86462" lon="5.52329">
        <ele>2198.67</ele>
        <time>2016-12-04T10:16:36Z</time>
      </trkpt>
      <trkpt lat="44.86461" lon="5.52329">
        <ele>2198.67</ele>
        <time>2016-12-04T10:16:37Z</time>
      </trkpt>
      <trkpt lat="44.86452" lon="5.52328">
        <ele>2195.79</ele>
        <time>2016-12-04T10:16:53Z</time>
      </trkpt>
      <trkpt lat="44.86444" lon="5.52326">
        <ele>2193.87</ele>
        <time>2016-12-04T10:17:06Z</time>
      </trkpt>
      <trkpt lat="44.86438" lon="5.52324">
        <ele>2190.5</ele>
        <time>2016-12-04T10:17:15Z</time>
      </trkpt>
      <trkpt lat="44.86432" lon="5.52322">
        <ele>2187.62</ele>
        <time>2016-12-04T10:17:25Z</time>
      </trkpt>
      <trkpt lat="44.86426" lon="5.52322">
        <ele>2186.66</ele>
        <time>2016-12-04T10:17:33Z</time>
      </trkpt>
      <trkpt lat="44.86416" lon="5.52325">
        <ele>2184.25</ele>
        <time>2016-12-04T10:17:46Z</time>
      </trkpt>
      <trkpt lat="44.86412" lon="5.52325">
        <ele>2183.77</ele>
        <time>2016-12-04T10:17:53Z</time>
      </trkpt>
      <trkpt lat="44.86406" lon="5.52321">
        <ele>2181.37</ele>
        <time>2016-12-04T10:18:06Z</time>
      </trkpt>
      <trkpt lat="44.86404" lon="5.5232">
        <ele>2180.41</ele>
        <time>2016-12-04T10:18:08Z</time>
      </trkpt>
      <trkpt lat="44.86394" lon="5.52317">
        <ele>2178</ele>
        <time>2016-12-04T10:18:21Z</time>
      </trkpt>
      <trkpt lat="44.86383" lon="5.52312">
        <ele>2175.6</ele>
        <time>2016-12-04T10:18:35Z</time>
      </trkpt>
      <trkpt lat="44.86374" lon="5.52307">
        <ele>2174.16</ele>
        <time>2016-12-04T10:18:48Z</time>
      </trkpt>
      <trkpt lat="44.86363" lon="5.52303">
        <ele>2171.76</ele>
        <time>2016-12-04T10:19:02Z</time>
      </trkpt>
      <trkpt lat="44.86354" lon="5.52295">
        <ele>2167.91</ele>
        <time>2016-12-04T10:19:17Z</time>
      </trkpt>
      <trkpt lat="44.86345" lon="5.52289">
        <ele>2165.03</ele>
        <time>2016-12-04T10:19:31Z</time>
      </trkpt>
      <trkpt lat="44.86339" lon="5.52285">
        <ele>2162.14</ele>
        <time>2016-12-04T10:19:39Z</time>
      </trkpt>
      <trkpt lat="44.86332" lon="5.52281">
        <ele>2160.7</ele>
        <time>2016-12-04T10:19:49Z</time>
      </trkpt>
      <trkpt lat="44.86322" lon="5.52275">
        <ele>2157.82</ele>
        <time>2016-12-04T10:20:02Z</time>
      </trkpt>
      <trkpt lat="44.86313" lon="5.52269">
        <ele>2153.97</ele>
        <time>2016-12-04T10:20:17Z</time>
      </trkpt>
      <trkpt lat="44.86306" lon="5.52265">
        <ele>2153.97</ele>
        <time>2016-12-04T10:20:28Z</time>
      </trkpt>
      <trkpt lat="44.86303" lon="5.5226">
        <ele>2151.57</ele>
        <time>2016-12-04T10:20:42Z</time>
      </trkpt>
      <trkpt lat="44.86304" lon="5.52254">
        <ele>2150.61</ele>
        <time>2016-12-04T10:20:54Z</time>
      </trkpt>
      <trkpt lat="44.86303" lon="5.52252">
        <ele>2148.68</ele>
        <time>2016-12-04T10:20:57Z</time>
      </trkpt>
      <trkpt lat="44.86299" lon="5.5225">
        <ele>2149.16</ele>
        <time>2016-12-04T10:21:05Z</time>
      </trkpt>
      <trkpt lat="44.86296" lon="5.52251">
        <ele>2147.72</ele>
        <time>2016-12-04T10:21:12Z</time>
      </trkpt>
      <trkpt lat="44.86295" lon="5.52252">
        <ele>2141.95</ele>
        <time>2016-12-04T10:21:14Z</time>
      </trkpt>
      <trkpt lat="44.86295" lon="5.52252">
        <ele>2142.44</ele>
        <time>2016-12-04T10:21:15Z</time>
      </trkpt>
      <trkpt lat="44.86294" lon="5.52251">
        <ele>2146.28</ele>
        <time>2016-12-04T10:21:18Z</time>
      </trkpt>
      <trkpt lat="44.86294" lon="5.52251">
        <ele>2146.28</ele>
        <time>2016-12-04T10:21:19Z</time>
      </trkpt>
      <trkpt lat="44.86294" lon="5.52251">
        <ele>2147.72</ele>
        <time>2016-12-04T10:21:43Z</time>
      </trkpt>
      <trkpt lat="44.86295" lon="5.52251">
        <ele>2147.72</ele>
        <time>2016-12-04T10:21:44Z</time>
      </trkpt>
      <trkpt lat="44.86295" lon="5.5225">
        <ele>2146.28</ele>
        <time>2016-12-04T10:21:50Z</time>
      </trkpt>
      <trkpt lat="44.86295" lon="5.5225">
        <ele>2143.88</ele>
        <time>2016-12-04T10:21:56Z</time>
      </trkpt>
      <trkpt lat="44.86295" lon="5.5225">
        <ele>2142.44</ele>
        <time>2016-12-04T10:21:58Z</time>
      </trkpt>
      <trkpt lat="44.86295" lon="5.5225">
        <ele>2144.84</ele>
        <time>2016-12-04T10:22:00Z</time>
      </trkpt>
      <trkpt lat="44.86294" lon="5.52251">
        <ele>2145.32</ele>
        <time>2016-12-04T10:22:34Z</time>
      </trkpt>
      <trkpt lat="44.86294" lon="5.52251">
        <ele>2145.32</ele>
        <time>2016-12-04T10:23:07Z</time>
      </trkpt>
      <trkpt lat="44.86292" lon="5.52252">
        <ele>2142.92</ele>
        <time>2016-12-04T10:23:38Z</time>
      </trkpt>
      <trkpt lat="44.86292" lon="5.52252">
        <ele>2148.2</ele>
        <time>2016-12-04T10:23:40Z</time>
      </trkpt>
      <trkpt lat="44.86293" lon="5.52251">
        <ele>2148.2</ele>
        <time>2016-12-04T10:23:41Z</time>
      </trkpt>
      <trkpt lat="44.86294" lon="5.5225">
        <ele>2147.24</ele>
        <time>2016-12-04T10:23:48Z</time>
      </trkpt>
      <trkpt lat="44.86296" lon="5.52247">
        <ele>2146.76</ele>
        <time>2016-12-04T10:24:09Z</time>
      </trkpt>
      <trkpt lat="44.86293" lon="5.5225">
        <ele>2145.8</ele>
        <time>2016-12-04T10:24:28Z</time>
      </trkpt>
      <trkpt lat="44.86294" lon="5.52249">
        <ele>2146.28</ele>
        <time>2016-12-04T10:24:35Z</time>
      </trkpt>
      <trkpt lat="44.86294" lon="5.52249">
        <ele>2141.95</ele>
        <time>2016-12-04T10:24:51Z</time>
      </trkpt>
      <trkpt lat="44.86291" lon="5.5225">
        <ele>2144.84</ele>
        <time>2016-12-04T10:24:58Z</time>
      </trkpt>
      <trkpt lat="44.8629" lon="5.5225">
        <ele>2142.44</ele>
        <time>2016-12-04T10:25:01Z</time>
      </trkpt>
      <trkpt lat="44.86285" lon="5.52252">
        <ele>2140.51</ele>
        <time>2016-12-04T10:25:12Z</time>
      </trkpt>
      <trkpt lat="44.86283" lon="5.52251">
        <ele>2140.51</ele>
        <time>2016-12-04T10:25:18Z</time>
      </trkpt>
      <trkpt lat="44.86282" lon="5.52251">
        <ele>2138.59</ele>
        <time>2016-12-04T10:25:23Z</time>
      </trkpt>
      <trkpt lat="44.86274" lon="5.52254">
        <ele>2136.19</ele>
        <time>2016-12-04T10:25:35Z</time>
      </trkpt>
      <trkpt lat="44.86271" lon="5.52251">
        <ele>2135.23</ele>
        <time>2016-12-04T10:25:53Z</time>
      </trkpt>
      <trkpt lat="44.86272" lon="5.52253">
        <ele>2134.26</ele>
        <time>2016-12-04T10:26:22Z</time>
      </trkpt>
      <trkpt lat="44.86272" lon="5.52252">
        <ele>2134.26</ele>
        <time>2016-12-04T10:26:57Z</time>
      </trkpt>
      <trkpt lat="44.86272" lon="5.52252">
        <ele>2134.26</ele>
        <time>2016-12-04T10:27:29Z</time>
      </trkpt>
      <trkpt lat="44.86272" lon="5.52253">
        <ele>2133.78</ele>
        <time>2016-12-04T10:27:52Z</time>
      </trkpt>
      <trkpt lat="44.86271" lon="5.52253">
        <ele>2133.78</ele>
        <time>2016-12-04T10:28:24Z</time>
      </trkpt>
      <trkpt lat="44.86268" lon="5.52254">
        <ele>2134.26</ele>
        <time>2016-12-04T10:28:31Z</time>
      </trkpt>
      <trkpt lat="44.86263" lon="5.52254">
        <ele>2133.3</ele>
        <time>2016-12-04T10:28:41Z</time>
      </trkpt>
      <trkpt lat="44.86258" lon="5.52245">
        <ele>2131.38</ele>
        <time>2016-12-04T10:28:54Z</time>
      </trkpt>
      <trkpt lat="44.86256" lon="5.52253">
        <ele>2129.94</ele>
        <time>2016-12-04T10:29:04Z</time>
      </trkpt>
      <trkpt lat="44.86254" lon="5.52251">
        <ele>2128.5</ele>
        <time>2016-12-04T10:29:08Z</time>
      </trkpt>
      <trkpt lat="44.8625" lon="5.52241">
        <ele>2126.09</ele>
        <time>2016-12-04T10:29:20Z</time>
      </trkpt>
      <trkpt lat="44.86245" lon="5.52231">
        <ele>2123.21</ele>
        <time>2016-12-04T10:29:30Z</time>
      </trkpt>
      <trkpt lat="44.8624" lon="5.52224">
        <ele>2123.69</ele>
        <time>2016-12-04T10:29:44Z</time>
      </trkpt>
      <trkpt lat="44.8624" lon="5.52229">
        <ele>2122.25</ele>
        <time>2016-12-04T10:29:50Z</time>
      </trkpt>
      <trkpt lat="44.86236" lon="5.52242">
        <ele>2119.84</ele>
        <time>2016-12-04T10:30:04Z</time>
      </trkpt>
      <trkpt lat="44.86235" lon="5.52242">
        <ele>2116</ele>
        <time>2016-12-04T10:30:06Z</time>
      </trkpt>
      <trkpt lat="44.86234" lon="5.52241">
        <ele>2116</ele>
        <time>2016-12-04T10:30:07Z</time>
      </trkpt>
      <trkpt lat="44.86231" lon="5.52231">
        <ele>2115.52</ele>
        <time>2016-12-04T10:30:17Z</time>
      </trkpt>
      <trkpt lat="44.86225" lon="5.52219">
        <ele>2113.12</ele>
        <time>2016-12-04T10:30:30Z</time>
      </trkpt>
      <trkpt lat="44.8622" lon="5.52214">
        <ele>2111.67</ele>
        <time>2016-12-04T10:30:46Z</time>
      </trkpt>
      <trkpt lat="44.86218" lon="5.52229">
        <ele>2108.79</ele>
        <time>2016-12-04T10:31:02Z</time>
      </trkpt>
      <trkpt lat="44.86214" lon="5.52232">
        <ele>2105.91</ele>
        <time>2016-12-04T10:31:10Z</time>
      </trkpt>
      <trkpt lat="44.86207" lon="5.52218">
        <ele>2103.5</ele>
        <time>2016-12-04T10:31:26Z</time>
      </trkpt>
      <trkpt lat="44.86202" lon="5.52206">
        <ele>2100.14</ele>
        <time>2016-12-04T10:31:39Z</time>
      </trkpt>
      <trkpt lat="44.86202" lon="5.52205">
        <ele>2100.14</ele>
        <time>2016-12-04T10:31:40Z</time>
      </trkpt>
      <trkpt lat="44.86198" lon="5.52211">
        <ele>2099.18</ele>
        <time>2016-12-04T10:31:55Z</time>
      </trkpt>
      <trkpt lat="44.86195" lon="5.5222">
        <ele>2095.81</ele>
        <time>2016-12-04T10:32:05Z</time>
      </trkpt>
      <trkpt lat="44.86194" lon="5.52223">
        <ele>2095.81</ele>
        <time>2016-12-04T10:32:08Z</time>
      </trkpt>
      <trkpt lat="44.86191" lon="5.52225">
        <ele>2092.45</ele>
        <time>2016-12-04T10:32:11Z</time>
      </trkpt>
      <trkpt lat="44.86191" lon="5.52224">
        <ele>2092.45</ele>
        <time>2016-12-04T10:32:12Z</time>
      </trkpt>
      <trkpt lat="44.86191" lon="5.52221">
        <ele>2094.37</ele>
        <time>2016-12-04T10:32:14Z</time>
      </trkpt>
      <trkpt lat="44.86187" lon="5.52207">
        <ele>2091.49</ele>
        <time>2016-12-04T10:32:24Z</time>
      </trkpt>
      <trkpt lat="44.86182" lon="5.52189">
        <ele>2089.08</ele>
        <time>2016-12-04T10:32:38Z</time>
      </trkpt>
      <trkpt lat="44.86181" lon="5.52188">
        <ele>2089.08</ele>
        <time>2016-12-04T10:32:39Z</time>
      </trkpt>
      <trkpt lat="44.86179" lon="5.52188">
        <ele>2089.08</ele>
        <time>2016-12-04T10:32:51Z</time>
      </trkpt>
      <trkpt lat="44.86178" lon="5.52195">
        <ele>2086.2</ele>
        <time>2016-12-04T10:32:56Z</time>
      </trkpt>
      <trkpt lat="44.86175" lon="5.52202">
        <ele>2085.24</ele>
        <time>2016-12-04T10:33:03Z</time>
      </trkpt>
      <trkpt lat="44.86166" lon="5.52213">
        <ele>2081.39</ele>
        <time>2016-12-04T10:33:17Z</time>
      </trkpt>
      <trkpt lat="44.86166" lon="5.5221">
        <ele>2080.43</ele>
        <time>2016-12-04T10:33:19Z</time>
      </trkpt>
      <trkpt lat="44.86168" lon="5.52204">
        <ele>2080.43</ele>
        <time>2016-12-04T10:33:24Z</time>
      </trkpt>
      <trkpt lat="44.86167" lon="5.52196">
        <ele>2079.47</ele>
        <time>2016-12-04T10:33:30Z</time>
      </trkpt>
      <trkpt lat="44.86163" lon="5.52186">
        <ele>2077.07</ele>
        <time>2016-12-04T10:33:43Z</time>
      </trkpt>
      <trkpt lat="44.86163" lon="5.52187">
        <ele>2076.59</ele>
        <time>2016-12-04T10:33:44Z</time>
      </trkpt>
      <trkpt lat="44.86157" lon="5.52198">
        <ele>2073.7</ele>
        <time>2016-12-04T10:33:58Z</time>
      </trkpt>
      <trkpt lat="44.86156" lon="5.52195">
        <ele>2073.22</ele>
        <time>2016-12-04T10:34:00Z</time>
      </trkpt>
      <trkpt lat="44.86155" lon="5.52181">
        <ele>2070.82</ele>
        <time>2016-12-04T10:34:14Z</time>
      </trkpt>
      <trkpt lat="44.8615" lon="5.5219">
        <ele>2068.41</ele>
        <time>2016-12-04T10:34:27Z</time>
      </trkpt>
      <trkpt lat="44.86148" lon="5.52195">
        <ele>2067.93</ele>
        <time>2016-12-04T10:34:32Z</time>
      </trkpt>
      <trkpt lat="44.86148" lon="5.52206">
        <ele>2064.57</ele>
        <time>2016-12-04T10:34:42Z</time>
      </trkpt>
      <trkpt lat="44.86141" lon="5.52209">
        <ele>2062.17</ele>
        <time>2016-12-04T10:34:52Z</time>
      </trkpt>
      <trkpt lat="44.86138" lon="5.5222">
        <ele>2059.76</ele>
        <time>2016-12-04T10:35:04Z</time>
      </trkpt>
      <trkpt lat="44.86133" lon="5.52209">
        <ele>2056.4</ele>
        <time>2016-12-04T10:35:15Z</time>
      </trkpt>
      <trkpt lat="44.86128" lon="5.52215">
        <ele>2054.96</ele>
        <time>2016-12-04T10:35:27Z</time>
      </trkpt>
      <trkpt lat="44.86125" lon="5.52209">
        <ele>2052.07</ele>
        <time>2016-12-04T10:35:42Z</time>
      </trkpt>
      <trkpt lat="44.8612" lon="5.52205">
        <ele>2049.67</ele>
        <time>2016-12-04T10:35:55Z</time>
      </trkpt>
      <trkpt lat="44.86114" lon="5.52206">
        <ele>2046.3</ele>
        <time>2016-12-04T10:36:09Z</time>
      </trkpt>
      <trkpt lat="44.86111" lon="5.52197">
        <ele>2042.94</ele>
        <time>2016-12-04T10:36:21Z</time>
      </trkpt>
      <trkpt lat="44.86108" lon="5.52196">
        <ele>2041.5</ele>
        <time>2016-12-04T10:36:32Z</time>
      </trkpt>
      <trkpt lat="44.86103" lon="5.52197">
        <ele>2039.09</ele>
        <time>2016-12-04T10:36:44Z</time>
      </trkpt>
      <trkpt lat="44.86102" lon="5.52185">
        <ele>2036.21</ele>
        <time>2016-12-04T10:36:55Z</time>
      </trkpt>
      <trkpt lat="44.86098" lon="5.52188">
        <ele>2033.81</ele>
        <time>2016-12-04T10:37:07Z</time>
      </trkpt>
      <trkpt lat="44.86095" lon="5.52185">
        <ele>2031.4</ele>
        <time>2016-12-04T10:37:18Z</time>
      </trkpt>
      <trkpt lat="44.86091" lon="5.52189">
        <ele>2029.96</ele>
        <time>2016-12-04T10:37:29Z</time>
      </trkpt>
      <trkpt lat="44.86087" lon="5.52186">
        <ele>2026.12</ele>
        <time>2016-12-04T10:37:40Z</time>
      </trkpt>
      <trkpt lat="44.86087" lon="5.52185">
        <ele>2026.12</ele>
        <time>2016-12-04T10:37:41Z</time>
      </trkpt>
      <trkpt lat="44.86086" lon="5.52175">
        <ele>2022.75</ele>
        <time>2016-12-04T10:37:51Z</time>
      </trkpt>
      <trkpt lat="44.86081" lon="5.52183">
        <ele>2021.31</ele>
        <time>2016-12-04T10:38:04Z</time>
      </trkpt>
      <trkpt lat="44.86079" lon="5.52176">
        <ele>2018.91</ele>
        <time>2016-12-04T10:38:13Z</time>
      </trkpt>
      <trkpt lat="44.86074" lon="5.5218">
        <ele>2016.98</ele>
        <time>2016-12-04T10:38:25Z</time>
      </trkpt>
      <trkpt lat="44.86072" lon="5.5217">
        <ele>2013.62</ele>
        <time>2016-12-04T10:38:36Z</time>
      </trkpt>
      <trkpt lat="44.86071" lon="5.52159">
        <ele>2011.22</ele>
        <time>2016-12-04T10:38:48Z</time>
      </trkpt>
      <trkpt lat="44.86069" lon="5.52149">
        <ele>2007.85</ele>
        <time>2016-12-04T10:39:02Z</time>
      </trkpt>
      <trkpt lat="44.86068" lon="5.52152">
        <ele>2006.89</ele>
        <time>2016-12-04T10:39:06Z</time>
      </trkpt>
      <trkpt lat="44.86064" lon="5.52162">
        <ele>2004.01</ele>
        <time>2016-12-04T10:39:16Z</time>
      </trkpt>
      <trkpt lat="44.8606" lon="5.52167">
        <ele>2002.56</ele>
        <time>2016-12-04T10:39:24Z</time>
      </trkpt>
      <trkpt lat="44.86058" lon="5.52174">
        <ele>2001.6</ele>
        <time>2016-12-04T10:39:29Z</time>
      </trkpt>
      <trkpt lat="44.86056" lon="5.52174">
        <ele>2000.64</ele>
        <time>2016-12-04T10:39:31Z</time>
      </trkpt>
      <trkpt lat="44.86054" lon="5.5216">
        <ele>1998.24</ele>
        <time>2016-12-04T10:39:45Z</time>
      </trkpt>
      <trkpt lat="44.86052" lon="5.52153">
        <ele>1996.32</ele>
        <time>2016-12-04T10:39:53Z</time>
      </trkpt>
      <trkpt lat="44.86048" lon="5.52151">
        <ele>1994.87</ele>
        <time>2016-12-04T10:40:06Z</time>
      </trkpt>
      <trkpt lat="44.86046" lon="5.52156">
        <ele>1991.99</ele>
        <time>2016-12-04T10:40:13Z</time>
      </trkpt>
      <trkpt lat="44.86045" lon="5.52156">
        <ele>1991.03</ele>
        <time>2016-12-04T10:40:15Z</time>
      </trkpt>
      <trkpt lat="44.86044" lon="5.52156">
        <ele>1991.03</ele>
        <time>2016-12-04T10:40:16Z</time>
      </trkpt>
      <trkpt lat="44.8604" lon="5.52145">
        <ele>1988.14</ele>
        <time>2016-12-04T10:40:28Z</time>
      </trkpt>
      <trkpt lat="44.8604" lon="5.52142">
        <ele>1986.7</ele>
        <time>2016-12-04T10:40:31Z</time>
      </trkpt>
      <trkpt lat="44.86038" lon="5.52125">
        <ele>1982.86</ele>
        <time>2016-12-04T10:40:45Z</time>
      </trkpt>
      <trkpt lat="44.86037" lon="5.52105">
        <ele>1979.97</ele>
        <time>2016-12-04T10:41:00Z</time>
      </trkpt>
      <trkpt lat="44.86037" lon="5.521">
        <ele>1979.49</ele>
        <time>2016-12-04T10:41:04Z</time>
      </trkpt>
      <trkpt lat="44.86037" lon="5.52096">
        <ele>1978.53</ele>
        <time>2016-12-04T10:41:08Z</time>
      </trkpt>
      <trkpt lat="44.86033" lon="5.52101">
        <ele>1977.57</ele>
        <time>2016-12-04T10:41:19Z</time>
      </trkpt>
      <trkpt lat="44.86027" lon="5.52109">
        <ele>1974.2</ele>
        <time>2016-12-04T10:41:30Z</time>
      </trkpt>
      <trkpt lat="44.86022" lon="5.52115">
        <ele>1970.84</ele>
        <time>2016-12-04T10:41:39Z</time>
      </trkpt>
      <trkpt lat="44.86018" lon="5.52115">
        <ele>1967.48</ele>
        <time>2016-12-04T10:41:50Z</time>
      </trkpt>
      <trkpt lat="44.86017" lon="5.52115">
        <ele>1967.48</ele>
        <time>2016-12-04T10:41:51Z</time>
      </trkpt>
      <trkpt lat="44.86017" lon="5.52113">
        <ele>1969.88</ele>
        <time>2016-12-04T10:41:53Z</time>
      </trkpt>
      <trkpt lat="44.86016" lon="5.52113">
        <ele>1967.48</ele>
        <time>2016-12-04T10:41:57Z</time>
      </trkpt>
      <trkpt lat="44.8601" lon="5.52123">
        <ele>1965.55</ele>
        <time>2016-12-04T10:42:09Z</time>
      </trkpt>
      <trkpt lat="44.86008" lon="5.52127">
        <ele>1963.15</ele>
        <time>2016-12-04T10:42:15Z</time>
      </trkpt>
      <trkpt lat="44.86002" lon="5.52137">
        <ele>1961.23</ele>
        <time>2016-12-04T10:42:27Z</time>
      </trkpt>
      <trkpt lat="44.86" lon="5.52144">
        <ele>1958.34</ele>
        <time>2016-12-04T10:42:33Z</time>
      </trkpt>
      <trkpt lat="44.85997" lon="5.5215">
        <ele>1956.9</ele>
        <time>2016-12-04T10:42:39Z</time>
      </trkpt>
      <trkpt lat="44.85991" lon="5.52153">
        <ele>1954.02</ele>
        <time>2016-12-04T10:42:48Z</time>
      </trkpt>
      <trkpt lat="44.85988" lon="5.52151">
        <ele>1954.5</ele>
        <time>2016-12-04T10:42:55Z</time>
      </trkpt>
      <trkpt lat="44.85987" lon="5.52153">
        <ele>1951.61</ele>
        <time>2016-12-04T10:42:59Z</time>
      </trkpt>
      <trkpt lat="44.85987" lon="5.52154">
        <ele>1951.61</ele>
        <time>2016-12-04T10:43:00Z</time>
      </trkpt>
      <trkpt lat="44.85983" lon="5.52161">
        <ele>1949.21</ele>
        <time>2016-12-04T10:43:08Z</time>
      </trkpt>
      <trkpt lat="44.85979" lon="5.52162">
        <ele>1946.81</ele>
        <time>2016-12-04T10:43:12Z</time>
      </trkpt>
      <trkpt lat="44.85975" lon="5.52165">
        <ele>1944.4</ele>
        <time>2016-12-04T10:43:24Z</time>
      </trkpt>
      <trkpt lat="44.85974" lon="5.52164">
        <ele>1944.4</ele>
        <time>2016-12-04T10:43:25Z</time>
      </trkpt>
      <trkpt lat="44.85968" lon="5.52165">
        <ele>1942</ele>
        <time>2016-12-04T10:43:38Z</time>
      </trkpt>
      <trkpt lat="44.85963" lon="5.52158">
        <ele>1939.6</ele>
        <time>2016-12-04T10:43:50Z</time>
      </trkpt>
      <trkpt lat="44.8596" lon="5.52153">
        <ele>1937.67</ele>
        <time>2016-12-04T10:43:56Z</time>
      </trkpt>
      <trkpt lat="44.85956" lon="5.52147">
        <ele>1935.75</ele>
        <time>2016-12-04T10:44:03Z</time>
      </trkpt>
      <trkpt lat="44.8595" lon="5.52138">
        <ele>1933.83</ele>
        <time>2016-12-04T10:44:13Z</time>
      </trkpt>
      <trkpt lat="44.85947" lon="5.5213">
        <ele>1931.91</ele>
        <time>2016-12-04T10:44:21Z</time>
      </trkpt>
      <trkpt lat="44.85946" lon="5.52132">
        <ele>1934.31</ele>
        <time>2016-12-04T10:44:24Z</time>
      </trkpt>
      <trkpt lat="44.85946" lon="5.52136">
        <ele>1932.87</ele>
        <time>2016-12-04T10:44:28Z</time>
      </trkpt>
      <trkpt lat="44.85944" lon="5.52145">
        <ele>1929.5</ele>
        <time>2016-12-04T10:44:37Z</time>
      </trkpt>
      <trkpt lat="44.85943" lon="5.52155">
        <ele>1926.14</ele>
        <time>2016-12-04T10:44:46Z</time>
      </trkpt>
      <trkpt lat="44.85942" lon="5.52165">
        <ele>1923.25</ele>
        <time>2016-12-04T10:44:56Z</time>
      </trkpt>
      <trkpt lat="44.85939" lon="5.52184">
        <ele>1919.89</ele>
        <time>2016-12-04T10:45:11Z</time>
      </trkpt>
      <trkpt lat="44.85935" lon="5.52191">
        <ele>1917.01</ele>
        <time>2016-12-04T10:45:21Z</time>
      </trkpt>
      <trkpt lat="44.85929" lon="5.52181">
        <ele>1915.56</ele>
        <time>2016-12-04T10:45:32Z</time>
      </trkpt>
      <trkpt lat="44.85924" lon="5.52186">
        <ele>1912.2</ele>
        <time>2016-12-04T10:45:46Z</time>
      </trkpt>
      <trkpt lat="44.85922" lon="5.52189">
        <ele>1910.28</ele>
        <time>2016-12-04T10:45:50Z</time>
      </trkpt>
      <trkpt lat="44.85919" lon="5.52202">
        <ele>1907.39</ele>
        <time>2016-12-04T10:46:03Z</time>
      </trkpt>
      <trkpt lat="44.85916" lon="5.52209">
        <ele>1905.95</ele>
        <time>2016-12-04T10:46:10Z</time>
      </trkpt>
      <trkpt lat="44.8591" lon="5.52222">
        <ele>1902.11</ele>
        <time>2016-12-04T10:46:22Z</time>
      </trkpt>
      <trkpt lat="44.85907" lon="5.52222">
        <ele>1905.47</ele>
        <time>2016-12-04T10:46:27Z</time>
      </trkpt>
      <trkpt lat="44.85905" lon="5.52222">
        <ele>1901.63</ele>
        <time>2016-12-04T10:46:29Z</time>
      </trkpt>
      <trkpt lat="44.85902" lon="5.52226">
        <ele>1901.14</ele>
        <time>2016-12-04T10:46:35Z</time>
      </trkpt>
      <trkpt lat="44.859" lon="5.5223">
        <ele>1898.74</ele>
        <time>2016-12-04T10:46:40Z</time>
      </trkpt>
      <trkpt lat="44.859" lon="5.5223">
        <ele>1902.11</ele>
        <time>2016-12-04T10:46:41Z</time>
      </trkpt>
      <trkpt lat="44.859" lon="5.52231">
        <ele>1902.11</ele>
        <time>2016-12-04T10:46:42Z</time>
      </trkpt>
      <trkpt lat="44.85899" lon="5.52232">
        <ele>1897.78</ele>
        <time>2016-12-04T10:46:44Z</time>
      </trkpt>
      <trkpt lat="44.85898" lon="5.52233">
        <ele>1897.78</ele>
        <time>2016-12-04T10:46:45Z</time>
      </trkpt>
      <trkpt lat="44.85897" lon="5.52235">
        <ele>1900.18</ele>
        <time>2016-12-04T10:46:48Z</time>
      </trkpt>
      <trkpt lat="44.85896" lon="5.52236">
        <ele>1896.82</ele>
        <time>2016-12-04T10:46:49Z</time>
      </trkpt>
      <trkpt lat="44.85895" lon="5.52236">
        <ele>1895.38</ele>
        <time>2016-12-04T10:46:51Z</time>
      </trkpt>
      <trkpt lat="44.85894" lon="5.52237">
        <ele>1898.74</ele>
        <time>2016-12-04T10:46:53Z</time>
      </trkpt>
      <trkpt lat="44.85893" lon="5.52237">
        <ele>1898.26</ele>
        <time>2016-12-04T10:46:54Z</time>
      </trkpt>
      <trkpt lat="44.85893" lon="5.52239">
        <ele>1897.3</ele>
        <time>2016-12-04T10:46:56Z</time>
      </trkpt>
      <trkpt lat="44.85891" lon="5.52243">
        <ele>1894.42</ele>
        <time>2016-12-04T10:47:02Z</time>
      </trkpt>
      <trkpt lat="44.8589" lon="5.52245">
        <ele>1893.93</ele>
        <time>2016-12-04T10:47:08Z</time>
      </trkpt>
      <trkpt lat="44.85887" lon="5.52246">
        <ele>1892.01</ele>
        <time>2016-12-04T10:47:12Z</time>
      </trkpt>
      <trkpt lat="44.8588" lon="5.52247">
        <ele>1893.93</ele>
        <time>2016-12-04T10:47:22Z</time>
      </trkpt>
      <trkpt lat="44.85879" lon="5.52247">
        <ele>1892.49</ele>
        <time>2016-12-04T10:47:23Z</time>
      </trkpt>
      <trkpt lat="44.85877" lon="5.52247">
        <ele>1891.53</ele>
        <time>2016-12-04T10:47:25Z</time>
      </trkpt>
      <trkpt lat="44.8587" lon="5.52248">
        <ele>1893.45</ele>
        <time>2016-12-04T10:47:33Z</time>
      </trkpt>
      <trkpt lat="44.85869" lon="5.52248">
        <ele>1892.01</ele>
        <time>2016-12-04T10:47:35Z</time>
      </trkpt>
      <trkpt lat="44.85868" lon="5.52247">
        <ele>1893.93</ele>
        <time>2016-12-04T10:47:38Z</time>
      </trkpt>
      <trkpt lat="44.85867" lon="5.52247">
        <ele>1892.01</ele>
        <time>2016-12-04T10:47:40Z</time>
      </trkpt>
      <trkpt lat="44.85867" lon="5.52247">
        <ele>1892.49</ele>
        <time>2016-12-04T10:47:41Z</time>
      </trkpt>
      <trkpt lat="44.85866" lon="5.52245">
        <ele>1893.93</ele>
        <time>2016-12-04T10:47:43Z</time>
      </trkpt>
      <trkpt lat="44.85861" lon="5.52236">
        <ele>1893.93</ele>
        <time>2016-12-04T10:47:51Z</time>
      </trkpt>
      <trkpt lat="44.85859" lon="5.52225">
        <ele>1892.49</ele>
        <time>2016-12-04T10:48:01Z</time>
      </trkpt>
      <trkpt lat="44.85859" lon="5.52213">
        <ele>1890.09</ele>
        <time>2016-12-04T10:48:14Z</time>
      </trkpt>
      <trkpt lat="44.85858" lon="5.52212">
        <ele>1889.13</ele>
        <time>2016-12-04T10:48:26Z</time>
      </trkpt>
      <trkpt lat="44.85856" lon="5.52213">
        <ele>1889.13</ele>
        <time>2016-12-04T10:48:39Z</time>
      </trkpt>
      <trkpt lat="44.85856" lon="5.52214">
        <ele>1888.65</ele>
        <time>2016-12-04T10:48:52Z</time>
      </trkpt>
      <trkpt lat="44.85856" lon="5.52214">
        <ele>1888.65</ele>
        <time>2016-12-04T10:49:26Z</time>
      </trkpt>
      <trkpt lat="44.85856" lon="5.52215">
        <ele>1889.13</ele>
        <time>2016-12-04T10:50:08Z</time>
      </trkpt>
      <trkpt lat="44.85856" lon="5.52214">
        <ele>1889.13</ele>
        <time>2016-12-04T10:50:45Z</time>
      </trkpt>
      <trkpt lat="44.85856" lon="5.52212">
        <ele>1889.13</ele>
        <time>2016-12-04T10:51:08Z</time>
      </trkpt>
      <trkpt lat="44.85857" lon="5.52211">
        <ele>1889.61</ele>
        <time>2016-12-04T10:51:36Z</time>
      </trkpt>
      <trkpt lat="44.85856" lon="5.5221">
        <ele>1891.05</ele>
        <time>2016-12-04T10:51:51Z</time>
      </trkpt>
      <trkpt lat="44.85855" lon="5.5221">
        <ele>1890.09</ele>
        <time>2016-12-04T10:52:19Z</time>
      </trkpt>
      <trkpt lat="44.85856" lon="5.52211">
        <ele>1890.09</ele>
        <time>2016-12-04T10:52:55Z</time>
      </trkpt>
      <trkpt lat="44.85856" lon="5.52211">
        <ele>1889.61</ele>
        <time>2016-12-04T10:53:28Z</time>
      </trkpt>
      <trkpt lat="44.85858" lon="5.52211">
        <ele>1890.09</ele>
        <time>2016-12-04T10:53:50Z</time>
      </trkpt>
      <trkpt lat="44.85856" lon="5.52211">
        <ele>1890.09</ele>
        <time>2016-12-04T10:54:20Z</time>
      </trkpt>
      <trkpt lat="44.85856" lon="5.5221">
        <ele>1890.09</ele>
        <time>2016-12-04T10:54:48Z</time>
      </trkpt>
      <trkpt lat="44.85857" lon="5.5221">
        <ele>1890.57</ele>
        <time>2016-12-04T10:55:21Z</time>
      </trkpt>
      <trkpt lat="44.85858" lon="5.52213">
        <ele>1890.57</ele>
        <time>2016-12-04T10:56:01Z</time>
      </trkpt>
      <trkpt lat="44.85856" lon="5.52211">
        <ele>1890.57</ele>
        <time>2016-12-04T10:56:28Z</time>
      </trkpt>
      <trkpt lat="44.85857" lon="5.52212">
        <ele>1890.57</ele>
        <time>2016-12-04T10:57:02Z</time>
      </trkpt>
      <trkpt lat="44.85857" lon="5.52212">
        <ele>1890.57</ele>
        <time>2016-12-04T10:57:30Z</time>
      </trkpt>
      <trkpt lat="44.85858" lon="5.52212">
        <ele>1890.57</ele>
        <time>2016-12-04T10:58:00Z</time>
      </trkpt>
      <trkpt lat="44.85858" lon="5.52213">
        <ele>1891.05</ele>
        <time>2016-12-04T10:58:33Z</time>
      </trkpt>
      <trkpt lat="44.85857" lon="5.52213">
        <ele>1891.05</ele>
        <time>2016-12-04T10:59:06Z</time>
      </trkpt>
      <trkpt lat="44.85856" lon="5.52211">
        <ele>1891.05</ele>
        <time>2016-12-04T10:59:42Z</time>
      </trkpt>
      <trkpt lat="44.85855" lon="5.52211">
        <ele>1892.49</ele>
        <time>2016-12-04T11:00:13Z</time>
      </trkpt>
      <trkpt lat="44.85855" lon="5.52211">
        <ele>1892.49</ele>
        <time>2016-12-04T11:00:41Z</time>
      </trkpt>
      <trkpt lat="44.85854" lon="5.5221">
        <ele>1892.49</ele>
        <time>2016-12-04T11:01:14Z</time>
      </trkpt>
      <trkpt lat="44.85854" lon="5.52209">
        <ele>1892.49</ele>
        <time>2016-12-04T11:01:50Z</time>
      </trkpt>
      <trkpt lat="44.85856" lon="5.52209">
        <ele>1892.97</ele>
        <time>2016-12-04T11:02:16Z</time>
      </trkpt>
      <trkpt lat="44.85855" lon="5.52211">
        <ele>1893.45</ele>
        <time>2016-12-04T11:02:46Z</time>
      </trkpt>
      <trkpt lat="44.85855" lon="5.52211">
        <ele>1893.45</ele>
        <time>2016-12-04T11:02:53Z</time>
      </trkpt>
      <trkpt lat="44.85856" lon="5.5221">
        <ele>1893.45</ele>
        <time>2016-12-04T11:03:07Z</time>
      </trkpt>
      <trkpt lat="44.85856" lon="5.52211">
        <ele>1892.01</ele>
        <time>2016-12-04T11:03:21Z</time>
      </trkpt>
      <trkpt lat="44.85856" lon="5.52213">
        <ele>1892.49</ele>
        <time>2016-12-04T11:03:47Z</time>
      </trkpt>
      <trkpt lat="44.85857" lon="5.52212">
        <ele>1893.93</ele>
        <time>2016-12-04T11:04:27Z</time>
      </trkpt>
      <trkpt lat="44.85857" lon="5.52213">
        <ele>1893.93</ele>
        <time>2016-12-04T11:05:03Z</time>
      </trkpt>
      <trkpt lat="44.85856" lon="5.52211">
        <ele>1892.49</ele>
        <time>2016-12-04T11:05:23Z</time>
      </trkpt>
      <trkpt lat="44.85857" lon="5.52211">
        <ele>1892.97</ele>
        <time>2016-12-04T11:05:55Z</time>
      </trkpt>
      <trkpt lat="44.85857" lon="5.52212">
        <ele>1894.42</ele>
        <time>2016-12-04T11:06:02Z</time>
      </trkpt>
      <trkpt lat="44.85856" lon="5.52211">
        <ele>1893.45</ele>
        <time>2016-12-04T11:06:25Z</time>
      </trkpt>
      <trkpt lat="44.85855" lon="5.52211">
        <ele>1893.45</ele>
        <time>2016-12-04T11:06:58Z</time>
      </trkpt>
      <trkpt lat="44.85855" lon="5.52212">
        <ele>1893.93</ele>
        <time>2016-12-04T11:07:32Z</time>
      </trkpt>
      <trkpt lat="44.85856" lon="5.52209">
        <ele>1893.93</ele>
        <time>2016-12-04T11:08:03Z</time>
      </trkpt>
      <trkpt lat="44.85854" lon="5.5221">
        <ele>1893.93</ele>
        <time>2016-12-04T11:08:39Z</time>
      </trkpt>
      <trkpt lat="44.85855" lon="5.52207">
        <ele>1893.93</ele>
        <time>2016-12-04T11:09:15Z</time>
      </trkpt>
      <trkpt lat="44.85854" lon="5.52209">
        <ele>1893.93</ele>
        <time>2016-12-04T11:09:56Z</time>
      </trkpt>
      <trkpt lat="44.85856" lon="5.5221">
        <ele>1893.93</ele>
        <time>2016-12-04T11:10:32Z</time>
      </trkpt>
      <trkpt lat="44.85854" lon="5.52208">
        <ele>1894.42</ele>
        <time>2016-12-04T11:11:08Z</time>
      </trkpt>
      <trkpt lat="44.85856" lon="5.5221">
        <ele>1893.93</ele>
        <time>2016-12-04T11:11:44Z</time>
      </trkpt>
      <trkpt lat="44.85855" lon="5.5221">
        <ele>1893.93</ele>
        <time>2016-12-04T11:12:13Z</time>
      </trkpt>
      <trkpt lat="44.85856" lon="5.52211">
        <ele>1893.93</ele>
        <time>2016-12-04T11:12:51Z</time>
      </trkpt>
      <trkpt lat="44.85856" lon="5.52212">
        <ele>1893.93</ele>
        <time>2016-12-04T11:13:28Z</time>
      </trkpt>
      <trkpt lat="44.85856" lon="5.52212">
        <ele>1893.93</ele>
        <time>2016-12-04T11:13:59Z</time>
      </trkpt>
      <trkpt lat="44.85856" lon="5.52212">
        <ele>1893.93</ele>
        <time>2016-12-04T11:14:25Z</time>
      </trkpt>
      <trkpt lat="44.85856" lon="5.52212">
        <ele>1895.38</ele>
        <time>2016-12-04T11:14:31Z</time>
      </trkpt>
      <trkpt lat="44.85855" lon="5.52209">
        <ele>1895.38</ele>
        <time>2016-12-04T11:14:53Z</time>
      </trkpt>
      <trkpt lat="44.85855" lon="5.52209">
        <ele>1895.38</ele>
        <time>2016-12-04T11:15:29Z</time>
      </trkpt>
      <trkpt lat="44.85855" lon="5.52209">
        <ele>1894.42</ele>
        <time>2016-12-04T11:15:33Z</time>
      </trkpt>
      <trkpt lat="44.85854" lon="5.52209">
        <ele>1894.42</ele>
        <time>2016-12-04T11:16:10Z</time>
      </trkpt>
      <trkpt lat="44.85854" lon="5.52209">
        <ele>1895.38</ele>
        <time>2016-12-04T11:16:24Z</time>
      </trkpt>
      <trkpt lat="44.85857" lon="5.52211">
        <ele>1895.86</ele>
        <time>2016-12-04T11:17:00Z</time>
      </trkpt>
      <trkpt lat="44.85857" lon="5.52211">
        <ele>1894.42</ele>
        <time>2016-12-04T11:17:29Z</time>
      </trkpt>
      <trkpt lat="44.85859" lon="5.52212">
        <ele>1894.42</ele>
        <time>2016-12-04T11:17:58Z</time>
      </trkpt>
      <trkpt lat="44.8586" lon="5.52211">
        <ele>1894.42</ele>
        <time>2016-12-04T11:18:33Z</time>
      </trkpt>
      <trkpt lat="44.85857" lon="5.52211">
        <ele>1894.42</ele>
        <time>2016-12-04T11:19:02Z</time>
      </trkpt>
      <trkpt lat="44.85856" lon="5.52213">
        <ele>1894.42</ele>
        <time>2016-12-04T11:19:37Z</time>
      </trkpt>
      <trkpt lat="44.85855" lon="5.52213">
        <ele>1893.93</ele>
        <time>2016-12-04T11:20:06Z</time>
      </trkpt>
      <trkpt lat="44.85855" lon="5.52211">
        <ele>1893.93</ele>
        <time>2016-12-04T11:20:35Z</time>
      </trkpt>
      <trkpt lat="44.85856" lon="5.52214">
        <ele>1893.45</ele>
        <time>2016-12-04T11:21:05Z</time>
      </trkpt>
      <trkpt lat="44.85856" lon="5.52212">
        <ele>1893.45</ele>
        <time>2016-12-04T11:21:29Z</time>
      </trkpt>
      <trkpt lat="44.85857" lon="5.52213">
        <ele>1893.45</ele>
        <time>2016-12-04T11:21:58Z</time>
      </trkpt>
      <trkpt lat="44.85857" lon="5.52212">
        <ele>1894.9</ele>
        <time>2016-12-04T11:22:26Z</time>
      </trkpt>
      <trkpt lat="44.85857" lon="5.52213">
        <ele>1894.9</ele>
        <time>2016-12-04T11:22:54Z</time>
      </trkpt>
      <trkpt lat="44.85857" lon="5.52213">
        <ele>1894.9</ele>
        <time>2016-12-04T11:23:22Z</time>
      </trkpt>
      <trkpt lat="44.85857" lon="5.52212">
        <ele>1895.38</ele>
        <time>2016-12-04T11:23:49Z</time>
      </trkpt>
      <trkpt lat="44.85855" lon="5.52212">
        <ele>1895.38</ele>
        <time>2016-12-04T11:24:00Z</time>
      </trkpt>
      <trkpt lat="44.85856" lon="5.52212">
        <ele>1895.38</ele>
        <time>2016-12-04T11:24:17Z</time>
      </trkpt>
      <trkpt lat="44.85856" lon="5.52212">
        <ele>1895.86</ele>
        <time>2016-12-04T11:24:51Z</time>
      </trkpt>
      <trkpt lat="44.85856" lon="5.52212">
        <ele>1895.86</ele>
        <time>2016-12-04T11:25:13Z</time>
      </trkpt>
      <trkpt lat="44.85856" lon="5.52212">
        <ele>1894.42</ele>
        <time>2016-12-04T11:25:51Z</time>
      </trkpt>
      <trkpt lat="44.85857" lon="5.52209">
        <ele>1893.45</ele>
        <time>2016-12-04T11:26:08Z</time>
      </trkpt>
      <trkpt lat="44.85856" lon="5.52202">
        <ele>1892.01</ele>
        <time>2016-12-04T11:26:18Z</time>
      </trkpt>
      <trkpt lat="44.85852" lon="5.5219">
        <ele>1892.97</ele>
        <time>2016-12-04T11:26:31Z</time>
      </trkpt>
      <trkpt lat="44.8585" lon="5.52181">
        <ele>1893.45</ele>
        <time>2016-12-04T11:26:40Z</time>
      </trkpt>
      <trkpt lat="44.8585" lon="5.52176">
        <ele>1894.9</ele>
        <time>2016-12-04T11:26:57Z</time>
      </trkpt>
      <trkpt lat="44.8585" lon="5.52175">
        <ele>1894.9</ele>
        <time>2016-12-04T11:27:10Z</time>
      </trkpt>
      <trkpt lat="44.85849" lon="5.52161">
        <ele>1894.9</ele>
        <time>2016-12-04T11:27:18Z</time>
      </trkpt>
      <trkpt lat="44.85849" lon="5.52138">
        <ele>1893.45</ele>
        <time>2016-12-04T11:27:31Z</time>
      </trkpt>
      <trkpt lat="44.85853" lon="5.5212">
        <ele>1892.49</ele>
        <time>2016-12-04T11:27:47Z</time>
      </trkpt>
      <trkpt lat="44.85854" lon="5.52118">
        <ele>1892.01</ele>
        <time>2016-12-04T11:27:56Z</time>
      </trkpt>
      <trkpt lat="44.8586" lon="5.52111">
        <ele>1889.13</ele>
        <time>2016-12-04T11:28:12Z</time>
      </trkpt>
      <trkpt lat="44.85862" lon="5.52105">
        <ele>1886.24</ele>
        <time>2016-12-04T11:28:26Z</time>
      </trkpt>
      <trkpt lat="44.8586" lon="5.52104">
        <ele>1884.32</ele>
        <time>2016-12-04T11:28:38Z</time>
      </trkpt>
      <trkpt lat="44.85857" lon="5.52103">
        <ele>1881.92</ele>
        <time>2016-12-04T11:28:43Z</time>
      </trkpt>
      <trkpt lat="44.8585" lon="5.52103">
        <ele>1880.48</ele>
        <time>2016-12-04T11:28:55Z</time>
      </trkpt>
      <trkpt lat="44.85845" lon="5.52101">
        <ele>1877.11</ele>
        <time>2016-12-04T11:29:07Z</time>
      </trkpt>
      <trkpt lat="44.8584" lon="5.52098">
        <ele>1874.71</ele>
        <time>2016-12-04T11:29:19Z</time>
      </trkpt>
      <trkpt lat="44.85839" lon="5.52094">
        <ele>1872.79</ele>
        <time>2016-12-04T11:29:31Z</time>
      </trkpt>
      <trkpt lat="44.85838" lon="5.52095">
        <ele>1872.3</ele>
        <time>2016-12-04T11:29:55Z</time>
      </trkpt>
      <trkpt lat="44.85838" lon="5.52091">
        <ele>1870.86</ele>
        <time>2016-12-04T11:30:14Z</time>
      </trkpt>
      <trkpt lat="44.85833" lon="5.5209">
        <ele>1867.98</ele>
        <time>2016-12-04T11:30:28Z</time>
      </trkpt>
      <trkpt lat="44.8583" lon="5.52083">
        <ele>1864.61</ele>
        <time>2016-12-04T11:30:39Z</time>
      </trkpt>
      <trkpt lat="44.85823" lon="5.52083">
        <ele>1861.25</ele>
        <time>2016-12-04T11:30:50Z</time>
      </trkpt>
      <trkpt lat="44.85817" lon="5.5208">
        <ele>1858.37</ele>
        <time>2016-12-04T11:31:01Z</time>
      </trkpt>
      <trkpt lat="44.85811" lon="5.52076">
        <ele>1855</ele>
        <time>2016-12-04T11:31:11Z</time>
      </trkpt>
      <trkpt lat="44.85808" lon="5.52075">
        <ele>1853.08</ele>
        <time>2016-12-04T11:31:16Z</time>
      </trkpt>
      <trkpt lat="44.85804" lon="5.52071">
        <ele>1851.16</ele>
        <time>2016-12-04T11:31:23Z</time>
      </trkpt>
      <trkpt lat="44.85798" lon="5.52068">
        <ele>1848.27</ele>
        <time>2016-12-04T11:31:32Z</time>
      </trkpt>
      <trkpt lat="44.85797" lon="5.52048">
        <ele>1844.43</ele>
        <time>2016-12-04T11:31:47Z</time>
      </trkpt>
      <trkpt lat="44.85799" lon="5.52039">
        <ele>1841.06</ele>
        <time>2016-12-04T11:31:55Z</time>
      </trkpt>
      <trkpt lat="44.85794" lon="5.52032">
        <ele>1838.18</ele>
        <time>2016-12-04T11:32:06Z</time>
      </trkpt>
      <trkpt lat="44.85793" lon="5.52031">
        <ele>1837.22</ele>
        <time>2016-12-04T11:32:08Z</time>
      </trkpt>
      <trkpt lat="44.85777" lon="5.52025">
        <ele>1834.33</ele>
        <time>2016-12-04T11:32:22Z</time>
      </trkpt>
      <trkpt lat="44.85771" lon="5.5202">
        <ele>1832.41</ele>
        <time>2016-12-04T11:32:29Z</time>
      </trkpt>
      <trkpt lat="44.85763" lon="5.52017">
        <ele>1831.45</ele>
        <time>2016-12-04T11:32:38Z</time>
      </trkpt>
      <trkpt lat="44.85749" lon="5.52014">
        <ele>1829.53</ele>
        <time>2016-12-04T11:32:49Z</time>
      </trkpt>
      <trkpt lat="44.85738" lon="5.52011">
        <ele>1827.12</ele>
        <time>2016-12-04T11:33:00Z</time>
      </trkpt>
      <trkpt lat="44.85731" lon="5.52005">
        <ele>1826.64</ele>
        <time>2016-12-04T11:33:06Z</time>
      </trkpt>
      <trkpt lat="44.85722" lon="5.51986">
        <ele>1825.2</ele>
        <time>2016-12-04T11:33:17Z</time>
      </trkpt>
      <trkpt lat="44.8572" lon="5.51978">
        <ele>1824.24</ele>
        <time>2016-12-04T11:33:21Z</time>
      </trkpt>
      <trkpt lat="44.8572" lon="5.5197">
        <ele>1824.24</ele>
        <time>2016-12-04T11:33:26Z</time>
      </trkpt>
      <trkpt lat="44.85722" lon="5.51965">
        <ele>1824.24</ele>
        <time>2016-12-04T11:33:29Z</time>
      </trkpt>
      <trkpt lat="44.85724" lon="5.51955">
        <ele>1823.28</ele>
        <time>2016-12-04T11:33:35Z</time>
      </trkpt>
      <trkpt lat="44.85727" lon="5.51942">
        <ele>1822.8</ele>
        <time>2016-12-04T11:33:46Z</time>
      </trkpt>
      <trkpt lat="44.85727" lon="5.51939">
        <ele>1822.8</ele>
        <time>2016-12-04T11:33:48Z</time>
      </trkpt>
      <trkpt lat="44.8573" lon="5.51933">
        <ele>1821.35</ele>
        <time>2016-12-04T11:33:52Z</time>
      </trkpt>
      <trkpt lat="44.85734" lon="5.51929">
        <ele>1820.39</ele>
        <time>2016-12-04T11:33:56Z</time>
      </trkpt>
      <trkpt lat="44.85735" lon="5.51926">
        <ele>1819.91</ele>
        <time>2016-12-04T11:33:58Z</time>
      </trkpt>
      <trkpt lat="44.85737" lon="5.51924">
        <ele>1819.91</ele>
        <time>2016-12-04T11:34:00Z</time>
      </trkpt>
      <trkpt lat="44.85739" lon="5.51915">
        <ele>1818.95</ele>
        <time>2016-12-04T11:34:05Z</time>
      </trkpt>
      <trkpt lat="44.85744" lon="5.51899">
        <ele>1816.07</ele>
        <time>2016-12-04T11:34:19Z</time>
      </trkpt>
      <trkpt lat="44.85747" lon="5.51893">
        <ele>1814.63</ele>
        <time>2016-12-04T11:34:25Z</time>
      </trkpt>
      <trkpt lat="44.85754" lon="5.51879">
        <ele>1812.22</ele>
        <time>2016-12-04T11:34:39Z</time>
      </trkpt>
      <trkpt lat="44.85757" lon="5.51879">
        <ele>1811.26</ele>
        <time>2016-12-04T11:34:42Z</time>
      </trkpt>
      <trkpt lat="44.85768" lon="5.51877">
        <ele>1809.34</ele>
        <time>2016-12-04T11:34:55Z</time>
      </trkpt>
      <trkpt lat="44.85776" lon="5.51873">
        <ele>1807.42</ele>
        <time>2016-12-04T11:35:06Z</time>
      </trkpt>
      <trkpt lat="44.85777" lon="5.51872">
        <ele>1806.94</ele>
        <time>2016-12-04T11:35:08Z</time>
      </trkpt>
      <trkpt lat="44.85788" lon="5.51863">
        <ele>1803.57</ele>
        <time>2016-12-04T11:35:23Z</time>
      </trkpt>
      <trkpt lat="44.8579" lon="5.51862">
        <ele>1802.13</ele>
        <time>2016-12-04T11:35:30Z</time>
      </trkpt>
      <trkpt lat="44.85781" lon="5.5186">
        <ele>1799.24</ele>
        <time>2016-12-04T11:35:42Z</time>
      </trkpt>
      <trkpt lat="44.8578" lon="5.51859">
        <ele>1798.76</ele>
        <time>2016-12-04T11:35:43Z</time>
      </trkpt>
      <trkpt lat="44.85777" lon="5.51853">
        <ele>1797.8</ele>
        <time>2016-12-04T11:35:48Z</time>
      </trkpt>
      <trkpt lat="44.8577" lon="5.51847">
        <ele>1794.44</ele>
        <time>2016-12-04T11:35:59Z</time>
      </trkpt>
      <trkpt lat="44.85771" lon="5.51836">
        <ele>1793.48</ele>
        <time>2016-12-04T11:36:12Z</time>
      </trkpt>
      <trkpt lat="44.85775" lon="5.51833">
        <ele>1792.03</ele>
        <time>2016-12-04T11:36:17Z</time>
      </trkpt>
      <trkpt lat="44.8578" lon="5.51829">
        <ele>1789.63</ele>
        <time>2016-12-04T11:36:25Z</time>
      </trkpt>
      <trkpt lat="44.85778" lon="5.51826">
        <ele>1789.15</ele>
        <time>2016-12-04T11:36:28Z</time>
      </trkpt>
      <trkpt lat="44.85778" lon="5.51822">
        <ele>1788.19</ele>
        <time>2016-12-04T11:36:31Z</time>
      </trkpt>
      <trkpt lat="44.85777" lon="5.51816">
        <ele>1786.75</ele>
        <time>2016-12-04T11:36:36Z</time>
      </trkpt>
      <trkpt lat="44.85779" lon="5.51809">
        <ele>1785.31</ele>
        <time>2016-12-04T11:36:41Z</time>
      </trkpt>
      <trkpt lat="44.85788" lon="5.51791">
        <ele>1782.42</ele>
        <time>2016-12-04T11:36:54Z</time>
      </trkpt>
      <trkpt lat="44.85789" lon="5.5179">
        <ele>1782.42</ele>
        <time>2016-12-04T11:36:55Z</time>
      </trkpt>
      <trkpt lat="44.85795" lon="5.5178">
        <ele>1780.98</ele>
        <time>2016-12-04T11:37:02Z</time>
      </trkpt>
      <trkpt lat="44.858" lon="5.51769">
        <ele>1780.5</ele>
        <time>2016-12-04T11:37:18Z</time>
      </trkpt>
      <trkpt lat="44.85803" lon="5.51761">
        <ele>1779.06</ele>
        <time>2016-12-04T11:37:27Z</time>
      </trkpt>
      <trkpt lat="44.85807" lon="5.51742">
        <ele>1775.69</ele>
        <time>2016-12-04T11:37:41Z</time>
      </trkpt>
      <trkpt lat="44.8581" lon="5.51733">
        <ele>1773.29</ele>
        <time>2016-12-04T11:37:49Z</time>
      </trkpt>
      <trkpt lat="44.85812" lon="5.51727">
        <ele>1772.81</ele>
        <time>2016-12-04T11:37:54Z</time>
      </trkpt>
      <trkpt lat="44.8581" lon="5.5172">
        <ele>1771.85</ele>
        <time>2016-12-04T11:37:59Z</time>
      </trkpt>
      <trkpt lat="44.85816" lon="5.51702">
        <ele>1770.89</ele>
        <time>2016-12-04T11:38:12Z</time>
      </trkpt>
      <trkpt lat="44.8582" lon="5.51688">
        <ele>1769.92</ele>
        <time>2016-12-04T11:38:24Z</time>
      </trkpt>
      <trkpt lat="44.85818" lon="5.51683">
        <ele>1769.44</ele>
        <time>2016-12-04T11:38:27Z</time>
      </trkpt>
      <trkpt lat="44.8582" lon="5.51675">
        <ele>1767.52</ele>
        <time>2016-12-04T11:38:34Z</time>
      </trkpt>
      <trkpt lat="44.85823" lon="5.51654">
        <ele>1766.56</ele>
        <time>2016-12-04T11:38:48Z</time>
      </trkpt>
      <trkpt lat="44.85825" lon="5.51652">
        <ele>1766.56</ele>
        <time>2016-12-04T11:39:02Z</time>
      </trkpt>
      <trkpt lat="44.85829" lon="5.51646">
        <ele>1766.08</ele>
        <time>2016-12-04T11:39:33Z</time>
      </trkpt>
      <trkpt lat="44.8583" lon="5.5164">
        <ele>1765.6</ele>
        <time>2016-12-04T11:39:38Z</time>
      </trkpt>
      <trkpt lat="44.85829" lon="5.51634">
        <ele>1765.6</ele>
        <time>2016-12-04T11:39:43Z</time>
      </trkpt>
      <trkpt lat="44.85836" lon="5.5162">
        <ele>1763.2</ele>
        <time>2016-12-04T11:39:56Z</time>
      </trkpt>
      <trkpt lat="44.8584" lon="5.51605">
        <ele>1761.75</ele>
        <time>2016-12-04T11:40:09Z</time>
      </trkpt>
      <trkpt lat="44.85841" lon="5.51602">
        <ele>1761.27</ele>
        <time>2016-12-04T11:40:11Z</time>
      </trkpt>
      <trkpt lat="44.85842" lon="5.516">
        <ele>1761.27</ele>
        <time>2016-12-04T11:40:13Z</time>
      </trkpt>
      <trkpt lat="44.85844" lon="5.51596">
        <ele>1760.31</ele>
        <time>2016-12-04T11:40:17Z</time>
      </trkpt>
      <trkpt lat="44.85845" lon="5.51579">
        <ele>1758.87</ele>
        <time>2016-12-04T11:40:29Z</time>
      </trkpt>
      <trkpt lat="44.85851" lon="5.51566">
        <ele>1757.91</ele>
        <time>2016-12-04T11:40:39Z</time>
      </trkpt>
      <trkpt lat="44.85853" lon="5.51553">
        <ele>1756.95</ele>
        <time>2016-12-04T11:40:47Z</time>
      </trkpt>
      <trkpt lat="44.85858" lon="5.51538">
        <ele>1755.99</ele>
        <time>2016-12-04T11:41:01Z</time>
      </trkpt>
      <trkpt lat="44.85858" lon="5.51535">
        <ele>1755.99</ele>
        <time>2016-12-04T11:41:08Z</time>
      </trkpt>
      <trkpt lat="44.85858" lon="5.51523">
        <ele>1755.02</ele>
        <time>2016-12-04T11:41:22Z</time>
      </trkpt>
      <trkpt lat="44.8586" lon="5.51514">
        <ele>1753.58</ele>
        <time>2016-12-04T11:41:27Z</time>
      </trkpt>
      <trkpt lat="44.85864" lon="5.51489">
        <ele>1751.18</ele>
        <time>2016-12-04T11:41:43Z</time>
      </trkpt>
      <trkpt lat="44.85869" lon="5.51473">
        <ele>1749.26</ele>
        <time>2016-12-04T11:41:55Z</time>
      </trkpt>
      <trkpt lat="44.85868" lon="5.51447">
        <ele>1746.37</ele>
        <time>2016-12-04T11:42:10Z</time>
      </trkpt>
      <trkpt lat="44.85867" lon="5.51436">
        <ele>1744.45</ele>
        <time>2016-12-04T11:42:18Z</time>
      </trkpt>
      <trkpt lat="44.85867" lon="5.51431">
        <ele>1743.97</ele>
        <time>2016-12-04T11:42:22Z</time>
      </trkpt>
      <trkpt lat="44.85867" lon="5.51423">
        <ele>1743.01</ele>
        <time>2016-12-04T11:42:27Z</time>
      </trkpt>
      <trkpt lat="44.85867" lon="5.51397">
        <ele>1740.12</ele>
        <time>2016-12-04T11:42:43Z</time>
      </trkpt>
      <trkpt lat="44.85868" lon="5.5139">
        <ele>1739.64</ele>
        <time>2016-12-04T11:42:47Z</time>
      </trkpt>
      <trkpt lat="44.85871" lon="5.51382">
        <ele>1738.2</ele>
        <time>2016-12-04T11:42:53Z</time>
      </trkpt>
      <trkpt lat="44.85877" lon="5.51361">
        <ele>1735.32</ele>
        <time>2016-12-04T11:43:07Z</time>
      </trkpt>
      <trkpt lat="44.85877" lon="5.51356">
        <ele>1734.84</ele>
        <time>2016-12-04T11:43:11Z</time>
      </trkpt>
      <trkpt lat="44.85879" lon="5.51346">
        <ele>1733.88</ele>
        <time>2016-12-04T11:43:23Z</time>
      </trkpt>
      <trkpt lat="44.85879" lon="5.51347">
        <ele>1733.88</ele>
        <time>2016-12-04T11:43:40Z</time>
      </trkpt>
      <trkpt lat="44.85881" lon="5.51331">
        <ele>1732.43</ele>
        <time>2016-12-04T11:43:54Z</time>
      </trkpt>
      <trkpt lat="44.85881" lon="5.51321">
        <ele>1731.47</ele>
        <time>2016-12-04T11:44:00Z</time>
      </trkpt>
      <trkpt lat="44.85885" lon="5.513">
        <ele>1729.07</ele>
        <time>2016-12-04T11:44:15Z</time>
      </trkpt>
      <trkpt lat="44.85891" lon="5.51283">
        <ele>1727.15</ele>
        <time>2016-12-04T11:44:29Z</time>
      </trkpt>
      <trkpt lat="44.8589" lon="5.51281">
        <ele>1727.15</ele>
        <time>2016-12-04T11:44:33Z</time>
      </trkpt>
      <trkpt lat="44.85891" lon="5.51279">
        <ele>1726.18</ele>
        <time>2016-12-04T11:44:50Z</time>
      </trkpt>
      <trkpt lat="44.85895" lon="5.51278">
        <ele>1726.18</ele>
        <time>2016-12-04T11:45:22Z</time>
      </trkpt>
      <trkpt lat="44.85894" lon="5.51275">
        <ele>1725.7</ele>
        <time>2016-12-04T11:45:35Z</time>
      </trkpt>
      <trkpt lat="44.85899" lon="5.51275">
        <ele>1725.7</ele>
        <time>2016-12-04T11:45:48Z</time>
      </trkpt>
      <trkpt lat="44.859" lon="5.51273">
        <ele>1725.7</ele>
        <time>2016-12-04T11:46:08Z</time>
      </trkpt>
      <trkpt lat="44.8591" lon="5.51265">
        <ele>1728.11</ele>
        <time>2016-12-04T11:46:22Z</time>
      </trkpt>
      <trkpt lat="44.85913" lon="5.51263">
        <ele>1729.55</ele>
        <time>2016-12-04T11:46:28Z</time>
      </trkpt>
      <trkpt lat="44.85924" lon="5.51265">
        <ele>1730.51</ele>
        <time>2016-12-04T11:46:41Z</time>
      </trkpt>
      <trkpt lat="44.85927" lon="5.51263">
        <ele>1730.99</ele>
        <time>2016-12-04T11:46:45Z</time>
      </trkpt>
      <trkpt lat="44.85936" lon="5.51259">
        <ele>1729.55</ele>
        <time>2016-12-04T11:46:57Z</time>
      </trkpt>
      <trkpt lat="44.85938" lon="5.5126">
        <ele>1729.55</ele>
        <time>2016-12-04T11:46:59Z</time>
      </trkpt>
      <trkpt lat="44.85955" lon="5.51261">
        <ele>1727.15</ele>
        <time>2016-12-04T11:47:15Z</time>
      </trkpt>
      <trkpt lat="44.85962" lon="5.5126">
        <ele>1726.18</ele>
        <time>2016-12-04T11:47:23Z</time>
      </trkpt>
      <trkpt lat="44.85973" lon="5.51259">
        <ele>1725.7</ele>
        <time>2016-12-04T11:47:34Z</time>
      </trkpt>
      <trkpt lat="44.85979" lon="5.51255">
        <ele>1726.67</ele>
        <time>2016-12-04T11:47:42Z</time>
      </trkpt>
      <trkpt lat="44.85983" lon="5.51256">
        <ele>1727.63</ele>
        <time>2016-12-04T11:47:47Z</time>
      </trkpt>
      <trkpt lat="44.8599" lon="5.51256">
        <ele>1727.63</ele>
        <time>2016-12-04T11:47:54Z</time>
      </trkpt>
      <trkpt lat="44.85997" lon="5.51255">
        <ele>1727.63</ele>
        <time>2016-12-04T11:48:01Z</time>
      </trkpt>
      <trkpt lat="44.86" lon="5.51253">
        <ele>1727.63</ele>
        <time>2016-12-04T11:48:03Z</time>
      </trkpt>
      <trkpt lat="44.86002" lon="5.51253">
        <ele>1727.63</ele>
        <time>2016-12-04T11:48:05Z</time>
      </trkpt>
      <trkpt lat="44.86008" lon="5.5125">
        <ele>1727.63</ele>
        <time>2016-12-04T11:48:11Z</time>
      </trkpt>
      <trkpt lat="44.86014" lon="5.51252">
        <ele>1728.11</ele>
        <time>2016-12-04T11:48:17Z</time>
      </trkpt>
      <trkpt lat="44.86018" lon="5.51249">
        <ele>1729.07</ele>
        <time>2016-12-04T11:48:22Z</time>
      </trkpt>
      <trkpt lat="44.86019" lon="5.51246">
        <ele>1729.07</ele>
        <time>2016-12-04T11:48:25Z</time>
      </trkpt>
      <trkpt lat="44.8603" lon="5.51247">
        <ele>1729.07</ele>
        <time>2016-12-04T11:48:35Z</time>
      </trkpt>
      <trkpt lat="44.86035" lon="5.51245">
        <ele>1729.07</ele>
        <time>2016-12-04T11:48:40Z</time>
      </trkpt>
      <trkpt lat="44.86037" lon="5.51241">
        <ele>1729.07</ele>
        <time>2016-12-04T11:48:44Z</time>
      </trkpt>
      <trkpt lat="44.86051" lon="5.51239">
        <ele>1729.07</ele>
        <time>2016-12-04T11:48:59Z</time>
      </trkpt>
      <trkpt lat="44.86066" lon="5.51241">
        <ele>1729.07</ele>
        <time>2016-12-04T11:49:12Z</time>
      </trkpt>
      <trkpt lat="44.8608" lon="5.51246">
        <ele>1729.07</ele>
        <time>2016-12-04T11:49:24Z</time>
      </trkpt>
      <trkpt lat="44.86083" lon="5.51246">
        <ele>1727.63</ele>
        <time>2016-12-04T11:49:27Z</time>
      </trkpt>
      <trkpt lat="44.86093" lon="5.5125">
        <ele>1726.67</ele>
        <time>2016-12-04T11:49:37Z</time>
      </trkpt>
      <trkpt lat="44.86098" lon="5.51249">
        <ele>1726.18</ele>
        <time>2016-12-04T11:49:42Z</time>
      </trkpt>
      <trkpt lat="44.86113" lon="5.51237">
        <ele>1725.22</ele>
        <time>2016-12-04T11:49:58Z</time>
      </trkpt>
      <trkpt lat="44.86125" lon="5.51234">
        <ele>1724.26</ele>
        <time>2016-12-04T11:50:11Z</time>
      </trkpt>
      <trkpt lat="44.86126" lon="5.51234">
        <ele>1724.26</ele>
        <time>2016-12-04T11:50:12Z</time>
      </trkpt>
      <trkpt lat="44.86143" lon="5.51236">
        <ele>1722.82</ele>
        <time>2016-12-04T11:50:28Z</time>
      </trkpt>
      <trkpt lat="44.86157" lon="5.51234">
        <ele>1722.34</ele>
        <time>2016-12-04T11:50:42Z</time>
      </trkpt>
      <trkpt lat="44.86172" lon="5.51224">
        <ele>1721.38</ele>
        <time>2016-12-04T11:50:56Z</time>
      </trkpt>
      <trkpt lat="44.86187" lon="5.5122">
        <ele>1721.38</ele>
        <time>2016-12-04T11:51:09Z</time>
      </trkpt>
      <trkpt lat="44.86192" lon="5.51221">
        <ele>1721.38</ele>
        <time>2016-12-04T11:51:14Z</time>
      </trkpt>
      <trkpt lat="44.86202" lon="5.51223">
        <ele>1721.38</ele>
        <time>2016-12-04T11:51:24Z</time>
      </trkpt>
      <trkpt lat="44.86214" lon="5.51219">
        <ele>1720.42</ele>
        <time>2016-12-04T11:51:35Z</time>
      </trkpt>
      <trkpt lat="44.86221" lon="5.5122">
        <ele>1719.94</ele>
        <time>2016-12-04T11:51:42Z</time>
      </trkpt>
      <trkpt lat="44.86225" lon="5.51219">
        <ele>1719.46</ele>
        <time>2016-12-04T11:51:46Z</time>
      </trkpt>
      <trkpt lat="44.86232" lon="5.51226">
        <ele>1718.01</ele>
        <time>2016-12-04T11:51:54Z</time>
      </trkpt>
      <trkpt lat="44.86241" lon="5.51229">
        <ele>1716.57</ele>
        <time>2016-12-04T11:52:03Z</time>
      </trkpt>
      <trkpt lat="44.86261" lon="5.51226">
        <ele>1714.17</ele>
        <time>2016-12-04T11:52:20Z</time>
      </trkpt>
      <trkpt lat="44.86263" lon="5.51224">
        <ele>1714.17</ele>
        <time>2016-12-04T11:52:23Z</time>
      </trkpt>
      <trkpt lat="44.86271" lon="5.51212">
        <ele>1712.73</ele>
        <time>2016-12-04T11:52:36Z</time>
      </trkpt>
      <trkpt lat="44.86277" lon="5.51209">
        <ele>1712.25</ele>
        <time>2016-12-04T11:52:43Z</time>
      </trkpt>
      <trkpt lat="44.86285" lon="5.51196">
        <ele>1710.8</ele>
        <time>2016-12-04T11:52:55Z</time>
      </trkpt>
      <trkpt lat="44.86286" lon="5.51196">
        <ele>1710.8</ele>
        <time>2016-12-04T11:52:56Z</time>
      </trkpt>
      <trkpt lat="44.86291" lon="5.51196">
        <ele>1710.8</ele>
        <time>2016-12-04T11:52:59Z</time>
      </trkpt>
      <trkpt lat="44.86295" lon="5.51202">
        <ele>1710.8</ele>
        <time>2016-12-04T11:53:05Z</time>
      </trkpt>
      <trkpt lat="44.863" lon="5.51202">
        <ele>1710.8</ele>
        <time>2016-12-04T11:53:09Z</time>
      </trkpt>
      <trkpt lat="44.86304" lon="5.51199">
        <ele>1710.8</ele>
        <time>2016-12-04T11:53:15Z</time>
      </trkpt>
      <trkpt lat="44.8632" lon="5.51193">
        <ele>1708.88</ele>
        <time>2016-12-04T11:53:31Z</time>
      </trkpt>
      <trkpt lat="44.86321" lon="5.51191">
        <ele>1708.4</ele>
        <time>2016-12-04T11:53:33Z</time>
      </trkpt>
      <trkpt lat="44.86325" lon="5.51189">
        <ele>1707.92</ele>
        <time>2016-12-04T11:53:37Z</time>
      </trkpt>
      <trkpt lat="44.86334" lon="5.51187">
        <ele>1707.44</ele>
        <time>2016-12-04T11:53:44Z</time>
      </trkpt>
      <trkpt lat="44.86335" lon="5.51186">
        <ele>1707.44</ele>
        <time>2016-12-04T11:53:46Z</time>
      </trkpt>
      <trkpt lat="44.86344" lon="5.51181">
        <ele>1706.48</ele>
        <time>2016-12-04T11:53:55Z</time>
      </trkpt>
      <trkpt lat="44.86353" lon="5.51177">
        <ele>1705.04</ele>
        <time>2016-12-04T11:54:07Z</time>
      </trkpt>
      <trkpt lat="44.86366" lon="5.51168">
        <ele>1702.63</ele>
        <time>2016-12-04T11:54:20Z</time>
      </trkpt>
      <trkpt lat="44.86378" lon="5.51154">
        <ele>1700.23</ele>
        <time>2016-12-04T11:54:36Z</time>
      </trkpt>
      <trkpt lat="44.86389" lon="5.51152">
        <ele>1698.79</ele>
        <time>2016-12-04T11:54:49Z</time>
      </trkpt>
      <trkpt lat="44.86404" lon="5.51141">
        <ele>1697.83</ele>
        <time>2016-12-04T11:55:03Z</time>
      </trkpt>
      <trkpt lat="44.86413" lon="5.51136">
        <ele>1697.83</ele>
        <time>2016-12-04T11:55:10Z</time>
      </trkpt>
      <trkpt lat="44.86418" lon="5.51133">
        <ele>1697.83</ele>
        <time>2016-12-04T11:55:15Z</time>
      </trkpt>
      <trkpt lat="44.86426" lon="5.51131">
        <ele>1697.83</ele>
        <time>2016-12-04T11:55:21Z</time>
      </trkpt>
      <trkpt lat="44.86428" lon="5.5113">
        <ele>1697.83</ele>
        <time>2016-12-04T11:55:23Z</time>
      </trkpt>
      <trkpt lat="44.86435" lon="5.51126">
        <ele>1697.83</ele>
        <time>2016-12-04T11:55:30Z</time>
      </trkpt>
      <trkpt lat="44.8644" lon="5.51123">
        <ele>1697.83</ele>
        <time>2016-12-04T11:55:35Z</time>
      </trkpt>
      <trkpt lat="44.86447" lon="5.51114">
        <ele>1695.9</ele>
        <time>2016-12-04T11:55:53Z</time>
      </trkpt>
      <trkpt lat="44.86448" lon="5.51114">
        <ele>1695.9</ele>
        <time>2016-12-04T11:55:54Z</time>
      </trkpt>
      <trkpt lat="44.8646" lon="5.51111">
        <ele>1695.9</ele>
        <time>2016-12-04T11:56:07Z</time>
      </trkpt>
      <trkpt lat="44.86463" lon="5.5111">
        <ele>1696.38</ele>
        <time>2016-12-04T11:56:10Z</time>
      </trkpt>
      <trkpt lat="44.86465" lon="5.51108">
        <ele>1696.38</ele>
        <time>2016-12-04T11:56:12Z</time>
      </trkpt>
      <trkpt lat="44.86471" lon="5.51104">
        <ele>1696.86</ele>
        <time>2016-12-04T11:56:19Z</time>
      </trkpt>
      <trkpt lat="44.86477" lon="5.51101">
        <ele>1696.86</ele>
        <time>2016-12-04T11:56:25Z</time>
      </trkpt>
      <trkpt lat="44.86483" lon="5.511">
        <ele>1698.31</ele>
        <time>2016-12-04T11:56:31Z</time>
      </trkpt>
      <trkpt lat="44.86491" lon="5.51101">
        <ele>1699.27</ele>
        <time>2016-12-04T11:56:42Z</time>
      </trkpt>
      <trkpt lat="44.86498" lon="5.5111">
        <ele>1700.71</ele>
        <time>2016-12-04T11:56:55Z</time>
      </trkpt>
      <trkpt lat="44.86508" lon="5.51118">
        <ele>1702.15</ele>
        <time>2016-12-04T11:57:07Z</time>
      </trkpt>
      <trkpt lat="44.86513" lon="5.51121">
        <ele>1702.15</ele>
        <time>2016-12-04T11:57:12Z</time>
      </trkpt>
      <trkpt lat="44.86518" lon="5.51126">
        <ele>1703.11</ele>
        <time>2016-12-04T11:57:19Z</time>
      </trkpt>
      <trkpt lat="44.86524" lon="5.51138">
        <ele>1703.11</ele>
        <time>2016-12-04T11:57:26Z</time>
      </trkpt>
      <trkpt lat="44.86529" lon="5.51144">
        <ele>1703.59</ele>
        <time>2016-12-04T11:57:32Z</time>
      </trkpt>
      <trkpt lat="44.86532" lon="5.51148">
        <ele>1703.59</ele>
        <time>2016-12-04T11:57:36Z</time>
      </trkpt>
      <trkpt lat="44.86537" lon="5.51156">
        <ele>1704.07</ele>
        <time>2016-12-04T11:57:44Z</time>
      </trkpt>
      <trkpt lat="44.8654" lon="5.51155">
        <ele>1704.07</ele>
        <time>2016-12-04T11:57:47Z</time>
      </trkpt>
      <trkpt lat="44.86544" lon="5.51155">
        <ele>1704.07</ele>
        <time>2016-12-04T11:57:51Z</time>
      </trkpt>
      <trkpt lat="44.86554" lon="5.51159">
        <ele>1702.63</ele>
        <time>2016-12-04T11:58:01Z</time>
      </trkpt>
      <trkpt lat="44.86558" lon="5.51161">
        <ele>1702.63</ele>
        <time>2016-12-04T11:58:06Z</time>
      </trkpt>
      <trkpt lat="44.8657" lon="5.51153">
        <ele>1701.19</ele>
        <time>2016-12-04T11:58:19Z</time>
      </trkpt>
      <trkpt lat="44.86576" lon="5.51152">
        <ele>1701.19</ele>
        <time>2016-12-04T11:58:33Z</time>
      </trkpt>
      <trkpt lat="44.8658" lon="5.51145">
        <ele>1701.19</ele>
        <time>2016-12-04T11:58:38Z</time>
      </trkpt>
      <trkpt lat="44.86587" lon="5.51144">
        <ele>1701.19</ele>
        <time>2016-12-04T11:58:44Z</time>
      </trkpt>
      <trkpt lat="44.86604" lon="5.51133">
        <ele>1701.19</ele>
        <time>2016-12-04T11:59:00Z</time>
      </trkpt>
      <trkpt lat="44.86611" lon="5.5113">
        <ele>1701.19</ele>
        <time>2016-12-04T11:59:06Z</time>
      </trkpt>
      <trkpt lat="44.86618" lon="5.51134">
        <ele>1701.19</ele>
        <time>2016-12-04T11:59:13Z</time>
      </trkpt>
      <trkpt lat="44.86622" lon="5.51134">
        <ele>1701.19</ele>
        <time>2016-12-04T11:59:16Z</time>
      </trkpt>
      <trkpt lat="44.86625" lon="5.51136">
        <ele>1701.19</ele>
        <time>2016-12-04T11:59:19Z</time>
      </trkpt>
      <trkpt lat="44.86645" lon="5.51139">
        <ele>1700.71</ele>
        <time>2016-12-04T11:59:35Z</time>
      </trkpt>
      <trkpt lat="44.86659" lon="5.51133">
        <ele>1700.71</ele>
        <time>2016-12-04T11:59:49Z</time>
      </trkpt>
      <trkpt lat="44.86672" lon="5.51127">
        <ele>1700.71</ele>
        <time>2016-12-04T12:00:02Z</time>
      </trkpt>
      <trkpt lat="44.86688" lon="5.51125">
        <ele>1700.71</ele>
        <time>2016-12-04T12:00:17Z</time>
      </trkpt>
      <trkpt lat="44.86705" lon="5.51112">
        <ele>1700.23</ele>
        <time>2016-12-04T12:00:33Z</time>
      </trkpt>
      <trkpt lat="44.86725" lon="5.51111">
        <ele>1700.23</ele>
        <time>2016-12-04T12:00:50Z</time>
      </trkpt>
      <trkpt lat="44.86742" lon="5.51115">
        <ele>1700.23</ele>
        <time>2016-12-04T12:01:04Z</time>
      </trkpt>
      <trkpt lat="44.86755" lon="5.51117">
        <ele>1700.23</ele>
        <time>2016-12-04T12:01:13Z</time>
      </trkpt>
      <trkpt lat="44.86773" lon="5.51122">
        <ele>1701.67</ele>
        <time>2016-12-04T12:01:28Z</time>
      </trkpt>
      <trkpt lat="44.86792" lon="5.51128">
        <ele>1701.67</ele>
        <time>2016-12-04T12:01:44Z</time>
      </trkpt>
      <trkpt lat="44.86794" lon="5.5113">
        <ele>1701.67</ele>
        <time>2016-12-04T12:01:47Z</time>
      </trkpt>
      <trkpt lat="44.86797" lon="5.51128">
        <ele>1701.67</ele>
        <time>2016-12-04T12:01:50Z</time>
      </trkpt>
      <trkpt lat="44.86806" lon="5.51127">
        <ele>1701.67</ele>
        <time>2016-12-04T12:01:57Z</time>
      </trkpt>
      <trkpt lat="44.8681" lon="5.51125">
        <ele>1701.67</ele>
        <time>2016-12-04T12:02:01Z</time>
      </trkpt>
      <trkpt lat="44.86815" lon="5.51124">
        <ele>1701.67</ele>
        <time>2016-12-04T12:02:05Z</time>
      </trkpt>
      <trkpt lat="44.86817" lon="5.51125">
        <ele>1701.67</ele>
        <time>2016-12-04T12:02:07Z</time>
      </trkpt>
      <trkpt lat="44.86835" lon="5.51119">
        <ele>1701.67</ele>
        <time>2016-12-04T12:02:23Z</time>
      </trkpt>
      <trkpt lat="44.86837" lon="5.51116">
        <ele>1700.23</ele>
        <time>2016-12-04T12:02:26Z</time>
      </trkpt>
      <trkpt lat="44.86841" lon="5.51114">
        <ele>1699.27</ele>
        <time>2016-12-04T12:02:30Z</time>
      </trkpt>
      <trkpt lat="44.86846" lon="5.51109">
        <ele>1698.79</ele>
        <time>2016-12-04T12:02:35Z</time>
      </trkpt>
      <trkpt lat="44.8685" lon="5.51108">
        <ele>1698.31</ele>
        <time>2016-12-04T12:02:38Z</time>
      </trkpt>
      <trkpt lat="44.86866" lon="5.51094">
        <ele>1696.86</ele>
        <time>2016-12-04T12:02:54Z</time>
      </trkpt>
      <trkpt lat="44.86874" lon="5.5109">
        <ele>1696.86</ele>
        <time>2016-12-04T12:03:01Z</time>
      </trkpt>
      <trkpt lat="44.86884" lon="5.51084">
        <ele>1696.38</ele>
        <time>2016-12-04T12:03:09Z</time>
      </trkpt>
      <trkpt lat="44.86892" lon="5.51078">
        <ele>1695.42</ele>
        <time>2016-12-04T12:03:16Z</time>
      </trkpt>
      <trkpt lat="44.86897" lon="5.51075">
        <ele>1694.94</ele>
        <time>2016-12-04T12:03:21Z</time>
      </trkpt>
      <trkpt lat="44.86904" lon="5.51068">
        <ele>1693.98</ele>
        <time>2016-12-04T12:03:29Z</time>
      </trkpt>
      <trkpt lat="44.86909" lon="5.51064">
        <ele>1693.98</ele>
        <time>2016-12-04T12:03:34Z</time>
      </trkpt>
      <trkpt lat="44.86911" lon="5.51061">
        <ele>1693.5</ele>
        <time>2016-12-04T12:03:37Z</time>
      </trkpt>
      <trkpt lat="44.8693" lon="5.51055">
        <ele>1692.06</ele>
        <time>2016-12-04T12:03:52Z</time>
      </trkpt>
      <trkpt lat="44.86949" lon="5.5105">
        <ele>1690.62</ele>
        <time>2016-12-04T12:04:07Z</time>
      </trkpt>
      <trkpt lat="44.86964" lon="5.5104">
        <ele>1689.17</ele>
        <time>2016-12-04T12:04:21Z</time>
      </trkpt>
      <trkpt lat="44.86967" lon="5.51036">
        <ele>1688.69</ele>
        <time>2016-12-04T12:04:25Z</time>
      </trkpt>
      <trkpt lat="44.86983" lon="5.51017">
        <ele>1688.69</ele>
        <time>2016-12-04T12:04:42Z</time>
      </trkpt>
      <trkpt lat="44.86995" lon="5.51">
        <ele>1688.69</ele>
        <time>2016-12-04T12:04:56Z</time>
      </trkpt>
      <trkpt lat="44.86999" lon="5.50994">
        <ele>1688.69</ele>
        <time>2016-12-04T12:05:01Z</time>
      </trkpt>
      <trkpt lat="44.87005" lon="5.50988">
        <ele>1688.69</ele>
        <time>2016-12-04T12:05:07Z</time>
      </trkpt>
      <trkpt lat="44.87018" lon="5.50974">
        <ele>1687.73</ele>
        <time>2016-12-04T12:05:21Z</time>
      </trkpt>
      <trkpt lat="44.87035" lon="5.50957">
        <ele>1686.29</ele>
        <time>2016-12-04T12:05:38Z</time>
      </trkpt>
      <trkpt lat="44.87049" lon="5.50942">
        <ele>1686.29</ele>
        <time>2016-12-04T12:05:52Z</time>
      </trkpt>
      <trkpt lat="44.87059" lon="5.50933">
        <ele>1684.37</ele>
        <time>2016-12-04T12:06:03Z</time>
      </trkpt>
      <trkpt lat="44.87064" lon="5.50928">
        <ele>1683.89</ele>
        <time>2016-12-04T12:06:08Z</time>
      </trkpt>
      <trkpt lat="44.87076" lon="5.50909">
        <ele>1681.96</ele>
        <time>2016-12-04T12:06:23Z</time>
      </trkpt>
      <trkpt lat="44.87089" lon="5.50893">
        <ele>1682.44</ele>
        <time>2016-12-04T12:06:38Z</time>
      </trkpt>
      <trkpt lat="44.87092" lon="5.5089">
        <ele>1683.89</ele>
        <time>2016-12-04T12:06:41Z</time>
      </trkpt>
      <trkpt lat="44.87106" lon="5.50881">
        <ele>1683.89</ele>
        <time>2016-12-04T12:06:55Z</time>
      </trkpt>
      <trkpt lat="44.87114" lon="5.50881">
        <ele>1683.89</ele>
        <time>2016-12-04T12:07:02Z</time>
      </trkpt>
      <trkpt lat="44.87121" lon="5.50884">
        <ele>1683.89</ele>
        <time>2016-12-04T12:07:08Z</time>
      </trkpt>
      <trkpt lat="44.87126" lon="5.5089">
        <ele>1684.85</ele>
        <time>2016-12-04T12:07:22Z</time>
      </trkpt>
      <trkpt lat="44.87128" lon="5.5089">
        <ele>1684.85</ele>
        <time>2016-12-04T12:07:37Z</time>
      </trkpt>
      <trkpt lat="44.87127" lon="5.50891">
        <ele>1684.37</ele>
        <time>2016-12-04T12:08:03Z</time>
      </trkpt>
      <trkpt lat="44.8713" lon="5.50891">
        <ele>1683.89</ele>
        <time>2016-12-04T12:08:23Z</time>
      </trkpt>
      <trkpt lat="44.8713" lon="5.50891">
        <ele>1685.33</ele>
        <time>2016-12-04T12:08:25Z</time>
      </trkpt>
      <trkpt lat="44.8713" lon="5.50894">
        <ele>1685.33</ele>
        <time>2016-12-04T12:08:41Z</time>
      </trkpt>
      <trkpt lat="44.8713" lon="5.50893">
        <ele>1685.33</ele>
        <time>2016-12-04T12:09:05Z</time>
      </trkpt>
      <trkpt lat="44.87131" lon="5.50896">
        <ele>1685.33</ele>
        <time>2016-12-04T12:09:42Z</time>
      </trkpt>
      <trkpt lat="44.87129" lon="5.50892">
        <ele>1683.89</ele>
        <time>2016-12-04T12:10:00Z</time>
      </trkpt>
      <trkpt lat="44.87127" lon="5.50876">
        <ele>1682.93</ele>
        <time>2016-12-04T12:10:15Z</time>
      </trkpt>
      <trkpt lat="44.87125" lon="5.50863">
        <ele>1680.52</ele>
        <time>2016-12-04T12:10:26Z</time>
      </trkpt>
      <trkpt lat="44.87126" lon="5.50862">
        <ele>1681.96</ele>
        <time>2016-12-04T12:10:28Z</time>
      </trkpt>
      <trkpt lat="44.87126" lon="5.50856">
        <ele>1680.52</ele>
        <time>2016-12-04T12:10:32Z</time>
      </trkpt>
      <trkpt lat="44.87127" lon="5.50841">
        <ele>1679.56</ele>
        <time>2016-12-04T12:10:41Z</time>
      </trkpt>
      <trkpt lat="44.87132" lon="5.50823">
        <ele>1677.16</ele>
        <time>2016-12-04T12:10:54Z</time>
      </trkpt>
      <trkpt lat="44.87134" lon="5.50816">
        <ele>1677.16</ele>
        <time>2016-12-04T12:10:59Z</time>
      </trkpt>
      <trkpt lat="44.8714" lon="5.50803">
        <ele>1675.72</ele>
        <time>2016-12-04T12:11:08Z</time>
      </trkpt>
      <trkpt lat="44.87143" lon="5.50796">
        <ele>1674.75</ele>
        <time>2016-12-04T12:11:23Z</time>
      </trkpt>
      <trkpt lat="44.87145" lon="5.50796">
        <ele>1674.27</ele>
        <time>2016-12-04T12:11:45Z</time>
      </trkpt>
      <trkpt lat="44.87145" lon="5.50794">
        <ele>1674.27</ele>
        <time>2016-12-04T12:11:53Z</time>
      </trkpt>
      <trkpt lat="44.87142" lon="5.50786">
        <ele>1673.79</ele>
        <time>2016-12-04T12:12:04Z</time>
      </trkpt>
      <trkpt lat="44.87141" lon="5.50784">
        <ele>1673.79</ele>
        <time>2016-12-04T12:12:38Z</time>
      </trkpt>
      <trkpt lat="44.87142" lon="5.50786">
        <ele>1674.27</ele>
        <time>2016-12-04T12:13:01Z</time>
      </trkpt>
      <trkpt lat="44.87143" lon="5.50783">
        <ele>1673.31</ele>
        <time>2016-12-04T12:13:25Z</time>
      </trkpt>
      <trkpt lat="44.87147" lon="5.50785">
        <ele>1673.31</ele>
        <time>2016-12-04T12:13:32Z</time>
      </trkpt>
      <trkpt lat="44.87151" lon="5.50786">
        <ele>1674.27</ele>
        <time>2016-12-04T12:13:36Z</time>
      </trkpt>
      <trkpt lat="44.87164" lon="5.50788">
        <ele>1674.75</ele>
        <time>2016-12-04T12:13:50Z</time>
      </trkpt>
      <trkpt lat="44.87165" lon="5.50789">
        <ele>1674.75</ele>
        <time>2016-12-04T12:13:51Z</time>
      </trkpt>
      <trkpt lat="44.87167" lon="5.50786">
        <ele>1675.23</ele>
        <time>2016-12-04T12:13:55Z</time>
      </trkpt>
      <trkpt lat="44.87177" lon="5.50783">
        <ele>1677.64</ele>
        <time>2016-12-04T12:14:10Z</time>
      </trkpt>
      <trkpt lat="44.8718" lon="5.50783">
        <ele>1678.12</ele>
        <time>2016-12-04T12:14:14Z</time>
      </trkpt>
      <trkpt lat="44.87188" lon="5.50779">
        <ele>1678.12</ele>
        <time>2016-12-04T12:14:22Z</time>
      </trkpt>
      <trkpt lat="44.87194" lon="5.50782">
        <ele>1677.16</ele>
        <time>2016-12-04T12:14:28Z</time>
      </trkpt>
      <trkpt lat="44.872" lon="5.50784">
        <ele>1676.68</ele>
        <time>2016-12-04T12:14:34Z</time>
      </trkpt>
      <trkpt lat="44.8721" lon="5.50782">
        <ele>1677.64</ele>
        <time>2016-12-04T12:14:46Z</time>
      </trkpt>
      <trkpt lat="44.8722" lon="5.50781">
        <ele>1678.12</ele>
        <time>2016-12-04T12:14:56Z</time>
      </trkpt>
      <trkpt lat="44.87239" lon="5.50782">
        <ele>1678.12</ele>
        <time>2016-12-04T12:15:12Z</time>
      </trkpt>
      <trkpt lat="44.87242" lon="5.5078">
        <ele>1678.12</ele>
        <time>2016-12-04T12:15:15Z</time>
      </trkpt>
      <trkpt lat="44.87246" lon="5.50778">
        <ele>1678.12</ele>
        <time>2016-12-04T12:15:19Z</time>
      </trkpt>
      <trkpt lat="44.87251" lon="5.50774">
        <ele>1678.12</ele>
        <time>2016-12-04T12:15:25Z</time>
      </trkpt>
      <trkpt lat="44.87262" lon="5.50773">
        <ele>1679.56</ele>
        <time>2016-12-04T12:15:37Z</time>
      </trkpt>
      <trkpt lat="44.87275" lon="5.50782">
        <ele>1681.48</ele>
        <time>2016-12-04T12:15:51Z</time>
      </trkpt>
      <trkpt lat="44.87276" lon="5.50783">
        <ele>1681.48</ele>
        <time>2016-12-04T12:15:52Z</time>
      </trkpt>
      <trkpt lat="44.87277" lon="5.50787">
        <ele>1681.48</ele>
        <time>2016-12-04T12:15:55Z</time>
      </trkpt>
      <trkpt lat="44.87293" lon="5.50797">
        <ele>1681.48</ele>
        <time>2016-12-04T12:16:11Z</time>
      </trkpt>
      <trkpt lat="44.87303" lon="5.50807">
        <ele>1681.48</ele>
        <time>2016-12-04T12:16:23Z</time>
      </trkpt>
      <trkpt lat="44.87306" lon="5.50813">
        <ele>1681.48</ele>
        <time>2016-12-04T12:16:27Z</time>
      </trkpt>
      <trkpt lat="44.8732" lon="5.50825">
        <ele>1681.48</ele>
        <time>2016-12-04T12:16:41Z</time>
      </trkpt>
      <trkpt lat="44.87323" lon="5.50824">
        <ele>1681.48</ele>
        <time>2016-12-04T12:16:45Z</time>
      </trkpt>
      <trkpt lat="44.87331" lon="5.50818">
        <ele>1682.44</ele>
        <time>2016-12-04T12:16:59Z</time>
      </trkpt>
      <trkpt lat="44.87332" lon="5.50816">
        <ele>1682.44</ele>
        <time>2016-12-04T12:17:01Z</time>
      </trkpt>
      <trkpt lat="44.87338" lon="5.50809">
        <ele>1684.37</ele>
        <time>2016-12-04T12:17:15Z</time>
      </trkpt>
      <trkpt lat="44.87346" lon="5.50812">
        <ele>1685.81</ele>
        <time>2016-12-04T12:17:27Z</time>
      </trkpt>
      <trkpt lat="44.87354" lon="5.50823">
        <ele>1687.25</ele>
        <time>2016-12-04T12:17:40Z</time>
      </trkpt>
      <trkpt lat="44.87366" lon="5.50825">
        <ele>1688.69</ele>
        <time>2016-12-04T12:17:54Z</time>
      </trkpt>
      <trkpt lat="44.87367" lon="5.50825">
        <ele>1688.69</ele>
        <time>2016-12-04T12:17:55Z</time>
      </trkpt>
      <trkpt lat="44.87373" lon="5.50827">
        <ele>1689.17</ele>
        <time>2016-12-04T12:18:01Z</time>
      </trkpt>
      <trkpt lat="44.87381" lon="5.50839">
        <ele>1690.14</ele>
        <time>2016-12-04T12:18:15Z</time>
      </trkpt>
      <trkpt lat="44.87382" lon="5.50837">
        <ele>1690.14</ele>
        <time>2016-12-04T12:18:41Z</time>
      </trkpt>
      <trkpt lat="44.87384" lon="5.50836">
        <ele>1689.65</ele>
        <time>2016-12-04T12:18:59Z</time>
      </trkpt>
      <trkpt lat="44.87384" lon="5.50842">
        <ele>1689.65</ele>
        <time>2016-12-04T12:19:18Z</time>
      </trkpt>
      <trkpt lat="44.87385" lon="5.50842">
        <ele>1689.65</ele>
        <time>2016-12-04T12:19:44Z</time>
      </trkpt>
      <trkpt lat="44.87387" lon="5.50845">
        <ele>1691.1</ele>
        <time>2016-12-04T12:19:50Z</time>
      </trkpt>
      <trkpt lat="44.8739" lon="5.5085">
        <ele>1691.58</ele>
        <time>2016-12-04T12:20:02Z</time>
      </trkpt>
      <trkpt lat="44.87398" lon="5.50856">
        <ele>1692.06</ele>
        <time>2016-12-04T12:20:11Z</time>
      </trkpt>
      <trkpt lat="44.87412" lon="5.50869">
        <ele>1693.5</ele>
        <time>2016-12-04T12:20:28Z</time>
      </trkpt>
      <trkpt lat="44.87425" lon="5.50886">
        <ele>1695.9</ele>
        <time>2016-12-04T12:20:44Z</time>
      </trkpt>
      <trkpt lat="44.87435" lon="5.50901">
        <ele>1696.86</ele>
        <time>2016-12-04T12:20:58Z</time>
      </trkpt>
      <trkpt lat="44.87446" lon="5.50912">
        <ele>1697.83</ele>
        <time>2016-12-04T12:21:12Z</time>
      </trkpt>
      <trkpt lat="44.87449" lon="5.50914">
        <ele>1697.83</ele>
        <time>2016-12-04T12:21:16Z</time>
      </trkpt>
      <trkpt lat="44.87452" lon="5.50915">
        <ele>1697.83</ele>
        <time>2016-12-04T12:21:19Z</time>
      </trkpt>
      <trkpt lat="44.87461" lon="5.50916">
        <ele>1697.83</ele>
        <time>2016-12-04T12:21:27Z</time>
      </trkpt>
      <trkpt lat="44.87474" lon="5.50926">
        <ele>1696.86</ele>
        <time>2016-12-04T12:21:41Z</time>
      </trkpt>
      <trkpt lat="44.87484" lon="5.50938">
        <ele>1698.31</ele>
        <time>2016-12-04T12:21:54Z</time>
      </trkpt>
      <trkpt lat="44.87497" lon="5.50945">
        <ele>1698.79</ele>
        <time>2016-12-04T12:22:10Z</time>
      </trkpt>
      <trkpt lat="44.87499" lon="5.50965">
        <ele>1701.19</ele>
        <time>2016-12-04T12:22:25Z</time>
      </trkpt>
      <trkpt lat="44.875" lon="5.50978">
        <ele>1704.55</ele>
        <time>2016-12-04T12:22:40Z</time>
      </trkpt>
      <trkpt lat="44.8751" lon="5.50987">
        <ele>1706.48</ele>
        <time>2016-12-04T12:22:55Z</time>
      </trkpt>
      <trkpt lat="44.87521" lon="5.5099">
        <ele>1708.4</ele>
        <time>2016-12-04T12:23:10Z</time>
      </trkpt>
      <trkpt lat="44.87535" lon="5.51004">
        <ele>1709.36</ele>
        <time>2016-12-04T12:23:24Z</time>
      </trkpt>
      <trkpt lat="44.87539" lon="5.51021">
        <ele>1711.28</ele>
        <time>2016-12-04T12:23:40Z</time>
      </trkpt>
      <trkpt lat="44.87545" lon="5.51044">
        <ele>1713.69</ele>
        <time>2016-12-04T12:23:56Z</time>
      </trkpt>
      <trkpt lat="44.87552" lon="5.51054">
        <ele>1713.69</ele>
        <time>2016-12-04T12:24:07Z</time>
      </trkpt>
      <trkpt lat="44.87553" lon="5.51057">
        <ele>1713.69</ele>
        <time>2016-12-04T12:24:09Z</time>
      </trkpt>
      <trkpt lat="44.87561" lon="5.51074">
        <ele>1714.65</ele>
        <time>2016-12-04T12:24:24Z</time>
      </trkpt>
      <trkpt lat="44.87566" lon="5.51097">
        <ele>1714.65</ele>
        <time>2016-12-04T12:24:37Z</time>
      </trkpt>
      <trkpt lat="44.87572" lon="5.51103">
        <ele>1715.13</ele>
        <time>2016-12-04T12:24:46Z</time>
      </trkpt>
      <trkpt lat="44.87584" lon="5.51107">
        <ele>1716.09</ele>
        <time>2016-12-04T12:25:01Z</time>
      </trkpt>
      <trkpt lat="44.87591" lon="5.51129">
        <ele>1716.09</ele>
        <time>2016-12-04T12:25:14Z</time>
      </trkpt>
      <trkpt lat="44.87597" lon="5.51148">
        <ele>1717.53</ele>
        <time>2016-12-04T12:25:30Z</time>
      </trkpt>
      <trkpt lat="44.87607" lon="5.51153">
        <ele>1719.94</ele>
        <time>2016-12-04T12:25:44Z</time>
      </trkpt>
      <trkpt lat="44.87615" lon="5.5116">
        <ele>1721.38</ele>
        <time>2016-12-04T12:25:58Z</time>
      </trkpt>
      <trkpt lat="44.87622" lon="5.51173">
        <ele>1724.26</ele>
        <time>2016-12-04T12:26:13Z</time>
      </trkpt>
      <trkpt lat="44.87629" lon="5.51184">
        <ele>1726.18</ele>
        <time>2016-12-04T12:26:27Z</time>
      </trkpt>
      <trkpt lat="44.87636" lon="5.51193">
        <ele>1729.07</ele>
        <time>2016-12-04T12:26:40Z</time>
      </trkpt>
      <trkpt lat="44.8764" lon="5.51197">
        <ele>1729.07</ele>
        <time>2016-12-04T12:26:44Z</time>
      </trkpt>
      <trkpt lat="44.87651" lon="5.51197">
        <ele>1731.47</ele>
        <time>2016-12-04T12:26:59Z</time>
      </trkpt>
      <trkpt lat="44.87658" lon="5.51198">
        <ele>1731.95</ele>
        <time>2016-12-04T12:27:09Z</time>
      </trkpt>
      <trkpt lat="44.87672" lon="5.51206">
        <ele>1733.39</ele>
        <time>2016-12-04T12:27:26Z</time>
      </trkpt>
      <trkpt lat="44.87678" lon="5.51208">
        <ele>1734.36</ele>
        <time>2016-12-04T12:27:33Z</time>
      </trkpt>
      <trkpt lat="44.87684" lon="5.51209">
        <ele>1735.32</ele>
        <time>2016-12-04T12:27:41Z</time>
      </trkpt>
      <trkpt lat="44.87693" lon="5.51213">
        <ele>1738.2</ele>
        <time>2016-12-04T12:27:56Z</time>
      </trkpt>
      <trkpt lat="44.87701" lon="5.51214">
        <ele>1740.12</ele>
        <time>2016-12-04T12:28:08Z</time>
      </trkpt>
      <trkpt lat="44.87712" lon="5.5122">
        <ele>1743.01</ele>
        <time>2016-12-04T12:28:22Z</time>
      </trkpt>
      <trkpt lat="44.87713" lon="5.51231">
        <ele>1745.41</ele>
        <time>2016-12-04T12:28:37Z</time>
      </trkpt>
      <trkpt lat="44.8772" lon="5.51241">
        <ele>1748.78</ele>
        <time>2016-12-04T12:28:52Z</time>
      </trkpt>
      <trkpt lat="44.87727" lon="5.51245">
        <ele>1750.7</ele>
        <time>2016-12-04T12:29:03Z</time>
      </trkpt>
      <trkpt lat="44.87733" lon="5.51247">
        <ele>1752.14</ele>
        <time>2016-12-04T12:29:12Z</time>
      </trkpt>
      <trkpt lat="44.8774" lon="5.5124">
        <ele>1753.1</ele>
        <time>2016-12-04T12:29:25Z</time>
      </trkpt>
      <trkpt lat="44.87744" lon="5.5124">
        <ele>1753.58</ele>
        <time>2016-12-04T12:29:28Z</time>
      </trkpt>
      <trkpt lat="44.87759" lon="5.51246">
        <ele>1755.5</ele>
        <time>2016-12-04T12:29:47Z</time>
      </trkpt>
      <trkpt lat="44.87764" lon="5.51255">
        <ele>1757.43</ele>
        <time>2016-12-04T12:30:00Z</time>
      </trkpt>
      <trkpt lat="44.87761" lon="5.51269">
        <ele>1759.83</ele>
        <time>2016-12-04T12:30:14Z</time>
      </trkpt>
      <trkpt lat="44.87762" lon="5.51276">
        <ele>1760.79</ele>
        <time>2016-12-04T12:30:25Z</time>
      </trkpt>
      <trkpt lat="44.87763" lon="5.51274">
        <ele>1760.79</ele>
        <time>2016-12-04T12:30:27Z</time>
      </trkpt>
      <trkpt lat="44.87771" lon="5.51276">
        <ele>1763.68</ele>
        <time>2016-12-04T12:30:41Z</time>
      </trkpt>
      <trkpt lat="44.87779" lon="5.51284">
        <ele>1766.08</ele>
        <time>2016-12-04T12:30:54Z</time>
      </trkpt>
      <trkpt lat="44.87789" lon="5.51297">
        <ele>1767.52</ele>
        <time>2016-12-04T12:31:09Z</time>
      </trkpt>
      <trkpt lat="44.878" lon="5.51304">
        <ele>1769.44</ele>
        <time>2016-12-04T12:31:24Z</time>
      </trkpt>
      <trkpt lat="44.87808" lon="5.51315">
        <ele>1771.85</ele>
        <time>2016-12-04T12:31:38Z</time>
      </trkpt>
      <trkpt lat="44.87815" lon="5.51332">
        <ele>1774.25</ele>
        <time>2016-12-04T12:31:53Z</time>
      </trkpt>
      <trkpt lat="44.87823" lon="5.51339">
        <ele>1775.69</ele>
        <time>2016-12-04T12:32:07Z</time>
      </trkpt>
      <trkpt lat="44.87833" lon="5.51352">
        <ele>1778.1</ele>
        <time>2016-12-04T12:32:22Z</time>
      </trkpt>
      <trkpt lat="44.87844" lon="5.5136">
        <ele>1778.58</ele>
        <time>2016-12-04T12:32:35Z</time>
      </trkpt>
      <trkpt lat="44.87856" lon="5.51364">
        <ele>1780.02</ele>
        <time>2016-12-04T12:32:50Z</time>
      </trkpt>
      <trkpt lat="44.87861" lon="5.51365">
        <ele>1780.02</ele>
        <time>2016-12-04T12:32:56Z</time>
      </trkpt>
      <trkpt lat="44.87874" lon="5.51376">
        <ele>1780.02</ele>
        <time>2016-12-04T12:33:12Z</time>
      </trkpt>
      <trkpt lat="44.87877" lon="5.5138">
        <ele>1780.02</ele>
        <time>2016-12-04T12:33:16Z</time>
      </trkpt>
      <trkpt lat="44.8788" lon="5.51383">
        <ele>1780.02</ele>
        <time>2016-12-04T12:33:19Z</time>
      </trkpt>
      <trkpt lat="44.87895" lon="5.51391">
        <ele>1780.5</ele>
        <time>2016-12-04T12:33:34Z</time>
      </trkpt>
      <trkpt lat="44.87913" lon="5.514">
        <ele>1781.46</ele>
        <time>2016-12-04T12:33:51Z</time>
      </trkpt>
      <trkpt lat="44.87925" lon="5.51405">
        <ele>1781.46</ele>
        <time>2016-12-04T12:34:02Z</time>
      </trkpt>
      <trkpt lat="44.8794" lon="5.51421">
        <ele>1782.42</ele>
        <time>2016-12-04T12:34:16Z</time>
      </trkpt>
      <trkpt lat="44.87953" lon="5.5143">
        <ele>1783.86</ele>
        <time>2016-12-04T12:34:31Z</time>
      </trkpt>
      <trkpt lat="44.87965" lon="5.51437">
        <ele>1783.86</ele>
        <time>2016-12-04T12:34:44Z</time>
      </trkpt>
      <trkpt lat="44.87976" lon="5.51452">
        <ele>1784.82</ele>
        <time>2016-12-04T12:34:59Z</time>
      </trkpt>
      <trkpt lat="44.87986" lon="5.51466">
        <ele>1786.75</ele>
        <time>2016-12-04T12:35:13Z</time>
      </trkpt>
      <trkpt lat="44.87995" lon="5.51476">
        <ele>1788.67</ele>
        <time>2016-12-04T12:35:27Z</time>
      </trkpt>
      <trkpt lat="44.88005" lon="5.51484">
        <ele>1789.63</ele>
        <time>2016-12-04T12:35:40Z</time>
      </trkpt>
      <trkpt lat="44.88014" lon="5.51485">
        <ele>1788.19</ele>
        <time>2016-12-04T12:35:48Z</time>
      </trkpt>
      <trkpt lat="44.8802" lon="5.51497">
        <ele>1788.19</ele>
        <time>2016-12-04T12:35:57Z</time>
      </trkpt>
      <trkpt lat="44.88024" lon="5.51508">
        <ele>1789.63</ele>
        <time>2016-12-04T12:36:04Z</time>
      </trkpt>
      <trkpt lat="44.88029" lon="5.51518">
        <ele>1789.63</ele>
        <time>2016-12-04T12:36:12Z</time>
      </trkpt>
      <trkpt lat="44.88032" lon="5.51521">
        <ele>1790.11</ele>
        <time>2016-12-04T12:36:15Z</time>
      </trkpt>
      <trkpt lat="44.88035" lon="5.51523">
        <ele>1790.11</ele>
        <time>2016-12-04T12:36:19Z</time>
      </trkpt>
      <trkpt lat="44.88042" lon="5.51535">
        <ele>1790.11</ele>
        <time>2016-12-04T12:36:29Z</time>
      </trkpt>
      <trkpt lat="44.88049" lon="5.51558">
        <ele>1790.11</ele>
        <time>2016-12-04T12:36:44Z</time>
      </trkpt>
      <trkpt lat="44.88053" lon="5.51565">
        <ele>1790.59</ele>
        <time>2016-12-04T12:36:50Z</time>
      </trkpt>
      <trkpt lat="44.88054" lon="5.51567">
        <ele>1790.59</ele>
        <time>2016-12-04T12:36:52Z</time>
      </trkpt>
      <trkpt lat="44.88058" lon="5.51575">
        <ele>1791.07</ele>
        <time>2016-12-04T12:36:58Z</time>
      </trkpt>
      <trkpt lat="44.88066" lon="5.51584">
        <ele>1791.07</ele>
        <time>2016-12-04T12:37:08Z</time>
      </trkpt>
      <trkpt lat="44.88073" lon="5.51604">
        <ele>1791.07</ele>
        <time>2016-12-04T12:37:22Z</time>
      </trkpt>
      <trkpt lat="44.88076" lon="5.51608">
        <ele>1791.07</ele>
        <time>2016-12-04T12:37:25Z</time>
      </trkpt>
      <trkpt lat="44.88084" lon="5.51622">
        <ele>1792.03</ele>
        <time>2016-12-04T12:37:37Z</time>
      </trkpt>
      <trkpt lat="44.88085" lon="5.51624">
        <ele>1792.03</ele>
        <time>2016-12-04T12:37:39Z</time>
      </trkpt>
      <trkpt lat="44.88086" lon="5.51627">
        <ele>1792.03</ele>
        <time>2016-12-04T12:37:41Z</time>
      </trkpt>
      <trkpt lat="44.88088" lon="5.51629">
        <ele>1792.52</ele>
        <time>2016-12-04T12:37:43Z</time>
      </trkpt>
      <trkpt lat="44.88088" lon="5.51631">
        <ele>1793</ele>
        <time>2016-12-04T12:37:45Z</time>
      </trkpt>
      <trkpt lat="44.88094" lon="5.51638">
        <ele>1793.48</ele>
        <time>2016-12-04T12:37:52Z</time>
      </trkpt>
      <trkpt lat="44.88095" lon="5.51642">
        <ele>1793.48</ele>
        <time>2016-12-04T12:37:55Z</time>
      </trkpt>
      <trkpt lat="44.88104" lon="5.51652">
        <ele>1793.96</ele>
        <time>2016-12-04T12:38:10Z</time>
      </trkpt>
      <trkpt lat="44.88104" lon="5.51655">
        <ele>1794.44</ele>
        <time>2016-12-04T12:38:12Z</time>
      </trkpt>
      <trkpt lat="44.88105" lon="5.51666">
        <ele>1793.96</ele>
        <time>2016-12-04T12:38:23Z</time>
      </trkpt>
      <trkpt lat="44.88109" lon="5.51674">
        <ele>1792.52</ele>
        <time>2016-12-04T12:38:30Z</time>
      </trkpt>
      <trkpt lat="44.88115" lon="5.51681">
        <ele>1791.55</ele>
        <time>2016-12-04T12:38:39Z</time>
      </trkpt>
      <trkpt lat="44.88126" lon="5.51683">
        <ele>1788.19</ele>
        <time>2016-12-04T12:38:54Z</time>
      </trkpt>
      <trkpt lat="44.88131" lon="5.51687">
        <ele>1787.71</ele>
        <time>2016-12-04T12:38:59Z</time>
      </trkpt>
      <trkpt lat="44.88137" lon="5.51687">
        <ele>1787.23</ele>
        <time>2016-12-04T12:39:06Z</time>
      </trkpt>
      <trkpt lat="44.88153" lon="5.51692">
        <ele>1786.75</ele>
        <time>2016-12-04T12:39:20Z</time>
      </trkpt>
      <trkpt lat="44.88158" lon="5.51695">
        <ele>1786.75</ele>
        <time>2016-12-04T12:39:25Z</time>
      </trkpt>
      <trkpt lat="44.8816" lon="5.51695">
        <ele>1786.75</ele>
        <time>2016-12-04T12:39:27Z</time>
      </trkpt>
      <trkpt lat="44.88168" lon="5.51699">
        <ele>1786.75</ele>
        <time>2016-12-04T12:39:42Z</time>
      </trkpt>
      <trkpt lat="44.88172" lon="5.51697">
        <ele>1787.71</ele>
        <time>2016-12-04T12:39:54Z</time>
      </trkpt>
      <trkpt lat="44.88171" lon="5.51698">
        <ele>1788.19</ele>
        <time>2016-12-04T12:40:19Z</time>
      </trkpt>
      <trkpt lat="44.88174" lon="5.51698">
        <ele>1786.27</ele>
        <time>2016-12-04T12:40:54Z</time>
      </trkpt>
      <trkpt lat="44.88173" lon="5.51706">
        <ele>1786.27</ele>
        <time>2016-12-04T12:41:25Z</time>
      </trkpt>
      <trkpt lat="44.88166" lon="5.517">
        <ele>1785.79</ele>
        <time>2016-12-04T12:41:48Z</time>
      </trkpt>
      <trkpt lat="44.88165" lon="5.517">
        <ele>1787.23</ele>
        <time>2016-12-04T12:41:54Z</time>
      </trkpt>
      <trkpt lat="44.88165" lon="5.51699">
        <ele>1786.27</ele>
        <time>2016-12-04T12:42:27Z</time>
      </trkpt>
      <trkpt lat="44.88157" lon="5.51704">
        <ele>1785.79</ele>
        <time>2016-12-04T12:42:54Z</time>
      </trkpt>
      <trkpt lat="44.88163" lon="5.51703">
        <ele>1785.31</ele>
        <time>2016-12-04T12:43:15Z</time>
      </trkpt>
      <trkpt lat="44.88164" lon="5.51703">
        <ele>1785.31</ele>
        <time>2016-12-04T12:43:38Z</time>
      </trkpt>
      <trkpt lat="44.88165" lon="5.51697">
        <ele>1785.31</ele>
        <time>2016-12-04T12:43:56Z</time>
      </trkpt>
      <trkpt lat="44.88166" lon="5.517">
        <ele>1784.82</ele>
        <time>2016-12-04T12:44:22Z</time>
      </trkpt>
      <trkpt lat="44.88169" lon="5.51702">
        <ele>1784.82</ele>
        <time>2016-12-04T12:44:51Z</time>
      </trkpt>
      <trkpt lat="44.8817" lon="5.51698">
        <ele>1784.34</ele>
        <time>2016-12-04T12:45:16Z</time>
      </trkpt>
      <trkpt lat="44.88166" lon="5.51698">
        <ele>1785.31</ele>
        <time>2016-12-04T12:45:38Z</time>
      </trkpt>
      <trkpt lat="44.88164" lon="5.51702">
        <ele>1785.31</ele>
        <time>2016-12-04T12:46:02Z</time>
      </trkpt>
      <trkpt lat="44.8816" lon="5.51707">
        <ele>1785.79</ele>
        <time>2016-12-04T12:46:35Z</time>
      </trkpt>
      <trkpt lat="44.88157" lon="5.51702">
        <ele>1784.34</ele>
        <time>2016-12-04T12:47:13Z</time>
      </trkpt>
      <trkpt lat="44.88158" lon="5.51708">
        <ele>1784.34</ele>
        <time>2016-12-04T12:47:51Z</time>
      </trkpt>
      <trkpt lat="44.88154" lon="5.51708">
        <ele>1783.86</ele>
        <time>2016-12-04T12:48:21Z</time>
      </trkpt>
      <trkpt lat="44.88153" lon="5.51708">
        <ele>1784.82</ele>
        <time>2016-12-04T12:48:54Z</time>
      </trkpt>
      <trkpt lat="44.88154" lon="5.51708">
        <ele>1784.82</ele>
        <time>2016-12-04T12:48:55Z</time>
      </trkpt>
      <trkpt lat="44.88167" lon="5.51709">
        <ele>1785.79</ele>
        <time>2016-12-04T12:49:06Z</time>
      </trkpt>
      <trkpt lat="44.88183" lon="5.51713">
        <ele>1785.79</ele>
        <time>2016-12-04T12:49:19Z</time>
      </trkpt>
      <trkpt lat="44.88185" lon="5.51715">
        <ele>1785.79</ele>
        <time>2016-12-04T12:49:21Z</time>
      </trkpt>
      <trkpt lat="44.88197" lon="5.51728">
        <ele>1786.27</ele>
        <time>2016-12-04T12:49:35Z</time>
      </trkpt>
      <trkpt lat="44.88198" lon="5.51732">
        <ele>1786.75</ele>
        <time>2016-12-04T12:49:38Z</time>
      </trkpt>
      <trkpt lat="44.88199" lon="5.51736">
        <ele>1786.75</ele>
        <time>2016-12-04T12:49:41Z</time>
      </trkpt>
      <trkpt lat="44.88204" lon="5.5175">
        <ele>1790.11</ele>
        <time>2016-12-04T12:49:56Z</time>
      </trkpt>
      <trkpt lat="44.88207" lon="5.51764">
        <ele>1793</ele>
        <time>2016-12-04T12:50:11Z</time>
      </trkpt>
      <trkpt lat="44.88202" lon="5.51781">
        <ele>1794.92</ele>
        <time>2016-12-04T12:50:26Z</time>
      </trkpt>
      <trkpt lat="44.882" lon="5.51796">
        <ele>1797.32</ele>
        <time>2016-12-04T12:50:41Z</time>
      </trkpt>
      <trkpt lat="44.88195" lon="5.51809">
        <ele>1800.21</ele>
        <time>2016-12-04T12:50:57Z</time>
      </trkpt>
      <trkpt lat="44.88191" lon="5.51821">
        <ele>1802.61</ele>
        <time>2016-12-04T12:51:13Z</time>
      </trkpt>
      <trkpt lat="44.88184" lon="5.51833">
        <ele>1805.01</ele>
        <time>2016-12-04T12:51:28Z</time>
      </trkpt>
      <trkpt lat="44.8818" lon="5.51845">
        <ele>1806.94</ele>
        <time>2016-12-04T12:51:43Z</time>
      </trkpt>
      <trkpt lat="44.88177" lon="5.51852">
        <ele>1808.38</ele>
        <time>2016-12-04T12:51:55Z</time>
      </trkpt>
      <trkpt lat="44.88184" lon="5.51853">
        <ele>1810.78</ele>
        <time>2016-12-04T12:52:09Z</time>
      </trkpt>
      <trkpt lat="44.88186" lon="5.51852">
        <ele>1811.74</ele>
        <time>2016-12-04T12:52:14Z</time>
      </trkpt>
      <trkpt lat="44.88194" lon="5.51852">
        <ele>1813.18</ele>
        <time>2016-12-04T12:52:29Z</time>
      </trkpt>
      <trkpt lat="44.88195" lon="5.51868">
        <ele>1816.07</ele>
        <time>2016-12-04T12:52:44Z</time>
      </trkpt>
      <trkpt lat="44.8819" lon="5.51881">
        <ele>1817.99</ele>
        <time>2016-12-04T12:53:00Z</time>
      </trkpt>
      <trkpt lat="44.88185" lon="5.51893">
        <ele>1819.91</ele>
        <time>2016-12-04T12:53:16Z</time>
      </trkpt>
      <trkpt lat="44.88182" lon="5.51901">
        <ele>1821.35</ele>
        <time>2016-12-04T12:53:28Z</time>
      </trkpt>
      <trkpt lat="44.8818" lon="5.51913">
        <ele>1824.72</ele>
        <time>2016-12-04T12:53:45Z</time>
      </trkpt>
      <trkpt lat="44.88179" lon="5.51923">
        <ele>1826.16</ele>
        <time>2016-12-04T12:53:57Z</time>
      </trkpt>
      <trkpt lat="44.88176" lon="5.51939">
        <ele>1827.6</ele>
        <time>2016-12-04T12:54:12Z</time>
      </trkpt>
      <trkpt lat="44.88169" lon="5.51953">
        <ele>1830.01</ele>
        <time>2016-12-04T12:54:28Z</time>
      </trkpt>
      <trkpt lat="44.88162" lon="5.5196">
        <ele>1832.89</ele>
        <time>2016-12-04T12:54:45Z</time>
      </trkpt>
      <trkpt lat="44.88167" lon="5.51969">
        <ele>1834.81</ele>
        <time>2016-12-04T12:55:00Z</time>
      </trkpt>
      <trkpt lat="44.88164" lon="5.51985">
        <ele>1837.7</ele>
        <time>2016-12-04T12:55:17Z</time>
      </trkpt>
      <trkpt lat="44.88163" lon="5.51998">
        <ele>1840.1</ele>
        <time>2016-12-04T12:55:33Z</time>
      </trkpt>
      <trkpt lat="44.88161" lon="5.52007">
        <ele>1842.02</ele>
        <time>2016-12-04T12:55:46Z</time>
      </trkpt>
      <trkpt lat="44.88164" lon="5.52014">
        <ele>1844.43</ele>
        <time>2016-12-04T12:55:59Z</time>
      </trkpt>
      <trkpt lat="44.88165" lon="5.52021">
        <ele>1846.83</ele>
        <time>2016-12-04T12:56:14Z</time>
      </trkpt>
      <trkpt lat="44.88171" lon="5.52016">
        <ele>1848.75</ele>
        <time>2016-12-04T12:56:27Z</time>
      </trkpt>
      <trkpt lat="44.88174" lon="5.5203">
        <ele>1851.64</ele>
        <time>2016-12-04T12:56:43Z</time>
      </trkpt>
      <trkpt lat="44.88172" lon="5.52045">
        <ele>1854.52</ele>
        <time>2016-12-04T12:57:00Z</time>
      </trkpt>
      <trkpt lat="44.88175" lon="5.52053">
        <ele>1856.92</ele>
        <time>2016-12-04T12:57:15Z</time>
      </trkpt>
      <trkpt lat="44.88173" lon="5.52068">
        <ele>1859.33</ele>
        <time>2016-12-04T12:57:31Z</time>
      </trkpt>
      <trkpt lat="44.8817" lon="5.52079">
        <ele>1861.73</ele>
        <time>2016-12-04T12:57:44Z</time>
      </trkpt>
      <trkpt lat="44.88164" lon="5.52091">
        <ele>1864.61</ele>
        <time>2016-12-04T12:58:01Z</time>
      </trkpt>
      <trkpt lat="44.8816" lon="5.52103">
        <ele>1867.02</ele>
        <time>2016-12-04T12:58:20Z</time>
      </trkpt>
      <trkpt lat="44.88166" lon="5.52103">
        <ele>1869.42</ele>
        <time>2016-12-04T12:58:33Z</time>
      </trkpt>
      <trkpt lat="44.88173" lon="5.52098">
        <ele>1871.82</ele>
        <time>2016-12-04T12:58:49Z</time>
      </trkpt>
      <trkpt lat="44.88182" lon="5.52099">
        <ele>1874.71</ele>
        <time>2016-12-04T12:59:05Z</time>
      </trkpt>
      <trkpt lat="44.88191" lon="5.52098">
        <ele>1877.11</ele>
        <time>2016-12-04T12:59:21Z</time>
      </trkpt>
      <trkpt lat="44.882" lon="5.52097">
        <ele>1879.51</ele>
        <time>2016-12-04T12:59:37Z</time>
      </trkpt>
      <trkpt lat="44.88201" lon="5.52111">
        <ele>1881.92</ele>
        <time>2016-12-04T12:59:52Z</time>
      </trkpt>
      <trkpt lat="44.88197" lon="5.5212">
        <ele>1883.84</ele>
        <time>2016-12-04T13:00:05Z</time>
      </trkpt>
      <trkpt lat="44.88192" lon="5.52131">
        <ele>1886.24</ele>
        <time>2016-12-04T13:00:20Z</time>
      </trkpt>
      <trkpt lat="44.88187" lon="5.52143">
        <ele>1889.13</ele>
        <time>2016-12-04T13:00:36Z</time>
      </trkpt>
      <trkpt lat="44.88183" lon="5.52151">
        <ele>1891.53</ele>
        <time>2016-12-04T13:00:50Z</time>
      </trkpt>
      <trkpt lat="44.88184" lon="5.52152">
        <ele>1893.93</ele>
        <time>2016-12-04T13:01:05Z</time>
      </trkpt>
      <trkpt lat="44.88184" lon="5.52156">
        <ele>1895.86</ele>
        <time>2016-12-04T13:01:19Z</time>
      </trkpt>
      <trkpt lat="44.88178" lon="5.52166">
        <ele>1899.22</ele>
        <time>2016-12-04T13:01:37Z</time>
      </trkpt>
      <trkpt lat="44.88171" lon="5.52177">
        <ele>1901.63</ele>
        <time>2016-12-04T13:01:55Z</time>
      </trkpt>
      <trkpt lat="44.88165" lon="5.52186">
        <ele>1904.51</ele>
        <time>2016-12-04T13:02:14Z</time>
      </trkpt>
      <trkpt lat="44.88158" lon="5.52196">
        <ele>1907.39</ele>
        <time>2016-12-04T13:02:34Z</time>
      </trkpt>
      <trkpt lat="44.88151" lon="5.52204">
        <ele>1909.8</ele>
        <time>2016-12-04T13:02:52Z</time>
      </trkpt>
      <trkpt lat="44.88144" lon="5.52211">
        <ele>1912.68</ele>
        <time>2016-12-04T13:03:11Z</time>
      </trkpt>
      <trkpt lat="44.88138" lon="5.52219">
        <ele>1916.04</ele>
        <time>2016-12-04T13:03:28Z</time>
      </trkpt>
      <trkpt lat="44.88132" lon="5.52224">
        <ele>1917.97</ele>
        <time>2016-12-04T13:03:44Z</time>
      </trkpt>
      <trkpt lat="44.88127" lon="5.5223">
        <ele>1920.85</ele>
        <time>2016-12-04T13:04:00Z</time>
      </trkpt>
      <trkpt lat="44.88125" lon="5.52235">
        <ele>1924.22</ele>
        <time>2016-12-04T13:04:14Z</time>
      </trkpt>
      <trkpt lat="44.88127" lon="5.52242">
        <ele>1925.66</ele>
        <time>2016-12-04T13:04:28Z</time>
      </trkpt>
      <trkpt lat="44.88129" lon="5.5225">
        <ele>1926.62</ele>
        <time>2016-12-04T13:04:43Z</time>
      </trkpt>
      <trkpt lat="44.88126" lon="5.5225">
        <ele>1927.1</ele>
        <time>2016-12-04T13:05:02Z</time>
      </trkpt>
      <trkpt lat="44.88123" lon="5.52253">
        <ele>1927.58</ele>
        <time>2016-12-04T13:05:22Z</time>
      </trkpt>
      <trkpt lat="44.88124" lon="5.52253">
        <ele>1927.58</ele>
        <time>2016-12-04T13:05:58Z</time>
      </trkpt>
      <trkpt lat="44.88123" lon="5.52252">
        <ele>1927.58</ele>
        <time>2016-12-04T13:06:26Z</time>
      </trkpt>
      <trkpt lat="44.88123" lon="5.52251">
        <ele>1928.06</ele>
        <time>2016-12-04T13:06:50Z</time>
      </trkpt>
      <trkpt lat="44.88125" lon="5.52252">
        <ele>1928.06</ele>
        <time>2016-12-04T13:07:24Z</time>
      </trkpt>
      <trkpt lat="44.88128" lon="5.52264">
        <ele>1925.66</ele>
        <time>2016-12-04T13:07:37Z</time>
      </trkpt>
      <trkpt lat="44.8813" lon="5.52274">
        <ele>1923.74</ele>
        <time>2016-12-04T13:07:47Z</time>
      </trkpt>
      <trkpt lat="44.88134" lon="5.52284">
        <ele>1921.33</ele>
        <time>2016-12-04T13:07:59Z</time>
      </trkpt>
      <trkpt lat="44.88135" lon="5.52296">
        <ele>1917.97</ele>
        <time>2016-12-04T13:08:12Z</time>
      </trkpt>
      <trkpt lat="44.88135" lon="5.52306">
        <ele>1917.01</ele>
        <time>2016-12-04T13:08:19Z</time>
      </trkpt>
      <trkpt lat="44.88118" lon="5.52318">
        <ele>1913.64</ele>
        <time>2016-12-04T13:08:33Z</time>
      </trkpt>
      <trkpt lat="44.88113" lon="5.52327">
        <ele>1911.72</ele>
        <time>2016-12-04T13:08:46Z</time>
      </trkpt>
      <trkpt lat="44.88114" lon="5.52334">
        <ele>1908.83</ele>
        <time>2016-12-04T13:09:02Z</time>
      </trkpt>
      <trkpt lat="44.88115" lon="5.52339">
        <ele>1907.87</ele>
        <time>2016-12-04T13:09:15Z</time>
      </trkpt>
      <trkpt lat="44.88116" lon="5.52338">
        <ele>1906.91</ele>
        <time>2016-12-04T13:09:31Z</time>
      </trkpt>
      <trkpt lat="44.88119" lon="5.52332">
        <ele>1904.51</ele>
        <time>2016-12-04T13:09:44Z</time>
      </trkpt>
      <trkpt lat="44.88123" lon="5.52329">
        <ele>1902.11</ele>
        <time>2016-12-04T13:09:58Z</time>
      </trkpt>
      <trkpt lat="44.88134" lon="5.52331">
        <ele>1899.22</ele>
        <time>2016-12-04T13:10:12Z</time>
      </trkpt>
      <trkpt lat="44.88134" lon="5.52332">
        <ele>1898.26</ele>
        <time>2016-12-04T13:10:19Z</time>
      </trkpt>
      <trkpt lat="44.88138" lon="5.52322">
        <ele>1895.38</ele>
        <time>2016-12-04T13:10:33Z</time>
      </trkpt>
      <trkpt lat="44.88146" lon="5.52318">
        <ele>1892.01</ele>
        <time>2016-12-04T13:10:46Z</time>
      </trkpt>
      <trkpt lat="44.88157" lon="5.5232">
        <ele>1889.13</ele>
        <time>2016-12-04T13:10:57Z</time>
      </trkpt>
      <trkpt lat="44.88169" lon="5.52326">
        <ele>1887.21</ele>
        <time>2016-12-04T13:11:10Z</time>
      </trkpt>
      <trkpt lat="44.88159" lon="5.52336">
        <ele>1885.28</ele>
        <time>2016-12-04T13:11:24Z</time>
      </trkpt>
      <trkpt lat="44.88151" lon="5.52343">
        <ele>1881.92</ele>
        <time>2016-12-04T13:11:37Z</time>
      </trkpt>
      <trkpt lat="44.88152" lon="5.52351">
        <ele>1879.51</ele>
        <time>2016-12-04T13:11:51Z</time>
      </trkpt>
      <trkpt lat="44.88145" lon="5.52362">
        <ele>1876.63</ele>
        <time>2016-12-04T13:12:05Z</time>
      </trkpt>
      <trkpt lat="44.88143" lon="5.52372">
        <ele>1874.23</ele>
        <time>2016-12-04T13:12:17Z</time>
      </trkpt>
      <trkpt lat="44.88143" lon="5.52373">
        <ele>1874.23</ele>
        <time>2016-12-04T13:12:18Z</time>
      </trkpt>
      <trkpt lat="44.88131" lon="5.52381">
        <ele>1873.27</ele>
        <time>2016-12-04T13:12:31Z</time>
      </trkpt>
      <trkpt lat="44.8813" lon="5.52384">
        <ele>1873.27</ele>
        <time>2016-12-04T13:12:34Z</time>
      </trkpt>
      <trkpt lat="44.88126" lon="5.52395">
        <ele>1869.9</ele>
        <time>2016-12-04T13:12:48Z</time>
      </trkpt>
      <trkpt lat="44.88123" lon="5.52407">
        <ele>1867.02</ele>
        <time>2016-12-04T13:13:02Z</time>
      </trkpt>
      <trkpt lat="44.88123" lon="5.52417">
        <ele>1864.13</ele>
        <time>2016-12-04T13:13:15Z</time>
      </trkpt>
      <trkpt lat="44.88123" lon="5.52419">
        <ele>1864.13</ele>
        <time>2016-12-04T13:13:17Z</time>
      </trkpt>
      <trkpt lat="44.88116" lon="5.52433">
        <ele>1860.77</ele>
        <time>2016-12-04T13:13:31Z</time>
      </trkpt>
      <trkpt lat="44.88116" lon="5.52436">
        <ele>1858.37</ele>
        <time>2016-12-04T13:13:43Z</time>
      </trkpt>
      <trkpt lat="44.88123" lon="5.52428">
        <ele>1856.92</ele>
        <time>2016-12-04T13:13:55Z</time>
      </trkpt>
      <trkpt lat="44.88124" lon="5.52439">
        <ele>1853.56</ele>
        <time>2016-12-04T13:14:07Z</time>
      </trkpt>
      <trkpt lat="44.88116" lon="5.52451">
        <ele>1850.19</ele>
        <time>2016-12-04T13:14:20Z</time>
      </trkpt>
      <trkpt lat="44.88112" lon="5.52464">
        <ele>1847.79</ele>
        <time>2016-12-04T13:14:33Z</time>
      </trkpt>
      <trkpt lat="44.88112" lon="5.5247">
        <ele>1845.39</ele>
        <time>2016-12-04T13:14:42Z</time>
      </trkpt>
      <trkpt lat="44.88121" lon="5.52462">
        <ele>1842.5</ele>
        <time>2016-12-04T13:14:56Z</time>
      </trkpt>
      <trkpt lat="44.88126" lon="5.52461">
        <ele>1840.1</ele>
        <time>2016-12-04T13:15:08Z</time>
      </trkpt>
      <trkpt lat="44.88126" lon="5.52462">
        <ele>1839.62</ele>
        <time>2016-12-04T13:15:09Z</time>
      </trkpt>
      <trkpt lat="44.88126" lon="5.52467">
        <ele>1838.66</ele>
        <time>2016-12-04T13:15:12Z</time>
      </trkpt>
      <trkpt lat="44.88121" lon="5.52481">
        <ele>1835.77</ele>
        <time>2016-12-04T13:15:26Z</time>
      </trkpt>
      <trkpt lat="44.88123" lon="5.52492">
        <ele>1832.41</ele>
        <time>2016-12-04T13:15:34Z</time>
      </trkpt>
      <trkpt lat="44.88123" lon="5.52502">
        <ele>1829.05</ele>
        <time>2016-12-04T13:15:45Z</time>
      </trkpt>
      <trkpt lat="44.88123" lon="5.52513">
        <ele>1825.68</ele>
        <time>2016-12-04T13:15:55Z</time>
      </trkpt>
      <trkpt lat="44.88127" lon="5.52518">
        <ele>1822.8</ele>
        <time>2016-12-04T13:16:04Z</time>
      </trkpt>
      <trkpt lat="44.88128" lon="5.5253">
        <ele>1819.91</ele>
        <time>2016-12-04T13:16:18Z</time>
      </trkpt>
      <trkpt lat="44.88124" lon="5.52547">
        <ele>1817.51</ele>
        <time>2016-12-04T13:16:33Z</time>
      </trkpt>
      <trkpt lat="44.88121" lon="5.52565">
        <ele>1813.66</ele>
        <time>2016-12-04T13:16:48Z</time>
      </trkpt>
      <trkpt lat="44.88116" lon="5.52578">
        <ele>1811.74</ele>
        <time>2016-12-04T13:16:58Z</time>
      </trkpt>
      <trkpt lat="44.88111" lon="5.52593">
        <ele>1808.38</ele>
        <time>2016-12-04T13:17:10Z</time>
      </trkpt>
      <trkpt lat="44.88111" lon="5.52608">
        <ele>1805.49</ele>
        <time>2016-12-04T13:17:22Z</time>
      </trkpt>
      <trkpt lat="44.88114" lon="5.52606">
        <ele>1804.53</ele>
        <time>2016-12-04T13:17:27Z</time>
      </trkpt>
      <trkpt lat="44.88116" lon="5.52602">
        <ele>1804.05</ele>
        <time>2016-12-04T13:17:30Z</time>
      </trkpt>
      <trkpt lat="44.88128" lon="5.52591">
        <ele>1802.13</ele>
        <time>2016-12-04T13:17:42Z</time>
      </trkpt>
      <trkpt lat="44.88138" lon="5.52588">
        <ele>1801.17</ele>
        <time>2016-12-04T13:17:50Z</time>
      </trkpt>
      <trkpt lat="44.88143" lon="5.52582">
        <ele>1799.73</ele>
        <time>2016-12-04T13:17:57Z</time>
      </trkpt>
      <trkpt lat="44.88154" lon="5.52571">
        <ele>1797.32</ele>
        <time>2016-12-04T13:18:09Z</time>
      </trkpt>
      <trkpt lat="44.88158" lon="5.52568">
        <ele>1796.84</ele>
        <time>2016-12-04T13:18:13Z</time>
      </trkpt>
      <trkpt lat="44.88155" lon="5.52592">
        <ele>1793</ele>
        <time>2016-12-04T13:18:27Z</time>
      </trkpt>
      <trkpt lat="44.88142" lon="5.52612">
        <ele>1789.63</ele>
        <time>2016-12-04T13:18:42Z</time>
      </trkpt>
      <trkpt lat="44.88139" lon="5.52617">
        <ele>1788.67</ele>
        <time>2016-12-04T13:18:47Z</time>
      </trkpt>
      <trkpt lat="44.88134" lon="5.52637">
        <ele>1785.79</ele>
        <time>2016-12-04T13:19:01Z</time>
      </trkpt>
      <trkpt lat="44.88134" lon="5.52641">
        <ele>1785.79</ele>
        <time>2016-12-04T13:19:04Z</time>
      </trkpt>
      <trkpt lat="44.88132" lon="5.5265">
        <ele>1783.38</ele>
        <time>2016-12-04T13:19:11Z</time>
      </trkpt>
      <trkpt lat="44.88129" lon="5.52668">
        <ele>1780.98</ele>
        <time>2016-12-04T13:19:23Z</time>
      </trkpt>
      <trkpt lat="44.88128" lon="5.52682">
        <ele>1779.54</ele>
        <time>2016-12-04T13:19:30Z</time>
      </trkpt>
      <trkpt lat="44.88119" lon="5.52706">
        <ele>1777.13</ele>
        <time>2016-12-04T13:19:47Z</time>
      </trkpt>
      <trkpt lat="44.881" lon="5.52711">
        <ele>1774.25</ele>
        <time>2016-12-04T13:20:04Z</time>
      </trkpt>
      <trkpt lat="44.881" lon="5.52713">
        <ele>1773.29</ele>
        <time>2016-12-04T13:20:07Z</time>
      </trkpt>
      <trkpt lat="44.88102" lon="5.52714">
        <ele>1773.29</ele>
        <time>2016-12-04T13:20:09Z</time>
      </trkpt>
      <trkpt lat="44.88119" lon="5.52718">
        <ele>1769.92</ele>
        <time>2016-12-04T13:20:23Z</time>
      </trkpt>
      <trkpt lat="44.88137" lon="5.52717">
        <ele>1767.04</ele>
        <time>2016-12-04T13:20:38Z</time>
      </trkpt>
      <trkpt lat="44.88141" lon="5.52718">
        <ele>1766.08</ele>
        <time>2016-12-04T13:20:42Z</time>
      </trkpt>
      <trkpt lat="44.88151" lon="5.52714">
        <ele>1763.68</ele>
        <time>2016-12-04T13:20:55Z</time>
      </trkpt>
      <trkpt lat="44.88154" lon="5.52716">
        <ele>1761.75</ele>
        <time>2016-12-04T13:21:00Z</time>
      </trkpt>
      <trkpt lat="44.88168" lon="5.52713">
        <ele>1759.35</ele>
        <time>2016-12-04T13:21:12Z</time>
      </trkpt>
      <trkpt lat="44.88173" lon="5.52707">
        <ele>1757.91</ele>
        <time>2016-12-04T13:21:19Z</time>
      </trkpt>
      <trkpt lat="44.88184" lon="5.52707">
        <ele>1755.02</ele>
        <time>2016-12-04T13:21:30Z</time>
      </trkpt>
      <trkpt lat="44.88188" lon="5.52703">
        <ele>1754.54</ele>
        <time>2016-12-04T13:21:35Z</time>
      </trkpt>
      <trkpt lat="44.8819" lon="5.5271">
        <ele>1754.06</ele>
        <time>2016-12-04T13:21:39Z</time>
      </trkpt>
      <trkpt lat="44.88191" lon="5.5272">
        <ele>1752.62</ele>
        <time>2016-12-04T13:21:46Z</time>
      </trkpt>
      <trkpt lat="44.88198" lon="5.52726">
        <ele>1749.74</ele>
        <time>2016-12-04T13:21:55Z</time>
      </trkpt>
      <trkpt lat="44.88201" lon="5.52728">
        <ele>1748.29</ele>
        <time>2016-12-04T13:22:00Z</time>
      </trkpt>
      <trkpt lat="44.88212" lon="5.52725">
        <ele>1745.41</ele>
        <time>2016-12-04T13:22:12Z</time>
      </trkpt>
      <trkpt lat="44.88213" lon="5.52724">
        <ele>1744.93</ele>
        <time>2016-12-04T13:22:14Z</time>
      </trkpt>
      <trkpt lat="44.88219" lon="5.52721">
        <ele>1743.97</ele>
        <time>2016-12-04T13:22:20Z</time>
      </trkpt>
      <trkpt lat="44.88231" lon="5.52718">
        <ele>1741.08</ele>
        <time>2016-12-04T13:22:33Z</time>
      </trkpt>
      <trkpt lat="44.88237" lon="5.52715">
        <ele>1738.2</ele>
        <time>2016-12-04T13:22:44Z</time>
      </trkpt>
      <trkpt lat="44.88249" lon="5.52717">
        <ele>1735.32</ele>
        <time>2016-12-04T13:22:56Z</time>
      </trkpt>
      <trkpt lat="44.88257" lon="5.52712">
        <ele>1731.95</ele>
        <time>2016-12-04T13:23:08Z</time>
      </trkpt>
      <trkpt lat="44.88258" lon="5.52712">
        <ele>1731.95</ele>
        <time>2016-12-04T13:23:09Z</time>
      </trkpt>
      <trkpt lat="44.88257" lon="5.52724">
        <ele>1730.03</ele>
        <time>2016-12-04T13:23:20Z</time>
      </trkpt>
      <trkpt lat="44.88258" lon="5.52738">
        <ele>1727.15</ele>
        <time>2016-12-04T13:23:30Z</time>
      </trkpt>
      <trkpt lat="44.88261" lon="5.52749">
        <ele>1723.78</ele>
        <time>2016-12-04T13:23:41Z</time>
      </trkpt>
      <trkpt lat="44.88264" lon="5.52759">
        <ele>1719.94</ele>
        <time>2016-12-04T13:23:53Z</time>
      </trkpt>
      <trkpt lat="44.88265" lon="5.5276">
        <ele>1719.94</ele>
        <time>2016-12-04T13:23:54Z</time>
      </trkpt>
      <trkpt lat="44.88268" lon="5.52759">
        <ele>1719.46</ele>
        <time>2016-12-04T13:23:57Z</time>
      </trkpt>
      <trkpt lat="44.88275" lon="5.52767">
        <ele>1717.53</ele>
        <time>2016-12-04T13:24:10Z</time>
      </trkpt>
      <trkpt lat="44.88273" lon="5.52769">
        <ele>1717.53</ele>
        <time>2016-12-04T13:24:17Z</time>
      </trkpt>
      <trkpt lat="44.88271" lon="5.52775">
        <ele>1717.05</ele>
        <time>2016-12-04T13:24:32Z</time>
      </trkpt>
      <trkpt lat="44.88268" lon="5.52777">
        <ele>1716.57</ele>
        <time>2016-12-04T13:24:57Z</time>
      </trkpt>
      <trkpt lat="44.88264" lon="5.52783">
        <ele>1717.53</ele>
        <time>2016-12-04T13:25:14Z</time>
      </trkpt>
      <trkpt lat="44.88267" lon="5.52782">
        <ele>1717.53</ele>
        <time>2016-12-04T13:25:30Z</time>
      </trkpt>
      <trkpt lat="44.8827" lon="5.52783">
        <ele>1716.57</ele>
        <time>2016-12-04T13:25:48Z</time>
      </trkpt>
      <trkpt lat="44.88269" lon="5.52782">
        <ele>1716.57</ele>
        <time>2016-12-04T13:26:13Z</time>
      </trkpt>
      <trkpt lat="44.88269" lon="5.52782">
        <ele>1716.57</ele>
        <time>2016-12-04T13:26:33Z</time>
      </trkpt>
      <trkpt lat="44.88267" lon="5.52785">
        <ele>1716.57</ele>
        <time>2016-12-04T13:27:01Z</time>
      </trkpt>
      <trkpt lat="44.88266" lon="5.52798">
        <ele>1713.69</ele>
        <time>2016-12-04T13:27:14Z</time>
      </trkpt>
      <trkpt lat="44.88266" lon="5.52799">
        <ele>1713.21</ele>
        <time>2016-12-04T13:27:15Z</time>
      </trkpt>
      <trkpt lat="44.88262" lon="5.52805">
        <ele>1712.25</ele>
        <time>2016-12-04T13:27:30Z</time>
      </trkpt>
      <trkpt lat="44.88261" lon="5.52809">
        <ele>1712.25</ele>
        <time>2016-12-04T13:27:43Z</time>
      </trkpt>
      <trkpt lat="44.88265" lon="5.52807">
        <ele>1712.25</ele>
        <time>2016-12-04T13:28:01Z</time>
      </trkpt>
      <trkpt lat="44.88266" lon="5.52813">
        <ele>1711.76</ele>
        <time>2016-12-04T13:28:04Z</time>
      </trkpt>
      <trkpt lat="44.88269" lon="5.52819">
        <ele>1710.8</ele>
        <time>2016-12-04T13:28:09Z</time>
      </trkpt>
      <trkpt lat="44.88268" lon="5.52831">
        <ele>1708.4</ele>
        <time>2016-12-04T13:28:18Z</time>
      </trkpt>
      <trkpt lat="44.88267" lon="5.52839">
        <ele>1706</ele>
        <time>2016-12-04T13:28:26Z</time>
      </trkpt>
      <trkpt lat="44.88264" lon="5.52844">
        <ele>1705.52</ele>
        <time>2016-12-04T13:28:30Z</time>
      </trkpt>
      <trkpt lat="44.88258" lon="5.52848">
        <ele>1705.04</ele>
        <time>2016-12-04T13:28:36Z</time>
      </trkpt>
      <trkpt lat="44.88254" lon="5.52863">
        <ele>1701.67</ele>
        <time>2016-12-04T13:28:49Z</time>
      </trkpt>
      <trkpt lat="44.88251" lon="5.52871">
        <ele>1700.23</ele>
        <time>2016-12-04T13:28:57Z</time>
      </trkpt>
      <trkpt lat="44.88252" lon="5.5288">
        <ele>1698.31</ele>
        <time>2016-12-04T13:29:04Z</time>
      </trkpt>
      <trkpt lat="44.88256" lon="5.52886">
        <ele>1696.86</ele>
        <time>2016-12-04T13:29:09Z</time>
      </trkpt>
      <trkpt lat="44.88258" lon="5.52889">
        <ele>1695.9</ele>
        <time>2016-12-04T13:29:12Z</time>
      </trkpt>
      <trkpt lat="44.88261" lon="5.529">
        <ele>1693.5</ele>
        <time>2016-12-04T13:29:22Z</time>
      </trkpt>
      <trkpt lat="44.88268" lon="5.52901">
        <ele>1691.58</ele>
        <time>2016-12-04T13:29:29Z</time>
      </trkpt>
      <trkpt lat="44.8827" lon="5.52901">
        <ele>1691.58</ele>
        <time>2016-12-04T13:29:31Z</time>
      </trkpt>
      <trkpt lat="44.88279" lon="5.52904">
        <ele>1689.17</ele>
        <time>2016-12-04T13:29:42Z</time>
      </trkpt>
      <trkpt lat="44.88282" lon="5.52905">
        <ele>1688.69</ele>
        <time>2016-12-04T13:29:45Z</time>
      </trkpt>
      <trkpt lat="44.88287" lon="5.52911">
        <ele>1686.77</ele>
        <time>2016-12-04T13:29:55Z</time>
      </trkpt>
      <trkpt lat="44.8829" lon="5.5292">
        <ele>1684.37</ele>
        <time>2016-12-04T13:30:03Z</time>
      </trkpt>
      <trkpt lat="44.88288" lon="5.52922">
        <ele>1683.89</ele>
        <time>2016-12-04T13:30:05Z</time>
      </trkpt>
      <trkpt lat="44.88276" lon="5.52928">
        <ele>1680.52</ele>
        <time>2016-12-04T13:30:19Z</time>
      </trkpt>
      <trkpt lat="44.88265" lon="5.52932">
        <ele>1678.6</ele>
        <time>2016-12-04T13:30:29Z</time>
      </trkpt>
      <trkpt lat="44.88256" lon="5.52937">
        <ele>1676.2</ele>
        <time>2016-12-04T13:30:38Z</time>
      </trkpt>
      <trkpt lat="44.88245" lon="5.52948">
        <ele>1672.83</ele>
        <time>2016-12-04T13:30:49Z</time>
      </trkpt>
      <trkpt lat="44.88237" lon="5.52962">
        <ele>1669.95</ele>
        <time>2016-12-04T13:31:02Z</time>
      </trkpt>
      <trkpt lat="44.88234" lon="5.52974">
        <ele>1668.02</ele>
        <time>2016-12-04T13:31:10Z</time>
      </trkpt>
      <trkpt lat="44.88232" lon="5.52976">
        <ele>1667.54</ele>
        <time>2016-12-04T13:31:12Z</time>
      </trkpt>
      <trkpt lat="44.88222" lon="5.52997">
        <ele>1664.66</ele>
        <time>2016-12-04T13:31:27Z</time>
      </trkpt>
      <trkpt lat="44.88216" lon="5.53007">
        <ele>1663.7</ele>
        <time>2016-12-04T13:31:35Z</time>
      </trkpt>
      <trkpt lat="44.88212" lon="5.53011">
        <ele>1663.22</ele>
        <time>2016-12-04T13:31:39Z</time>
      </trkpt>
      <trkpt lat="44.88206" lon="5.5303">
        <ele>1659.85</ele>
        <time>2016-12-04T13:31:54Z</time>
      </trkpt>
      <trkpt lat="44.88207" lon="5.53032">
        <ele>1659.37</ele>
        <time>2016-12-04T13:31:56Z</time>
      </trkpt>
      <trkpt lat="44.88207" lon="5.53055">
        <ele>1655.53</ele>
        <time>2016-12-04T13:32:11Z</time>
      </trkpt>
      <trkpt lat="44.88206" lon="5.5306">
        <ele>1655.05</ele>
        <time>2016-12-04T13:32:15Z</time>
      </trkpt>
      <trkpt lat="44.88211" lon="5.53073">
        <ele>1651.68</ele>
        <time>2016-12-04T13:32:26Z</time>
      </trkpt>
      <trkpt lat="44.88209" lon="5.53079">
        <ele>1650.72</ele>
        <time>2016-12-04T13:32:31Z</time>
      </trkpt>
      <trkpt lat="44.88205" lon="5.53085">
        <ele>1649.28</ele>
        <time>2016-12-04T13:32:38Z</time>
      </trkpt>
      <trkpt lat="44.88204" lon="5.53101">
        <ele>1645.91</ele>
        <time>2016-12-04T13:32:50Z</time>
      </trkpt>
      <trkpt lat="44.88206" lon="5.53111">
        <ele>1644.95</ele>
        <time>2016-12-04T13:32:56Z</time>
      </trkpt>
      <trkpt lat="44.88204" lon="5.53117">
        <ele>1643.99</ele>
        <time>2016-12-04T13:33:01Z</time>
      </trkpt>
      <trkpt lat="44.88197" lon="5.53136">
        <ele>1640.15</ele>
        <time>2016-12-04T13:33:14Z</time>
      </trkpt>
      <trkpt lat="44.88189" lon="5.53162">
        <ele>1637.26</ele>
        <time>2016-12-04T13:33:31Z</time>
      </trkpt>
      <trkpt lat="44.88184" lon="5.53173">
        <ele>1635.82</ele>
        <time>2016-12-04T13:33:39Z</time>
      </trkpt>
      <trkpt lat="44.88181" lon="5.5318">
        <ele>1634.38</ele>
        <time>2016-12-04T13:33:45Z</time>
      </trkpt>
      <trkpt lat="44.88182" lon="5.53185">
        <ele>1633.42</ele>
        <time>2016-12-04T13:33:49Z</time>
      </trkpt>
      <trkpt lat="44.88193" lon="5.53184">
        <ele>1631.98</ele>
        <time>2016-12-04T13:33:57Z</time>
      </trkpt>
      <trkpt lat="44.882" lon="5.53181">
        <ele>1631.01</ele>
        <time>2016-12-04T13:34:03Z</time>
      </trkpt>
      <trkpt lat="44.88215" lon="5.53176">
        <ele>1627.65</ele>
        <time>2016-12-04T13:34:18Z</time>
      </trkpt>
      <trkpt lat="44.88221" lon="5.53172">
        <ele>1625.73</ele>
        <time>2016-12-04T13:34:26Z</time>
      </trkpt>
      <trkpt lat="44.88231" lon="5.53158">
        <ele>1621.88</ele>
        <time>2016-12-04T13:34:41Z</time>
      </trkpt>
      <trkpt lat="44.88232" lon="5.53158">
        <ele>1621.88</ele>
        <time>2016-12-04T13:34:42Z</time>
      </trkpt>
      <trkpt lat="44.88243" lon="5.53154">
        <ele>1618.04</ele>
        <time>2016-12-04T13:34:55Z</time>
      </trkpt>
      <trkpt lat="44.88257" lon="5.53147">
        <ele>1615.15</ele>
        <time>2016-12-04T13:35:08Z</time>
      </trkpt>
      <trkpt lat="44.88262" lon="5.5315">
        <ele>1614.67</ele>
        <time>2016-12-04T13:35:12Z</time>
      </trkpt>
      <trkpt lat="44.88274" lon="5.53157">
        <ele>1612.27</ele>
        <time>2016-12-04T13:35:25Z</time>
      </trkpt>
      <trkpt lat="44.8828" lon="5.53156">
        <ele>1611.31</ele>
        <time>2016-12-04T13:35:30Z</time>
      </trkpt>
      <trkpt lat="44.88286" lon="5.53153">
        <ele>1610.35</ele>
        <time>2016-12-04T13:35:36Z</time>
      </trkpt>
      <trkpt lat="44.88288" lon="5.53154">
        <ele>1609.86</ele>
        <time>2016-12-04T13:35:38Z</time>
      </trkpt>
      <trkpt lat="44.88296" lon="5.53162">
        <ele>1607.46</ele>
        <time>2016-12-04T13:35:47Z</time>
      </trkpt>
      <trkpt lat="44.88302" lon="5.53174">
        <ele>1604.58</ele>
        <time>2016-12-04T13:35:59Z</time>
      </trkpt>
      <trkpt lat="44.88309" lon="5.5318">
        <ele>1601.21</ele>
        <time>2016-12-04T13:36:11Z</time>
      </trkpt>
      <trkpt lat="44.88318" lon="5.53188">
        <ele>1597.85</ele>
        <time>2016-12-04T13:36:25Z</time>
      </trkpt>
      <trkpt lat="44.8832" lon="5.53188">
        <ele>1597.37</ele>
        <time>2016-12-04T13:36:27Z</time>
      </trkpt>
      <trkpt lat="44.88329" lon="5.53198">
        <ele>1594</ele>
        <time>2016-12-04T13:36:40Z</time>
      </trkpt>
      <trkpt lat="44.88339" lon="5.53205">
        <ele>1590.64</ele>
        <time>2016-12-04T13:36:53Z</time>
      </trkpt>
      <trkpt lat="44.88344" lon="5.5321">
        <ele>1589.2</ele>
        <time>2016-12-04T13:36:58Z</time>
      </trkpt>
      <trkpt lat="44.88354" lon="5.53215">
        <ele>1586.31</ele>
        <time>2016-12-04T13:37:09Z</time>
      </trkpt>
      <trkpt lat="44.88359" lon="5.53219">
        <ele>1584.87</ele>
        <time>2016-12-04T13:37:15Z</time>
      </trkpt>
      <trkpt lat="44.88365" lon="5.53222">
        <ele>1583.43</ele>
        <time>2016-12-04T13:37:21Z</time>
      </trkpt>
      <trkpt lat="44.88376" lon="5.53227">
        <ele>1580.06</ele>
        <time>2016-12-04T13:37:34Z</time>
      </trkpt>
      <trkpt lat="44.88385" lon="5.53232">
        <ele>1576.7</ele>
        <time>2016-12-04T13:37:46Z</time>
      </trkpt>
      <trkpt lat="44.88394" lon="5.5324">
        <ele>1573.82</ele>
        <time>2016-12-04T13:37:57Z</time>
      </trkpt>
      <trkpt lat="44.88403" lon="5.53243">
        <ele>1570.45</ele>
        <time>2016-12-04T13:38:09Z</time>
      </trkpt>
      <trkpt lat="44.88406" lon="5.53256">
        <ele>1567.57</ele>
        <time>2016-12-04T13:38:21Z</time>
      </trkpt>
      <trkpt lat="44.88402" lon="5.53267">
        <ele>1564.68</ele>
        <time>2016-12-04T13:38:32Z</time>
      </trkpt>
      <trkpt lat="44.88403" lon="5.53279">
        <ele>1561.8</ele>
        <time>2016-12-04T13:38:43Z</time>
      </trkpt>
      <trkpt lat="44.88403" lon="5.53286">
        <ele>1559.88</ele>
        <time>2016-12-04T13:38:48Z</time>
      </trkpt>
      <trkpt lat="44.88403" lon="5.53293">
        <ele>1559.4</ele>
        <time>2016-12-04T13:38:53Z</time>
      </trkpt>
      <trkpt lat="44.88402" lon="5.53302">
        <ele>1557.47</ele>
        <time>2016-12-04T13:38:59Z</time>
      </trkpt>
      <trkpt lat="44.88404" lon="5.53309">
        <ele>1555.55</ele>
        <time>2016-12-04T13:39:06Z</time>
      </trkpt>
      <trkpt lat="44.88405" lon="5.53317">
        <ele>1554.11</ele>
        <time>2016-12-04T13:39:11Z</time>
      </trkpt>
      <trkpt lat="44.88393" lon="5.53314">
        <ele>1550.74</ele>
        <time>2016-12-04T13:39:25Z</time>
      </trkpt>
      <trkpt lat="44.88396" lon="5.53321">
        <ele>1547.86</ele>
        <time>2016-12-04T13:39:37Z</time>
      </trkpt>
      <trkpt lat="44.88396" lon="5.5333">
        <ele>1544.5</ele>
        <time>2016-12-04T13:39:49Z</time>
      </trkpt>
      <trkpt lat="44.884" lon="5.53341">
        <ele>1541.61</ele>
        <time>2016-12-04T13:39:59Z</time>
      </trkpt>
      <trkpt lat="44.88403" lon="5.53354">
        <ele>1538.73</ele>
        <time>2016-12-04T13:40:10Z</time>
      </trkpt>
      <trkpt lat="44.88407" lon="5.53369">
        <ele>1535.36</ele>
        <time>2016-12-04T13:40:22Z</time>
      </trkpt>
      <trkpt lat="44.88412" lon="5.53382">
        <ele>1532</ele>
        <time>2016-12-04T13:40:34Z</time>
      </trkpt>
      <trkpt lat="44.88417" lon="5.5339">
        <ele>1529.59</ele>
        <time>2016-12-04T13:40:44Z</time>
      </trkpt>
      <trkpt lat="44.88421" lon="5.53404">
        <ele>1526.23</ele>
        <time>2016-12-04T13:40:57Z</time>
      </trkpt>
      <trkpt lat="44.88425" lon="5.53414">
        <ele>1523.35</ele>
        <time>2016-12-04T13:41:07Z</time>
      </trkpt>
      <trkpt lat="44.88428" lon="5.53426">
        <ele>1519.98</ele>
        <time>2016-12-04T13:41:17Z</time>
      </trkpt>
      <trkpt lat="44.88433" lon="5.53439">
        <ele>1516.62</ele>
        <time>2016-12-04T13:41:29Z</time>
      </trkpt>
      <trkpt lat="44.88439" lon="5.53454">
        <ele>1513.73</ele>
        <time>2016-12-04T13:41:40Z</time>
      </trkpt>
      <trkpt lat="44.88438" lon="5.53468">
        <ele>1511.81</ele>
        <time>2016-12-04T13:41:49Z</time>
      </trkpt>
      <trkpt lat="44.88431" lon="5.53474">
        <ele>1508.93</ele>
        <time>2016-12-04T13:42:00Z</time>
      </trkpt>
      <trkpt lat="44.88429" lon="5.53481">
        <ele>1505.56</ele>
        <time>2016-12-04T13:42:11Z</time>
      </trkpt>
      <trkpt lat="44.8843" lon="5.53485">
        <ele>1504.6</ele>
        <time>2016-12-04T13:42:16Z</time>
      </trkpt>
      <trkpt lat="44.88431" lon="5.53497">
        <ele>1501.72</ele>
        <time>2016-12-04T13:42:27Z</time>
      </trkpt>
      <trkpt lat="44.88432" lon="5.53512">
        <ele>1498.35</ele>
        <time>2016-12-04T13:42:39Z</time>
      </trkpt>
      <trkpt lat="44.88434" lon="5.53518">
        <ele>1497.39</ele>
        <time>2016-12-04T13:42:43Z</time>
      </trkpt>
      <trkpt lat="44.88432" lon="5.53536">
        <ele>1494.03</ele>
        <time>2016-12-04T13:42:56Z</time>
      </trkpt>
      <trkpt lat="44.88435" lon="5.53559">
        <ele>1490.66</ele>
        <time>2016-12-04T13:43:13Z</time>
      </trkpt>
      <trkpt lat="44.88441" lon="5.53572">
        <ele>1488.26</ele>
        <time>2016-12-04T13:43:28Z</time>
      </trkpt>
      <trkpt lat="44.88439" lon="5.53584">
        <ele>1485.37</ele>
        <time>2016-12-04T13:43:41Z</time>
      </trkpt>
      <trkpt lat="44.88426" lon="5.53587">
        <ele>1482.01</ele>
        <time>2016-12-04T13:43:54Z</time>
      </trkpt>
      <trkpt lat="44.88415" lon="5.53588">
        <ele>1480.09</ele>
        <time>2016-12-04T13:44:11Z</time>
      </trkpt>
      <trkpt lat="44.8841" lon="5.53584">
        <ele>1477.68</ele>
        <time>2016-12-04T13:44:21Z</time>
      </trkpt>
      <trkpt lat="44.88407" lon="5.53584">
        <ele>1474.8</ele>
        <time>2016-12-04T13:44:33Z</time>
      </trkpt>
      <trkpt lat="44.88408" lon="5.5359">
        <ele>1471.44</ele>
        <time>2016-12-04T13:44:44Z</time>
      </trkpt>
      <trkpt lat="44.88411" lon="5.53601">
        <ele>1468.07</ele>
        <time>2016-12-04T13:44:57Z</time>
      </trkpt>
      <trkpt lat="44.88416" lon="5.53614">
        <ele>1465.19</ele>
        <time>2016-12-04T13:45:10Z</time>
      </trkpt>
      <trkpt lat="44.88418" lon="5.53618">
        <ele>1463.74</ele>
        <time>2016-12-04T13:45:16Z</time>
      </trkpt>
      <trkpt lat="44.88425" lon="5.53625">
        <ele>1460.38</ele>
        <time>2016-12-04T13:45:31Z</time>
      </trkpt>
      <trkpt lat="44.88434" lon="5.53628">
        <ele>1457.5</ele>
        <time>2016-12-04T13:45:43Z</time>
      </trkpt>
      <trkpt lat="44.88442" lon="5.53631">
        <ele>1454.13</ele>
        <time>2016-12-04T13:45:57Z</time>
      </trkpt>
      <trkpt lat="44.88452" lon="5.53636">
        <ele>1450.29</ele>
        <time>2016-12-04T13:46:09Z</time>
      </trkpt>
      <trkpt lat="44.8846" lon="5.53647">
        <ele>1446.92</ele>
        <time>2016-12-04T13:46:21Z</time>
      </trkpt>
      <trkpt lat="44.8847" lon="5.53654">
        <ele>1443.56</ele>
        <time>2016-12-04T13:46:33Z</time>
      </trkpt>
      <trkpt lat="44.88477" lon="5.53656">
        <ele>1439.71</ele>
        <time>2016-12-04T13:46:47Z</time>
      </trkpt>
      <trkpt lat="44.8848" lon="5.53662">
        <ele>1436.35</ele>
        <time>2016-12-04T13:46:56Z</time>
      </trkpt>
      <trkpt lat="44.88491" lon="5.53669">
        <ele>1433.46</ele>
        <time>2016-12-04T13:47:06Z</time>
      </trkpt>
      <trkpt lat="44.88496" lon="5.53675">
        <ele>1430.58</ele>
        <time>2016-12-04T13:47:15Z</time>
      </trkpt>
      <trkpt lat="44.88503" lon="5.53686">
        <ele>1427.21</ele>
        <time>2016-12-04T13:47:28Z</time>
      </trkpt>
      <trkpt lat="44.8851" lon="5.53687">
        <ele>1423.37</ele>
        <time>2016-12-04T13:47:41Z</time>
      </trkpt>
      <trkpt lat="44.88517" lon="5.53693">
        <ele>1420.49</ele>
        <time>2016-12-04T13:47:51Z</time>
      </trkpt>
      <trkpt lat="44.88523" lon="5.53704">
        <ele>1416.64</ele>
        <time>2016-12-04T13:48:04Z</time>
      </trkpt>
      <trkpt lat="44.88527" lon="5.53712">
        <ele>1414.72</ele>
        <time>2016-12-04T13:48:12Z</time>
      </trkpt>
      <trkpt lat="44.88534" lon="5.53722">
        <ele>1410.87</ele>
        <time>2016-12-04T13:48:24Z</time>
      </trkpt>
      <trkpt lat="44.88542" lon="5.53733">
        <ele>1407.51</ele>
        <time>2016-12-04T13:48:36Z</time>
      </trkpt>
      <trkpt lat="44.8855" lon="5.53738">
        <ele>1404.14</ele>
        <time>2016-12-04T13:48:48Z</time>
      </trkpt>
      <trkpt lat="44.88559" lon="5.53745">
        <ele>1401.26</ele>
        <time>2016-12-04T13:48:59Z</time>
      </trkpt>
      <trkpt lat="44.88569" lon="5.53753">
        <ele>1397.89</ele>
        <time>2016-12-04T13:49:12Z</time>
      </trkpt>
      <trkpt lat="44.88577" lon="5.53757">
        <ele>1394.05</ele>
        <time>2016-12-04T13:49:24Z</time>
      </trkpt>
      <trkpt lat="44.88585" lon="5.53767">
        <ele>1392.13</ele>
        <time>2016-12-04T13:49:32Z</time>
      </trkpt>
      <trkpt lat="44.88597" lon="5.53775">
        <ele>1389.24</ele>
        <time>2016-12-04T13:49:46Z</time>
      </trkpt>
      <trkpt lat="44.88601" lon="5.53781">
        <ele>1387.8</ele>
        <time>2016-12-04T13:49:52Z</time>
      </trkpt>
      <trkpt lat="44.88613" lon="5.5379">
        <ele>1384.44</ele>
        <time>2016-12-04T13:50:06Z</time>
      </trkpt>
      <trkpt lat="44.88622" lon="5.538">
        <ele>1382.03</ele>
        <time>2016-12-04T13:50:17Z</time>
      </trkpt>
      <trkpt lat="44.88625" lon="5.53802">
        <ele>1381.07</ele>
        <time>2016-12-04T13:50:20Z</time>
      </trkpt>
      <trkpt lat="44.88632" lon="5.53811">
        <ele>1379.63</ele>
        <time>2016-12-04T13:50:30Z</time>
      </trkpt>
      <trkpt lat="44.88625" lon="5.53824">
        <ele>1379.15</ele>
        <time>2016-12-04T13:50:48Z</time>
      </trkpt>
      <trkpt lat="44.88627" lon="5.53825">
        <ele>1379.15</ele>
        <time>2016-12-04T13:51:14Z</time>
      </trkpt>
      <trkpt lat="44.88628" lon="5.53826">
        <ele>1379.15</ele>
        <time>2016-12-04T13:51:16Z</time>
      </trkpt>
      <trkpt lat="44.88642" lon="5.53833">
        <ele>1375.78</ele>
        <time>2016-12-04T13:51:29Z</time>
      </trkpt>
      <trkpt lat="44.8866" lon="5.5385">
        <ele>1372.9</ele>
        <time>2016-12-04T13:51:45Z</time>
      </trkpt>
      <trkpt lat="44.88661" lon="5.53854">
        <ele>1372.42</ele>
        <time>2016-12-04T13:51:48Z</time>
      </trkpt>
      <trkpt lat="44.88672" lon="5.53867">
        <ele>1369.05</ele>
        <time>2016-12-04T13:52:02Z</time>
      </trkpt>
      <trkpt lat="44.88679" lon="5.53883">
        <ele>1366.65</ele>
        <time>2016-12-04T13:52:14Z</time>
      </trkpt>
      <trkpt lat="44.88685" lon="5.53893">
        <ele>1364.25</ele>
        <time>2016-12-04T13:52:26Z</time>
      </trkpt>
      <trkpt lat="44.88694" lon="5.53903">
        <ele>1361.36</ele>
        <time>2016-12-04T13:52:39Z</time>
      </trkpt>
      <trkpt lat="44.88704" lon="5.53918">
        <ele>1358</ele>
        <time>2016-12-04T13:52:52Z</time>
      </trkpt>
      <trkpt lat="44.88715" lon="5.53933">
        <ele>1354.63</ele>
        <time>2016-12-04T13:53:06Z</time>
      </trkpt>
      <trkpt lat="44.88722" lon="5.53949">
        <ele>1351.75</ele>
        <time>2016-12-04T13:53:17Z</time>
      </trkpt>
      <trkpt lat="44.88726" lon="5.53962">
        <ele>1348.39</ele>
        <time>2016-12-04T13:53:28Z</time>
      </trkpt>
      <trkpt lat="44.88734" lon="5.53974">
        <ele>1345.5</ele>
        <time>2016-12-04T13:53:39Z</time>
      </trkpt>
      <trkpt lat="44.88739" lon="5.53974">
        <ele>1342.14</ele>
        <time>2016-12-04T13:53:49Z</time>
      </trkpt>
      <trkpt lat="44.88751" lon="5.53976">
        <ele>1339.25</ele>
        <time>2016-12-04T13:54:01Z</time>
      </trkpt>
      <trkpt lat="44.88759" lon="5.53981">
        <ele>1337.33</ele>
        <time>2016-12-04T13:54:12Z</time>
      </trkpt>
      <trkpt lat="44.88763" lon="5.53985">
        <ele>1336.37</ele>
        <time>2016-12-04T13:54:27Z</time>
      </trkpt>
      <trkpt lat="44.88779" lon="5.53996">
        <ele>1333.01</ele>
        <time>2016-12-04T13:54:42Z</time>
      </trkpt>
      <trkpt lat="44.88784" lon="5.53999">
        <ele>1332.04</ele>
        <time>2016-12-04T13:54:47Z</time>
      </trkpt>
      <trkpt lat="44.88789" lon="5.54005">
        <ele>1330.12</ele>
        <time>2016-12-04T13:54:53Z</time>
      </trkpt>
      <trkpt lat="44.88802" lon="5.54012">
        <ele>1327.72</ele>
        <time>2016-12-04T13:55:06Z</time>
      </trkpt>
      <trkpt lat="44.88811" lon="5.54023">
        <ele>1324.83</ele>
        <time>2016-12-04T13:55:19Z</time>
      </trkpt>
      <trkpt lat="44.88818" lon="5.54039">
        <ele>1321.95</ele>
        <time>2016-12-04T13:55:33Z</time>
      </trkpt>
      <trkpt lat="44.88828" lon="5.54054">
        <ele>1319.55</ele>
        <time>2016-12-04T13:55:47Z</time>
      </trkpt>
      <trkpt lat="44.88844" lon="5.54065">
        <ele>1317.14</ele>
        <time>2016-12-04T13:56:02Z</time>
      </trkpt>
      <trkpt lat="44.8886" lon="5.54085">
        <ele>1314.26</ele>
        <time>2016-12-04T13:56:16Z</time>
      </trkpt>
      <trkpt lat="44.88872" lon="5.54105">
        <ele>1312.34</ele>
        <time>2016-12-04T13:56:27Z</time>
      </trkpt>
      <trkpt lat="44.88874" lon="5.54108">
        <ele>1311.86</ele>
        <time>2016-12-04T13:56:29Z</time>
      </trkpt>
      <trkpt lat="44.88877" lon="5.54111">
        <ele>1311.86</ele>
        <time>2016-12-04T13:56:32Z</time>
      </trkpt>
      <trkpt lat="44.88883" lon="5.54131">
        <ele>1309.45</ele>
        <time>2016-12-04T13:56:45Z</time>
      </trkpt>
      <trkpt lat="44.88892" lon="5.54148">
        <ele>1306.57</ele>
        <time>2016-12-04T13:56:58Z</time>
      </trkpt>
      <trkpt lat="44.88901" lon="5.5416">
        <ele>1305.13</ele>
        <time>2016-12-04T13:57:09Z</time>
      </trkpt>
      <trkpt lat="44.88904" lon="5.54162">
        <ele>1304.17</ele>
        <time>2016-12-04T13:57:12Z</time>
      </trkpt>
      <trkpt lat="44.88911" lon="5.54169">
        <ele>1303.2</ele>
        <time>2016-12-04T13:57:20Z</time>
      </trkpt>
      <trkpt lat="44.88913" lon="5.5417">
        <ele>1302.72</ele>
        <time>2016-12-04T13:57:22Z</time>
      </trkpt>
      <trkpt lat="44.88915" lon="5.54174">
        <ele>1302.24</ele>
        <time>2016-12-04T13:57:25Z</time>
      </trkpt>
      <trkpt lat="44.88923" lon="5.54189">
        <ele>1299.36</ele>
        <time>2016-12-04T13:57:39Z</time>
      </trkpt>
      <trkpt lat="44.88924" lon="5.54191">
        <ele>1298.88</ele>
        <time>2016-12-04T13:57:41Z</time>
      </trkpt>
      <trkpt lat="44.88929" lon="5.54199">
        <ele>1297.92</ele>
        <time>2016-12-04T13:57:48Z</time>
      </trkpt>
      <trkpt lat="44.88938" lon="5.54215">
        <ele>1295.51</ele>
        <time>2016-12-04T13:58:02Z</time>
      </trkpt>
      <trkpt lat="44.88949" lon="5.54233">
        <ele>1293.59</ele>
        <time>2016-12-04T13:58:17Z</time>
      </trkpt>
      <trkpt lat="44.88956" lon="5.54248">
        <ele>1291.19</ele>
        <time>2016-12-04T13:58:30Z</time>
      </trkpt>
      <trkpt lat="44.88956" lon="5.5425">
        <ele>1290.23</ele>
        <time>2016-12-04T13:58:32Z</time>
      </trkpt>
      <trkpt lat="44.88964" lon="5.54265">
        <ele>1288.78</ele>
        <time>2016-12-04T13:58:45Z</time>
      </trkpt>
      <trkpt lat="44.88968" lon="5.54273">
        <ele>1287.82</ele>
        <time>2016-12-04T13:58:52Z</time>
      </trkpt>
      <trkpt lat="44.88978" lon="5.54296">
        <ele>1284.94</ele>
        <time>2016-12-04T13:59:07Z</time>
      </trkpt>
      <trkpt lat="44.88979" lon="5.543">
        <ele>1284.46</ele>
        <time>2016-12-04T13:59:10Z</time>
      </trkpt>
      <trkpt lat="44.88988" lon="5.54319">
        <ele>1282.06</ele>
        <time>2016-12-04T13:59:25Z</time>
      </trkpt>
      <trkpt lat="44.88997" lon="5.54336">
        <ele>1280.13</ele>
        <time>2016-12-04T13:59:39Z</time>
      </trkpt>
      <trkpt lat="44.89005" lon="5.54349">
        <ele>1278.69</ele>
        <time>2016-12-04T13:59:48Z</time>
      </trkpt>
      <trkpt lat="44.89011" lon="5.54356">
        <ele>1277.73</ele>
        <time>2016-12-04T13:59:54Z</time>
      </trkpt>
      <trkpt lat="44.8902" lon="5.54371">
        <ele>1276.29</ele>
        <time>2016-12-04T14:00:06Z</time>
      </trkpt>
      <trkpt lat="44.89022" lon="5.54376">
        <ele>1275.81</ele>
        <time>2016-12-04T14:00:10Z</time>
      </trkpt>
      <trkpt lat="44.89031" lon="5.54392">
        <ele>1273.88</ele>
        <time>2016-12-04T14:00:23Z</time>
      </trkpt>
      <trkpt lat="44.89036" lon="5.544">
        <ele>1272.92</ele>
        <time>2016-12-04T14:00:30Z</time>
      </trkpt>
      <trkpt lat="44.89041" lon="5.54406">
        <ele>1271.96</ele>
        <time>2016-12-04T14:00:37Z</time>
      </trkpt>
      <trkpt lat="44.89046" lon="5.54419">
        <ele>1271</ele>
        <time>2016-12-04T14:00:45Z</time>
      </trkpt>
      <trkpt lat="44.8905" lon="5.54428">
        <ele>1270.04</ele>
        <time>2016-12-04T14:00:51Z</time>
      </trkpt>
      <trkpt lat="44.89057" lon="5.54441">
        <ele>1269.08</ele>
        <time>2016-12-04T14:01:01Z</time>
      </trkpt>
      <trkpt lat="44.89062" lon="5.54448">
        <ele>1268.6</ele>
        <time>2016-12-04T14:01:06Z</time>
      </trkpt>
      <trkpt lat="44.89068" lon="5.54455">
        <ele>1268.12</ele>
        <time>2016-12-04T14:01:11Z</time>
      </trkpt>
      <trkpt lat="44.89083" lon="5.54471">
        <ele>1267.16</ele>
        <time>2016-12-04T14:01:25Z</time>
      </trkpt>
      <trkpt lat="44.89096" lon="5.54484">
        <ele>1266.19</ele>
        <time>2016-12-04T14:01:38Z</time>
      </trkpt>
      <trkpt lat="44.89109" lon="5.54503">
        <ele>1264.75</ele>
        <time>2016-12-04T14:01:53Z</time>
      </trkpt>
      <trkpt lat="44.89113" lon="5.54511">
        <ele>1264.27</ele>
        <time>2016-12-04T14:01:58Z</time>
      </trkpt>
      <trkpt lat="44.89128" lon="5.54533">
        <ele>1262.83</ele>
        <time>2016-12-04T14:02:14Z</time>
      </trkpt>
      <trkpt lat="44.8913" lon="5.54535">
        <ele>1262.83</ele>
        <time>2016-12-04T14:02:16Z</time>
      </trkpt>
      <trkpt lat="44.89145" lon="5.5456">
        <ele>1261.39</ele>
        <time>2016-12-04T14:02:33Z</time>
      </trkpt>
      <trkpt lat="44.89156" lon="5.5458">
        <ele>1260.43</ele>
        <time>2016-12-04T14:02:47Z</time>
      </trkpt>
      <trkpt lat="44.89161" lon="5.54592">
        <ele>1259.94</ele>
        <time>2016-12-04T14:02:56Z</time>
      </trkpt>
      <trkpt lat="44.89169" lon="5.54611">
        <ele>1258.98</ele>
        <time>2016-12-04T14:03:08Z</time>
      </trkpt>
      <trkpt lat="44.89174" lon="5.54626">
        <ele>1258.5</ele>
        <time>2016-12-04T14:03:17Z</time>
      </trkpt>
      <trkpt lat="44.89182" lon="5.54652">
        <ele>1257.54</ele>
        <time>2016-12-04T14:03:33Z</time>
      </trkpt>
      <trkpt lat="44.89187" lon="5.54681">
        <ele>1256.1</ele>
        <time>2016-12-04T14:03:50Z</time>
      </trkpt>
      <trkpt lat="44.89194" lon="5.54704">
        <ele>1255.14</ele>
        <time>2016-12-04T14:04:05Z</time>
      </trkpt>
      <trkpt lat="44.89196" lon="5.5471">
        <ele>1254.18</ele>
        <time>2016-12-04T14:04:09Z</time>
      </trkpt>
      <trkpt lat="44.89207" lon="5.54735">
        <ele>1252.74</ele>
        <time>2016-12-04T14:04:28Z</time>
      </trkpt>
      <trkpt lat="44.89221" lon="5.54754">
        <ele>1252.25</ele>
        <time>2016-12-04T14:04:47Z</time>
      </trkpt>
      <trkpt lat="44.89219" lon="5.54763">
        <ele>1251.77</ele>
        <time>2016-12-04T14:04:59Z</time>
      </trkpt>
      <trkpt lat="44.89217" lon="5.54765">
        <ele>1251.77</ele>
        <time>2016-12-04T14:05:23Z</time>
      </trkpt>
      <trkpt lat="44.89216" lon="5.54766">
        <ele>1251.29</ele>
        <time>2016-12-04T14:05:58Z</time>
      </trkpt>
      <trkpt lat="44.89217" lon="5.54764">
        <ele>1250.81</ele>
        <time>2016-12-04T14:06:23Z</time>
      </trkpt>
      <trkpt lat="44.89217" lon="5.54764">
        <ele>1250.33</ele>
        <time>2016-12-04T14:06:55Z</time>
      </trkpt>
      <trkpt lat="44.89217" lon="5.54764">
        <ele>1250.33</ele>
        <time>2016-12-04T14:07:27Z</time>
      </trkpt>
      <trkpt lat="44.89216" lon="5.54765">
        <ele>1250.33</ele>
        <time>2016-12-04T14:07:54Z</time>
      </trkpt>
      <trkpt lat="44.89218" lon="5.54764">
        <ele>1250.33</ele>
        <time>2016-12-04T14:08:26Z</time>
      </trkpt>
      <trkpt lat="44.89219" lon="5.54763">
        <ele>1250.33</ele>
        <time>2016-12-04T14:08:54Z</time>
      </trkpt>
      <trkpt lat="44.89219" lon="5.54762">
        <ele>1250.81</ele>
        <time>2016-12-04T14:09:10Z</time>
      </trkpt>
      <trkpt lat="44.89218" lon="5.54764">
        <ele>1250.81</ele>
        <time>2016-12-04T14:09:39Z</time>
      </trkpt>
    </trkseg>
  </trk>
</gpx>